<?xml version="1.0" encoding="UTF-8" standalone="no" ?>
<gpx xmlns="http://www.topografix.com/GPX/1/1" xmlns:xsi="http://www.w3.org/2001/XMLSchema-instance" xsi:schemaLocation="http://www.topografix.com/GPX/1/1 http://www.topografix.com/GPX/1/1/gpx.xsd" version="1.1" creator="VisuGPX - https://www.visugpx.com">
  <metadata>
    <name>Montcalm en boucle part les tables</name>
    <desc><![CDATA[départ de la rando après le village de Marc, lieu dit chalet de Montcalm; la rando ne présente pas de difficultés  techniques;  mes reste cependant une sortie alpine , ( pour randonneur.)   bonne rando.]]></desc>
  </metadata>
  <trk>
    <name><![CDATA[Montcalm en boucle part les tables_1]]></name>
    <trkseg>
      <trkpt lat="42.71416" lon="1.43507">
        <ele>1127.948608</ele>
        <time>2017-10-11T04:40:42Z</time>
      </trkpt>
      <trkpt lat="42.71417" lon="1.43507">
        <ele>1127</ele>
        <time>2017-10-11T04:40:40Z</time>
      </trkpt>
      <trkpt lat="42.71405" lon="1.43503">
        <ele>1128.54126</ele>
        <time>2017-10-11T04:41:26Z</time>
      </trkpt>
      <trkpt lat="42.71394" lon="1.43498">
        <ele>1128.73645</ele>
        <time>2017-10-11T04:42:49Z</time>
      </trkpt>
      <trkpt lat="42.71384" lon="1.43491">
        <ele>1129.599976</ele>
        <time>2017-10-11T04:42:53Z</time>
      </trkpt>
      <trkpt lat="42.71375" lon="1.43487">
        <ele>1130.300049</ele>
        <time>2017-10-11T04:42:56Z</time>
      </trkpt>
      <trkpt lat="42.71365" lon="1.43485">
        <ele>1130.5</ele>
        <time>2017-10-11T04:43:00Z</time>
      </trkpt>
      <trkpt lat="42.71356" lon="1.43482">
        <ele>1130.5</ele>
        <time>2017-10-11T04:43:04Z</time>
      </trkpt>
      <trkpt lat="42.71346" lon="1.4348">
        <ele>1130.300049</ele>
        <time>2017-10-11T04:43:09Z</time>
      </trkpt>
      <trkpt lat="42.71336" lon="1.43478">
        <ele>1129.699951</ele>
        <time>2017-10-11T04:43:16Z</time>
      </trkpt>
      <trkpt lat="42.71329" lon="1.4347">
        <ele>1129.900024</ele>
        <time>2017-10-11T04:43:24Z</time>
      </trkpt>
      <trkpt lat="42.71321" lon="1.43462">
        <ele>1131.099976</ele>
        <time>2017-10-11T04:43:30Z</time>
      </trkpt>
      <trkpt lat="42.71315" lon="1.43451">
        <ele>1132.400024</ele>
        <time>2017-10-11T04:43:38Z</time>
      </trkpt>
      <trkpt lat="42.71302" lon="1.43452">
        <ele>1133</ele>
        <time>2017-10-11T04:44:10Z</time>
      </trkpt>
      <trkpt lat="42.71295" lon="1.43444">
        <ele>1133.699951</ele>
        <time>2017-10-11T04:45:13Z</time>
      </trkpt>
      <trkpt lat="42.7129" lon="1.43433">
        <ele>1133.699951</ele>
        <time>2017-10-11T04:45:19Z</time>
      </trkpt>
      <trkpt lat="42.71288" lon="1.4342">
        <ele>1133.5</ele>
        <time>2017-10-11T04:45:26Z</time>
      </trkpt>
      <trkpt lat="42.71287" lon="1.43406">
        <ele>1134.800049</ele>
        <time>2017-10-11T04:45:36Z</time>
      </trkpt>
      <trkpt lat="42.71282" lon="1.43396">
        <ele>1136.300049</ele>
        <time>2017-10-11T04:45:45Z</time>
      </trkpt>
      <trkpt lat="42.71276" lon="1.43386">
        <ele>1136.800049</ele>
        <time>2017-10-11T04:45:48Z</time>
      </trkpt>
      <trkpt lat="42.7127" lon="1.43377">
        <ele>1137.400024</ele>
        <time>2017-10-11T04:45:52Z</time>
      </trkpt>
      <trkpt lat="42.71266" lon="1.43365">
        <ele>1138.199951</ele>
        <time>2017-10-11T04:45:59Z</time>
      </trkpt>
      <trkpt lat="42.71257" lon="1.43362">
        <ele>1137.199951</ele>
        <time>2017-10-11T04:46:10Z</time>
      </trkpt>
      <trkpt lat="42.71259" lon="1.43375">
        <ele>1135.900024</ele>
        <time>2017-10-11T04:46:25Z</time>
      </trkpt>
      <trkpt lat="42.71265" lon="1.43384">
        <ele>1136.5</ele>
        <time>2017-10-11T04:46:52Z</time>
      </trkpt>
      <trkpt lat="42.7127" lon="1.43395">
        <ele>1135.800049</ele>
        <time>2017-10-11T04:47:02Z</time>
      </trkpt>
      <trkpt lat="42.7127" lon="1.43409">
        <ele>1134.5</ele>
        <time>2017-10-11T04:47:11Z</time>
      </trkpt>
      <trkpt lat="42.7127" lon="1.43421">
        <ele>1133.199951</ele>
        <time>2017-10-11T04:47:18Z</time>
      </trkpt>
      <trkpt lat="42.71274" lon="1.43434">
        <ele>1133.5</ele>
        <time>2017-10-11T04:47:23Z</time>
      </trkpt>
      <trkpt lat="42.71277" lon="1.43447">
        <ele>1134.199951</ele>
        <time>2017-10-11T04:47:29Z</time>
      </trkpt>
      <trkpt lat="42.71284" lon="1.43456">
        <ele>1134.400024</ele>
        <time>2017-10-11T04:47:34Z</time>
      </trkpt>
      <trkpt lat="42.71287" lon="1.43469">
        <ele>1134.5</ele>
        <time>2017-10-11T04:47:44Z</time>
      </trkpt>
      <trkpt lat="42.71294" lon="1.43479">
        <ele>1134.199951</ele>
        <time>2017-10-11T04:47:51Z</time>
      </trkpt>
      <trkpt lat="42.71301" lon="1.4349">
        <ele>1133.300049</ele>
        <time>2017-10-11T04:47:59Z</time>
      </trkpt>
      <trkpt lat="42.71308" lon="1.435">
        <ele>1132.199951</ele>
        <time>2017-10-11T04:48:06Z</time>
      </trkpt>
      <trkpt lat="42.71315" lon="1.4351">
        <ele>1131.699951</ele>
        <time>2017-10-11T04:48:13Z</time>
      </trkpt>
      <trkpt lat="42.71322" lon="1.43518">
        <ele>1131.199951</ele>
        <time>2017-10-11T04:48:23Z</time>
      </trkpt>
      <trkpt lat="42.71329" lon="1.43529">
        <ele>1130.5</ele>
        <time>2017-10-11T04:48:31Z</time>
      </trkpt>
      <trkpt lat="42.71334" lon="1.43539">
        <ele>1129.900024</ele>
        <time>2017-10-11T04:48:39Z</time>
      </trkpt>
      <trkpt lat="42.71339" lon="1.4355">
        <ele>1130.099976</ele>
        <time>2017-10-11T04:48:48Z</time>
      </trkpt>
      <trkpt lat="42.71348" lon="1.43557">
        <ele>1130.199951</ele>
        <time>2017-10-11T04:48:55Z</time>
      </trkpt>
      <trkpt lat="42.71339" lon="1.43561">
        <ele>1130.800049</ele>
        <time>2017-10-11T04:49:13Z</time>
      </trkpt>
      <trkpt lat="42.71331" lon="1.43555">
        <ele>1131.300049</ele>
        <time>2017-10-11T04:49:22Z</time>
      </trkpt>
      <trkpt lat="42.7132" lon="1.43548">
        <ele>1133.699951</ele>
        <time>2017-10-11T04:49:30Z</time>
      </trkpt>
      <trkpt lat="42.71312" lon="1.43539">
        <ele>1136</ele>
        <time>2017-10-11T04:49:38Z</time>
      </trkpt>
      <trkpt lat="42.71303" lon="1.43534">
        <ele>1137.5</ele>
        <time>2017-10-11T04:49:46Z</time>
      </trkpt>
      <trkpt lat="42.71298" lon="1.43523">
        <ele>1137.900024</ele>
        <time>2017-10-11T04:49:55Z</time>
      </trkpt>
      <trkpt lat="42.7129" lon="1.43515">
        <ele>1138</ele>
        <time>2017-10-11T04:50:03Z</time>
      </trkpt>
      <trkpt lat="42.71282" lon="1.43507">
        <ele>1137.800049</ele>
        <time>2017-10-11T04:50:12Z</time>
      </trkpt>
      <trkpt lat="42.71276" lon="1.43498">
        <ele>1137.400024</ele>
        <time>2017-10-11T04:50:19Z</time>
      </trkpt>
      <trkpt lat="42.71267" lon="1.43491">
        <ele>1138</ele>
        <time>2017-10-11T04:50:29Z</time>
      </trkpt>
      <trkpt lat="42.71261" lon="1.43481">
        <ele>1138.199951</ele>
        <time>2017-10-11T04:50:39Z</time>
      </trkpt>
      <trkpt lat="42.71253" lon="1.43472">
        <ele>1138.300049</ele>
        <time>2017-10-11T04:50:47Z</time>
      </trkpt>
      <trkpt lat="42.71244" lon="1.43467">
        <ele>1139.599976</ele>
        <time>2017-10-11T04:50:55Z</time>
      </trkpt>
      <trkpt lat="42.71238" lon="1.43457">
        <ele>1141.099976</ele>
        <time>2017-10-11T04:51:07Z</time>
      </trkpt>
      <trkpt lat="42.71231" lon="1.43449">
        <ele>1142.400024</ele>
        <time>2017-10-11T04:51:16Z</time>
      </trkpt>
      <trkpt lat="42.71221" lon="1.43443">
        <ele>1144.800049</ele>
        <time>2017-10-11T04:51:25Z</time>
      </trkpt>
      <trkpt lat="42.71213" lon="1.43437">
        <ele>1146.5</ele>
        <time>2017-10-11T04:51:32Z</time>
      </trkpt>
      <trkpt lat="42.71203" lon="1.43431">
        <ele>1148</ele>
        <time>2017-10-11T04:51:40Z</time>
      </trkpt>
      <trkpt lat="42.71198" lon="1.43421">
        <ele>1149.300049</ele>
        <time>2017-10-11T04:51:51Z</time>
      </trkpt>
      <trkpt lat="42.71189" lon="1.4341">
        <ele>1149.699951</ele>
        <time>2017-10-11T04:52:01Z</time>
      </trkpt>
      <trkpt lat="42.71182" lon="1.43401">
        <ele>1150.400024</ele>
        <time>2017-10-11T04:52:08Z</time>
      </trkpt>
      <trkpt lat="42.71178" lon="1.4339">
        <ele>1150</ele>
        <time>2017-10-11T04:52:17Z</time>
      </trkpt>
      <trkpt lat="42.71173" lon="1.43379">
        <ele>1149</ele>
        <time>2017-10-11T04:52:27Z</time>
      </trkpt>
      <trkpt lat="42.71167" lon="1.43369">
        <ele>1147.900024</ele>
        <time>2017-10-11T04:52:35Z</time>
      </trkpt>
      <trkpt lat="42.71159" lon="1.43362">
        <ele>1148.699951</ele>
        <time>2017-10-11T04:52:44Z</time>
      </trkpt>
      <trkpt lat="42.71151" lon="1.43354">
        <ele>1150.099976</ele>
        <time>2017-10-11T04:52:53Z</time>
      </trkpt>
      <trkpt lat="42.71142" lon="1.43347">
        <ele>1152.599976</ele>
        <time>2017-10-11T04:53:02Z</time>
      </trkpt>
      <trkpt lat="42.71133" lon="1.43344">
        <ele>1155.300049</ele>
        <time>2017-10-11T04:53:10Z</time>
      </trkpt>
      <trkpt lat="42.71124" lon="1.4334">
        <ele>1158.199951</ele>
        <time>2017-10-11T04:53:18Z</time>
      </trkpt>
      <trkpt lat="42.71116" lon="1.43332">
        <ele>1160.5</ele>
        <time>2017-10-11T04:53:27Z</time>
      </trkpt>
      <trkpt lat="42.71111" lon="1.43321">
        <ele>1161.699951</ele>
        <time>2017-10-11T04:53:35Z</time>
      </trkpt>
      <trkpt lat="42.71109" lon="1.43309">
        <ele>1161.300049</ele>
        <time>2017-10-11T04:53:42Z</time>
      </trkpt>
      <trkpt lat="42.71104" lon="1.43297">
        <ele>1161.099976</ele>
        <time>2017-10-11T04:53:50Z</time>
      </trkpt>
      <trkpt lat="42.711" lon="1.43285">
        <ele>1160.900024</ele>
        <time>2017-10-11T04:53:59Z</time>
      </trkpt>
      <trkpt lat="42.71101" lon="1.43272">
        <ele>1159.099976</ele>
        <time>2017-10-11T04:54:19Z</time>
      </trkpt>
      <trkpt lat="42.71096" lon="1.43261">
        <ele>1158.900024</ele>
        <time>2017-10-11T04:54:29Z</time>
      </trkpt>
      <trkpt lat="42.71093" lon="1.43249">
        <ele>1158.199951</ele>
        <time>2017-10-11T04:54:39Z</time>
      </trkpt>
      <trkpt lat="42.71085" lon="1.43242">
        <ele>1158.400024</ele>
        <time>2017-10-11T04:54:49Z</time>
      </trkpt>
      <trkpt lat="42.71076" lon="1.4324">
        <ele>1162.300049</ele>
        <time>2017-10-11T04:55:05Z</time>
      </trkpt>
      <trkpt lat="42.71067" lon="1.43241">
        <ele>1165.300049</ele>
        <time>2017-10-11T04:57:10Z</time>
      </trkpt>
      <trkpt lat="42.71058" lon="1.43237">
        <ele>1170.099976</ele>
        <time>2017-10-11T04:57:18Z</time>
      </trkpt>
      <trkpt lat="42.71049" lon="1.43233">
        <ele>1175.099976</ele>
        <time>2017-10-11T04:57:32Z</time>
      </trkpt>
      <trkpt lat="42.71041" lon="1.43224">
        <ele>1177.400024</ele>
        <time>2017-10-11T04:57:44Z</time>
      </trkpt>
      <trkpt lat="42.71034" lon="1.43216">
        <ele>1180.099976</ele>
        <time>2017-10-11T04:57:55Z</time>
      </trkpt>
      <trkpt lat="42.71026" lon="1.4321">
        <ele>1183.300049</ele>
        <time>2017-10-11T04:58:11Z</time>
      </trkpt>
      <trkpt lat="42.71017" lon="1.43205">
        <ele>1186.5</ele>
        <time>2017-10-11T04:58:36Z</time>
      </trkpt>
      <trkpt lat="42.71008" lon="1.43205">
        <ele>1190.5</ele>
        <time>2017-10-11T04:58:45Z</time>
      </trkpt>
      <trkpt lat="42.71001" lon="1.43196">
        <ele>1193.800049</ele>
        <time>2017-10-11T04:58:59Z</time>
      </trkpt>
      <trkpt lat="42.70997" lon="1.43185">
        <ele>1195.099976</ele>
        <time>2017-10-11T04:59:09Z</time>
      </trkpt>
      <trkpt lat="42.70992" lon="1.43175">
        <ele>1195.800049</ele>
        <time>2017-10-11T04:59:17Z</time>
      </trkpt>
      <trkpt lat="42.70988" lon="1.43163">
        <ele>1196.199951</ele>
        <time>2017-10-11T04:59:27Z</time>
      </trkpt>
      <trkpt lat="42.70979" lon="1.43162">
        <ele>1199.800049</ele>
        <time>2017-10-11T05:00:00Z</time>
      </trkpt>
      <trkpt lat="42.70971" lon="1.43154">
        <ele>1203.400024</ele>
        <time>2017-10-11T05:00:11Z</time>
      </trkpt>
      <trkpt lat="42.7096" lon="1.43159">
        <ele>1208.699951</ele>
        <time>2017-10-11T05:01:15Z</time>
      </trkpt>
      <trkpt lat="42.70955" lon="1.4317">
        <ele>1213.300049</ele>
        <time>2017-10-11T05:01:30Z</time>
      </trkpt>
      <trkpt lat="42.70953" lon="1.43157">
        <ele>1213.400024</ele>
        <time>2017-10-11T05:01:39Z</time>
      </trkpt>
      <trkpt lat="42.7095" lon="1.43144">
        <ele>1213.400024</ele>
        <time>2017-10-11T05:01:47Z</time>
      </trkpt>
      <trkpt lat="42.70945" lon="1.43133">
        <ele>1214.5</ele>
        <time>2017-10-11T05:01:55Z</time>
      </trkpt>
      <trkpt lat="42.7094" lon="1.43122">
        <ele>1215.5</ele>
        <time>2017-10-11T05:02:30Z</time>
      </trkpt>
      <trkpt lat="42.70936" lon="1.43106">
        <ele>1216.599976</ele>
        <time>2017-10-11T05:02:51Z</time>
      </trkpt>
      <trkpt lat="42.70928" lon="1.431">
        <ele>1219.099976</ele>
        <time>2017-10-11T05:03:06Z</time>
      </trkpt>
      <trkpt lat="42.70923" lon="1.4309">
        <ele>1221.5</ele>
        <time>2017-10-11T05:03:19Z</time>
      </trkpt>
      <trkpt lat="42.70919" lon="1.43077">
        <ele>1222.400024</ele>
        <time>2017-10-11T05:03:53Z</time>
      </trkpt>
      <trkpt lat="42.70911" lon="1.4307">
        <ele>1225</ele>
        <time>2017-10-11T05:04:04Z</time>
      </trkpt>
      <trkpt lat="42.70902" lon="1.43076">
        <ele>1229.900024</ele>
        <time>2017-10-11T05:04:25Z</time>
      </trkpt>
      <trkpt lat="42.70893" lon="1.43073">
        <ele>1233.599976</ele>
        <time>2017-10-11T05:04:33Z</time>
      </trkpt>
      <trkpt lat="42.70885" lon="1.43068">
        <ele>1237.599976</ele>
        <time>2017-10-11T05:04:40Z</time>
      </trkpt>
      <trkpt lat="42.70882" lon="1.43056">
        <ele>1239.900024</ele>
        <time>2017-10-11T05:04:48Z</time>
      </trkpt>
      <trkpt lat="42.70877" lon="1.43043">
        <ele>1241</ele>
        <time>2017-10-11T05:04:56Z</time>
      </trkpt>
      <trkpt lat="42.70871" lon="1.43033">
        <ele>1243.199951</ele>
        <time>2017-10-11T05:05:06Z</time>
      </trkpt>
      <trkpt lat="42.70863" lon="1.43041">
        <ele>1247.199951</ele>
        <time>2017-10-11T05:05:29Z</time>
      </trkpt>
      <trkpt lat="42.70854" lon="1.43036">
        <ele>1250.5</ele>
        <time>2017-10-11T05:05:38Z</time>
      </trkpt>
      <trkpt lat="42.70846" lon="1.43029">
        <ele>1254.5</ele>
        <time>2017-10-11T05:05:53Z</time>
      </trkpt>
      <trkpt lat="42.70839" lon="1.43019">
        <ele>1256.599976</ele>
        <time>2017-10-11T05:06:06Z</time>
      </trkpt>
      <trkpt lat="42.7083" lon="1.4301">
        <ele>1259.099976</ele>
        <time>2017-10-11T05:06:26Z</time>
      </trkpt>
      <trkpt lat="42.70827" lon="1.42997">
        <ele>1260.699951</ele>
        <time>2017-10-11T05:06:38Z</time>
      </trkpt>
      <trkpt lat="42.70825" lon="1.42984">
        <ele>1261.599976</ele>
        <time>2017-10-11T05:06:48Z</time>
      </trkpt>
      <trkpt lat="42.7082" lon="1.42972">
        <ele>1262.599976</ele>
        <time>2017-10-11T05:07:02Z</time>
      </trkpt>
      <trkpt lat="42.70811" lon="1.42973">
        <ele>1266.300049</ele>
        <time>2017-10-11T05:07:12Z</time>
      </trkpt>
      <trkpt lat="42.70808" lon="1.4296">
        <ele>1267.900024</ele>
        <time>2017-10-11T05:07:28Z</time>
      </trkpt>
      <trkpt lat="42.70802" lon="1.42949">
        <ele>1270.199951</ele>
        <time>2017-10-11T05:07:38Z</time>
      </trkpt>
      <trkpt lat="42.70796" lon="1.42939">
        <ele>1272.800049</ele>
        <time>2017-10-11T05:07:49Z</time>
      </trkpt>
      <trkpt lat="42.70789" lon="1.42929">
        <ele>1275.800049</ele>
        <time>2017-10-11T05:08:04Z</time>
      </trkpt>
      <trkpt lat="42.70784" lon="1.42919">
        <ele>1278.400024</ele>
        <time>2017-10-11T05:08:19Z</time>
      </trkpt>
      <trkpt lat="42.70775" lon="1.42913">
        <ele>1281</ele>
        <time>2017-10-11T05:08:35Z</time>
      </trkpt>
      <trkpt lat="42.70773" lon="1.42901">
        <ele>1284</ele>
        <time>2017-10-11T05:08:48Z</time>
      </trkpt>
      <trkpt lat="42.70768" lon="1.42891">
        <ele>1286.400024</ele>
        <time>2017-10-11T05:09:05Z</time>
      </trkpt>
      <trkpt lat="42.70763" lon="1.4288">
        <ele>1289.5</ele>
        <time>2017-10-11T05:09:17Z</time>
      </trkpt>
      <trkpt lat="42.70758" lon="1.42866">
        <ele>1292.800049</ele>
        <time>2017-10-11T05:09:46Z</time>
      </trkpt>
      <trkpt lat="42.70755" lon="1.42853">
        <ele>1294.900024</ele>
        <time>2017-10-11T05:10:00Z</time>
      </trkpt>
      <trkpt lat="42.70749" lon="1.42842">
        <ele>1297.599976</ele>
        <time>2017-10-11T05:10:23Z</time>
      </trkpt>
      <trkpt lat="42.70746" lon="1.42826">
        <ele>1301.900024</ele>
        <time>2017-10-11T05:10:55Z</time>
      </trkpt>
      <trkpt lat="42.70739" lon="1.42817">
        <ele>1303.900024</ele>
        <time>2017-10-11T05:11:09Z</time>
      </trkpt>
      <trkpt lat="42.70729" lon="1.42818">
        <ele>1309.599976</ele>
        <time>2017-10-11T05:11:39Z</time>
      </trkpt>
      <trkpt lat="42.70723" lon="1.42809">
        <ele>1314.5</ele>
        <time>2017-10-11T05:11:55Z</time>
      </trkpt>
      <trkpt lat="42.70718" lon="1.4282">
        <ele>1314.699951</ele>
        <time>2017-10-11T05:12:36Z</time>
      </trkpt>
      <trkpt lat="42.70711" lon="1.42811">
        <ele>1320.800049</ele>
        <time>2017-10-11T05:12:49Z</time>
      </trkpt>
      <trkpt lat="42.70708" lon="1.428">
        <ele>1323.5</ele>
        <time>2017-10-11T05:12:59Z</time>
      </trkpt>
      <trkpt lat="42.70704" lon="1.42788">
        <ele>1326.400024</ele>
        <time>2017-10-11T05:13:10Z</time>
      </trkpt>
      <trkpt lat="42.70704" lon="1.42776">
        <ele>1328.400024</ele>
        <time>2017-10-11T05:13:25Z</time>
      </trkpt>
      <trkpt lat="42.70702" lon="1.42763">
        <ele>1329.400024</ele>
        <time>2017-10-11T05:13:35Z</time>
      </trkpt>
      <trkpt lat="42.70702" lon="1.42749">
        <ele>1330.900024</ele>
        <time>2017-10-11T05:13:59Z</time>
      </trkpt>
      <trkpt lat="42.70701" lon="1.42736">
        <ele>1331.400024</ele>
        <time>2017-10-11T05:14:41Z</time>
      </trkpt>
      <trkpt lat="42.70693" lon="1.4273">
        <ele>1334.300049</ele>
        <time>2017-10-11T05:14:54Z</time>
      </trkpt>
      <trkpt lat="42.7069" lon="1.42719">
        <ele>1336.800049</ele>
        <time>2017-10-11T05:15:04Z</time>
      </trkpt>
      <trkpt lat="42.70682" lon="1.42712">
        <ele>1341.400024</ele>
        <time>2017-10-11T05:15:15Z</time>
      </trkpt>
      <trkpt lat="42.70674" lon="1.42703">
        <ele>1346.400024</ele>
        <time>2017-10-11T05:15:27Z</time>
      </trkpt>
      <trkpt lat="42.70672" lon="1.42691">
        <ele>1347.800049</ele>
        <time>2017-10-11T05:15:38Z</time>
      </trkpt>
      <trkpt lat="42.70667" lon="1.4268">
        <ele>1349.699951</ele>
        <time>2017-10-11T05:15:51Z</time>
      </trkpt>
      <trkpt lat="42.70659" lon="1.42673">
        <ele>1353.800049</ele>
        <time>2017-10-11T05:16:02Z</time>
      </trkpt>
      <trkpt lat="42.7065" lon="1.4267">
        <ele>1358.800049</ele>
        <time>2017-10-11T05:16:14Z</time>
      </trkpt>
      <trkpt lat="42.70643" lon="1.42662">
        <ele>1362.199951</ele>
        <time>2017-10-11T05:16:27Z</time>
      </trkpt>
      <trkpt lat="42.70635" lon="1.42656">
        <ele>1365.599976</ele>
        <time>2017-10-11T05:16:38Z</time>
      </trkpt>
      <trkpt lat="42.70627" lon="1.42647">
        <ele>1368.800049</ele>
        <time>2017-10-11T05:16:50Z</time>
      </trkpt>
      <trkpt lat="42.70618" lon="1.42649">
        <ele>1374.199951</ele>
        <time>2017-10-11T05:17:08Z</time>
      </trkpt>
      <trkpt lat="42.70609" lon="1.42645">
        <ele>1379.699951</ele>
        <time>2017-10-11T05:17:24Z</time>
      </trkpt>
      <trkpt lat="42.706" lon="1.42635">
        <ele>1382</ele>
        <time>2017-10-11T05:17:43Z</time>
      </trkpt>
      <trkpt lat="42.70591" lon="1.42631">
        <ele>1386.900024</ele>
        <time>2017-10-11T05:17:53Z</time>
      </trkpt>
      <trkpt lat="42.70583" lon="1.42619">
        <ele>1390.800049</ele>
        <time>2017-10-11T05:18:19Z</time>
      </trkpt>
      <trkpt lat="42.70574" lon="1.4262">
        <ele>1393.099976</ele>
        <time>2017-10-11T05:19:02Z</time>
      </trkpt>
      <trkpt lat="42.70566" lon="1.42614">
        <ele>1398.400024</ele>
        <time>2017-10-11T05:19:13Z</time>
      </trkpt>
      <trkpt lat="42.70558" lon="1.42609">
        <ele>1402.300049</ele>
        <time>2017-10-11T05:19:22Z</time>
      </trkpt>
      <trkpt lat="42.70552" lon="1.42599">
        <ele>1404</ele>
        <time>2017-10-11T05:19:30Z</time>
      </trkpt>
      <trkpt lat="42.70548" lon="1.42587">
        <ele>1404.300049</ele>
        <time>2017-10-11T05:19:40Z</time>
      </trkpt>
      <trkpt lat="42.7054" lon="1.4258">
        <ele>1405.699951</ele>
        <time>2017-10-11T05:19:49Z</time>
      </trkpt>
      <trkpt lat="42.70533" lon="1.4257">
        <ele>1407.099976</ele>
        <time>2017-10-11T05:19:57Z</time>
      </trkpt>
      <trkpt lat="42.70527" lon="1.4256">
        <ele>1407.699951</ele>
        <time>2017-10-11T05:20:25Z</time>
      </trkpt>
      <trkpt lat="42.70519" lon="1.42552">
        <ele>1409.699951</ele>
        <time>2017-10-11T05:20:34Z</time>
      </trkpt>
      <trkpt lat="42.7051" lon="1.42541">
        <ele>1411</ele>
        <time>2017-10-11T05:20:42Z</time>
      </trkpt>
      <trkpt lat="42.70503" lon="1.42533">
        <ele>1412</ele>
        <time>2017-10-11T05:20:50Z</time>
      </trkpt>
      <trkpt lat="42.70495" lon="1.42541">
        <ele>1418</ele>
        <time>2017-10-11T05:21:22Z</time>
      </trkpt>
      <trkpt lat="42.70486" lon="1.4253">
        <ele>1421</ele>
        <time>2017-10-11T05:21:34Z</time>
      </trkpt>
      <trkpt lat="42.70478" lon="1.42523">
        <ele>1423</ele>
        <time>2017-10-11T05:21:42Z</time>
      </trkpt>
      <trkpt lat="42.70466" lon="1.42518">
        <ele>1427</ele>
        <time>2017-10-11T05:21:54Z</time>
      </trkpt>
      <trkpt lat="42.70458" lon="1.42514">
        <ele>1431</ele>
        <time>2017-10-11T05:22:06Z</time>
      </trkpt>
      <trkpt lat="42.70448" lon="1.4251">
        <ele>1435</ele>
        <time>2017-10-11T05:22:18Z</time>
      </trkpt>
      <trkpt lat="42.70438" lon="1.42503">
        <ele>1439</ele>
        <time>2017-10-11T05:22:34Z</time>
      </trkpt>
      <trkpt lat="42.70426" lon="1.42495">
        <ele>1442</ele>
        <time>2017-10-11T05:22:50Z</time>
      </trkpt>
      <trkpt lat="42.70416" lon="1.42488">
        <ele>1446</ele>
        <time>2017-10-11T05:23:06Z</time>
      </trkpt>
      <trkpt lat="42.70405" lon="1.42482">
        <ele>1449</ele>
        <time>2017-10-11T05:23:22Z</time>
      </trkpt>
      <trkpt lat="42.70395" lon="1.42479">
        <ele>1452</ele>
        <time>2017-10-11T05:23:34Z</time>
      </trkpt>
      <trkpt lat="42.70385" lon="1.42474">
        <ele>1456</ele>
        <time>2017-10-11T05:23:50Z</time>
      </trkpt>
      <trkpt lat="42.70378" lon="1.42465">
        <ele>1457</ele>
        <time>2017-10-11T05:24:14Z</time>
      </trkpt>
      <trkpt lat="42.70367" lon="1.42464">
        <ele>1459</ele>
        <time>2017-10-11T05:24:26Z</time>
      </trkpt>
      <trkpt lat="42.70357" lon="1.42465">
        <ele>1464</ele>
        <time>2017-10-11T05:24:38Z</time>
      </trkpt>
      <trkpt lat="42.70348" lon="1.42462">
        <ele>1467</ele>
        <time>2017-10-11T05:24:54Z</time>
      </trkpt>
      <trkpt lat="42.70339" lon="1.42453">
        <ele>1468</ele>
        <time>2017-10-11T05:25:10Z</time>
      </trkpt>
      <trkpt lat="42.70331" lon="1.42447">
        <ele>1468</ele>
        <time>2017-10-11T05:25:22Z</time>
      </trkpt>
      <trkpt lat="42.70321" lon="1.42449">
        <ele>1472</ele>
        <time>2017-10-11T05:25:38Z</time>
      </trkpt>
      <trkpt lat="42.70315" lon="1.4244">
        <ele>1474</ele>
        <time>2017-10-11T05:26:02Z</time>
      </trkpt>
      <trkpt lat="42.70302" lon="1.4243">
        <ele>1474</ele>
        <time>2017-10-11T05:26:22Z</time>
      </trkpt>
      <trkpt lat="42.70294" lon="1.42426">
        <ele>1476.699951</ele>
        <time>2017-10-11T05:26:34Z</time>
      </trkpt>
      <trkpt lat="42.70286" lon="1.42419">
        <ele>1477.300049</ele>
        <time>2017-10-11T05:26:41Z</time>
      </trkpt>
      <trkpt lat="42.70279" lon="1.42408">
        <ele>1478.199951</ele>
        <time>2017-10-11T05:26:50Z</time>
      </trkpt>
      <trkpt lat="42.70255" lon="1.42419">
        <ele>1487</ele>
        <time>2017-10-11T05:30:49Z</time>
      </trkpt>
      <trkpt lat="42.70243" lon="1.42429">
        <ele>1493</ele>
        <time>2017-10-11T05:31:01Z</time>
      </trkpt>
      <trkpt lat="42.70244" lon="1.42443">
        <ele>1498</ele>
        <time>2017-10-11T05:31:53Z</time>
      </trkpt>
      <trkpt lat="42.70231" lon="1.42449">
        <ele>1504</ele>
        <time>2017-10-11T05:32:05Z</time>
      </trkpt>
      <trkpt lat="42.70221" lon="1.42452">
        <ele>1508</ele>
        <time>2017-10-11T05:32:13Z</time>
      </trkpt>
      <trkpt lat="42.70211" lon="1.4245">
        <ele>1512</ele>
        <time>2017-10-11T05:32:21Z</time>
      </trkpt>
      <trkpt lat="42.70205" lon="1.4244">
        <ele>1511</ele>
        <time>2017-10-11T05:32:33Z</time>
      </trkpt>
      <trkpt lat="42.70196" lon="1.42433">
        <ele>1511</ele>
        <time>2017-10-11T05:32:41Z</time>
      </trkpt>
      <trkpt lat="42.70184" lon="1.42427">
        <ele>1511</ele>
        <time>2017-10-11T05:32:53Z</time>
      </trkpt>
      <trkpt lat="42.70175" lon="1.42431">
        <ele>1516</ele>
        <time>2017-10-11T05:33:17Z</time>
      </trkpt>
      <trkpt lat="42.70166" lon="1.42438">
        <ele>1520</ele>
        <time>2017-10-11T05:33:37Z</time>
      </trkpt>
      <trkpt lat="42.70156" lon="1.42439">
        <ele>1524</ele>
        <time>2017-10-11T05:34:05Z</time>
      </trkpt>
      <trkpt lat="42.70147" lon="1.42438">
        <ele>1527</ele>
        <time>2017-10-11T05:34:21Z</time>
      </trkpt>
      <trkpt lat="42.70137" lon="1.42438">
        <ele>1529</ele>
        <time>2017-10-11T05:34:37Z</time>
      </trkpt>
      <trkpt lat="42.70129" lon="1.42445">
        <ele>1534</ele>
        <time>2017-10-11T05:34:53Z</time>
      </trkpt>
      <trkpt lat="42.70118" lon="1.42444">
        <ele>1538</ele>
        <time>2017-10-11T05:35:13Z</time>
      </trkpt>
      <trkpt lat="42.70108" lon="1.42449">
        <ele>1542</ele>
        <time>2017-10-11T05:35:33Z</time>
      </trkpt>
      <trkpt lat="42.70097" lon="1.42448">
        <ele>1546</ele>
        <time>2017-10-11T05:35:57Z</time>
      </trkpt>
      <trkpt lat="42.70087" lon="1.42455">
        <ele>1550</ele>
        <time>2017-10-11T05:36:13Z</time>
      </trkpt>
      <trkpt lat="42.70076" lon="1.4246">
        <ele>1556</ele>
        <time>2017-10-11T05:36:25Z</time>
      </trkpt>
      <trkpt lat="42.70066" lon="1.42461">
        <ele>1560</ele>
        <time>2017-10-11T05:36:41Z</time>
      </trkpt>
      <trkpt lat="42.70057" lon="1.42454">
        <ele>1561</ele>
        <time>2017-10-11T05:37:01Z</time>
      </trkpt>
      <trkpt lat="42.70049" lon="1.42448">
        <ele>1561</ele>
        <time>2017-10-11T05:37:17Z</time>
      </trkpt>
      <trkpt lat="42.70039" lon="1.42448">
        <ele>1563</ele>
        <time>2017-10-11T05:37:41Z</time>
      </trkpt>
      <trkpt lat="42.70029" lon="1.42456">
        <ele>1568</ele>
        <time>2017-10-11T05:38:25Z</time>
      </trkpt>
      <trkpt lat="42.70025" lon="1.42472">
        <ele>1573</ele>
        <time>2017-10-11T05:40:17Z</time>
      </trkpt>
      <trkpt lat="42.7002" lon="1.42461">
        <ele>1574.5</ele>
        <time>2017-10-11T05:42:07Z</time>
      </trkpt>
      <trkpt lat="42.70015" lon="1.4245">
        <ele>1572</ele>
        <time>2017-10-11T05:42:21Z</time>
      </trkpt>
      <trkpt lat="42.70006" lon="1.42449">
        <ele>1573.900024</ele>
        <time>2017-10-11T05:42:32Z</time>
      </trkpt>
      <trkpt lat="42.69997" lon="1.42446">
        <ele>1575.300049</ele>
        <time>2017-10-11T05:42:44Z</time>
      </trkpt>
      <trkpt lat="42.69988" lon="1.42442">
        <ele>1577.099976</ele>
        <time>2017-10-11T05:42:56Z</time>
      </trkpt>
      <trkpt lat="42.69979" lon="1.42438">
        <ele>1578.400024</ele>
        <time>2017-10-11T05:43:11Z</time>
      </trkpt>
      <trkpt lat="42.69967" lon="1.42435">
        <ele>1578.900024</ele>
        <time>2017-10-11T05:43:32Z</time>
      </trkpt>
      <trkpt lat="42.69961" lon="1.42425">
        <ele>1579.699951</ele>
        <time>2017-10-11T05:43:45Z</time>
      </trkpt>
      <trkpt lat="42.69957" lon="1.42414">
        <ele>1576.5</ele>
        <time>2017-10-11T05:43:58Z</time>
      </trkpt>
      <trkpt lat="42.69947" lon="1.42415">
        <ele>1578.5</ele>
        <time>2017-10-11T05:44:11Z</time>
      </trkpt>
      <trkpt lat="42.69938" lon="1.42417">
        <ele>1581.400024</ele>
        <time>2017-10-11T05:44:24Z</time>
      </trkpt>
      <trkpt lat="42.69928" lon="1.42418">
        <ele>1584.400024</ele>
        <time>2017-10-11T05:44:48Z</time>
      </trkpt>
      <trkpt lat="42.69923" lon="1.42429">
        <ele>1591</ele>
        <time>2017-10-11T05:45:20Z</time>
      </trkpt>
      <trkpt lat="42.69914" lon="1.42425">
        <ele>1591.699951</ele>
        <time>2017-10-11T05:45:33Z</time>
      </trkpt>
      <trkpt lat="42.69905" lon="1.42421">
        <ele>1592.400024</ele>
        <time>2017-10-11T05:45:49Z</time>
      </trkpt>
      <trkpt lat="42.69895" lon="1.4242">
        <ele>1594.099976</ele>
        <time>2017-10-11T05:46:06Z</time>
      </trkpt>
      <trkpt lat="42.69887" lon="1.42423">
        <ele>1598</ele>
        <time>2017-10-11T05:46:21Z</time>
      </trkpt>
      <trkpt lat="42.69877" lon="1.42425">
        <ele>1601.099976</ele>
        <time>2017-10-11T05:46:34Z</time>
      </trkpt>
      <trkpt lat="42.69869" lon="1.4242">
        <ele>1601.400024</ele>
        <time>2017-10-11T05:46:58Z</time>
      </trkpt>
      <trkpt lat="42.6986" lon="1.42416">
        <ele>1602.5</ele>
        <time>2017-10-11T05:47:22Z</time>
      </trkpt>
      <trkpt lat="42.69851" lon="1.42411">
        <ele>1604</ele>
        <time>2017-10-11T05:47:34Z</time>
      </trkpt>
      <trkpt lat="42.69842" lon="1.4241">
        <ele>1605.800049</ele>
        <time>2017-10-11T05:47:50Z</time>
      </trkpt>
      <trkpt lat="42.69832" lon="1.42408">
        <ele>1608</ele>
        <time>2017-10-11T05:48:03Z</time>
      </trkpt>
      <trkpt lat="42.69823" lon="1.42407">
        <ele>1611</ele>
        <time>2017-10-11T05:48:16Z</time>
      </trkpt>
      <trkpt lat="42.69814" lon="1.42405">
        <ele>1614.900024</ele>
        <time>2017-10-11T05:48:33Z</time>
      </trkpt>
      <trkpt lat="42.69805" lon="1.42407">
        <ele>1618.599976</ele>
        <time>2017-10-11T05:48:46Z</time>
      </trkpt>
      <trkpt lat="42.69796" lon="1.42406">
        <ele>1622.5</ele>
        <time>2017-10-11T05:49:01Z</time>
      </trkpt>
      <trkpt lat="42.69787" lon="1.42406">
        <ele>1625.699951</ele>
        <time>2017-10-11T05:49:16Z</time>
      </trkpt>
      <trkpt lat="42.69778" lon="1.42405">
        <ele>1629.199951</ele>
        <time>2017-10-11T05:49:27Z</time>
      </trkpt>
      <trkpt lat="42.69769" lon="1.42409">
        <ele>1634.099976</ele>
        <time>2017-10-11T05:49:49Z</time>
      </trkpt>
      <trkpt lat="42.69759" lon="1.42411">
        <ele>1637.699951</ele>
        <time>2017-10-11T05:50:00Z</time>
      </trkpt>
      <trkpt lat="42.6975" lon="1.42413">
        <ele>1642.5</ele>
        <time>2017-10-11T05:50:22Z</time>
      </trkpt>
      <trkpt lat="42.69741" lon="1.42409">
        <ele>1646</ele>
        <time>2017-10-11T05:50:39Z</time>
      </trkpt>
      <trkpt lat="42.69732" lon="1.42413">
        <ele>1650.699951</ele>
        <time>2017-10-11T05:50:54Z</time>
      </trkpt>
      <trkpt lat="42.69724" lon="1.42409">
        <ele>1655.599976</ele>
        <time>2017-10-11T05:51:09Z</time>
      </trkpt>
      <trkpt lat="42.69717" lon="1.42399">
        <ele>1657.599976</ele>
        <time>2017-10-11T05:51:19Z</time>
      </trkpt>
      <trkpt lat="42.69709" lon="1.42393">
        <ele>1661.300049</ele>
        <time>2017-10-11T05:51:36Z</time>
      </trkpt>
      <trkpt lat="42.697" lon="1.42393">
        <ele>1666.099976</ele>
        <time>2017-10-11T05:51:57Z</time>
      </trkpt>
      <trkpt lat="42.69692" lon="1.42386">
        <ele>1670.5</ele>
        <time>2017-10-11T05:52:15Z</time>
      </trkpt>
      <trkpt lat="42.69686" lon="1.42375">
        <ele>1673</ele>
        <time>2017-10-11T05:52:27Z</time>
      </trkpt>
      <trkpt lat="42.69684" lon="1.42362">
        <ele>1674.400024</ele>
        <time>2017-10-11T05:52:36Z</time>
      </trkpt>
      <trkpt lat="42.69683" lon="1.42347">
        <ele>1674</ele>
        <time>2017-10-11T05:52:53Z</time>
      </trkpt>
      <trkpt lat="42.69681" lon="1.42334">
        <ele>1674.900024</ele>
        <time>2017-10-11T05:53:07Z</time>
      </trkpt>
      <trkpt lat="42.69685" lon="1.42323">
        <ele>1673.400024</ele>
        <time>2017-10-11T05:53:16Z</time>
      </trkpt>
      <trkpt lat="42.6969" lon="1.42312">
        <ele>1670.199951</ele>
        <time>2017-10-11T05:53:26Z</time>
      </trkpt>
      <trkpt lat="42.69695" lon="1.42302">
        <ele>1667.300049</ele>
        <time>2017-10-11T05:53:36Z</time>
      </trkpt>
      <trkpt lat="42.69702" lon="1.42293">
        <ele>1664.099976</ele>
        <time>2017-10-11T05:53:47Z</time>
      </trkpt>
      <trkpt lat="42.69706" lon="1.42281">
        <ele>1662.300049</ele>
        <time>2017-10-11T05:54:00Z</time>
      </trkpt>
      <trkpt lat="42.69697" lon="1.42274">
        <ele>1666.300049</ele>
        <time>2017-10-11T05:54:24Z</time>
      </trkpt>
      <trkpt lat="42.69688" lon="1.42273">
        <ele>1670.5</ele>
        <time>2017-10-11T05:54:41Z</time>
      </trkpt>
      <trkpt lat="42.69679" lon="1.42269">
        <ele>1674.800049</ele>
        <time>2017-10-11T05:54:55Z</time>
      </trkpt>
      <trkpt lat="42.69677" lon="1.42257">
        <ele>1676.699951</ele>
        <time>2017-10-11T05:55:07Z</time>
      </trkpt>
      <trkpt lat="42.69686" lon="1.42256">
        <ele>1673.099976</ele>
        <time>2017-10-11T05:55:24Z</time>
      </trkpt>
      <trkpt lat="42.69695" lon="1.42267">
        <ele>1669.300049</ele>
        <time>2017-10-11T05:56:52Z</time>
      </trkpt>
      <trkpt lat="42.69686" lon="1.42269">
        <ele>1671</ele>
        <time>2017-10-11T06:03:54Z</time>
      </trkpt>
      <trkpt lat="42.69676" lon="1.4227">
        <ele>1675.5</ele>
        <time>2017-10-11T06:04:02Z</time>
      </trkpt>
      <trkpt lat="42.69668" lon="1.42275">
        <ele>1680.800049</ele>
        <time>2017-10-11T06:04:22Z</time>
      </trkpt>
      <trkpt lat="42.69659" lon="1.42277">
        <ele>1684.800049</ele>
        <time>2017-10-11T06:04:35Z</time>
      </trkpt>
      <trkpt lat="42.6965" lon="1.42278">
        <ele>1689.300049</ele>
        <time>2017-10-11T06:04:47Z</time>
      </trkpt>
      <trkpt lat="42.6964" lon="1.42278">
        <ele>1693.900024</ele>
        <time>2017-10-11T06:05:00Z</time>
      </trkpt>
      <trkpt lat="42.69633" lon="1.42271">
        <ele>1697.800049</ele>
        <time>2017-10-11T06:05:11Z</time>
      </trkpt>
      <trkpt lat="42.69624" lon="1.42271">
        <ele>1702.400024</ele>
        <time>2017-10-11T06:05:26Z</time>
      </trkpt>
      <trkpt lat="42.69617" lon="1.42279">
        <ele>1706</ele>
        <time>2017-10-11T06:05:50Z</time>
      </trkpt>
      <trkpt lat="42.69609" lon="1.42287">
        <ele>1709</ele>
        <time>2017-10-11T06:06:10Z</time>
      </trkpt>
      <trkpt lat="42.69601" lon="1.42292">
        <ele>1712.099976</ele>
        <time>2017-10-11T06:06:25Z</time>
      </trkpt>
      <trkpt lat="42.69592" lon="1.42298">
        <ele>1715.900024</ele>
        <time>2017-10-11T06:06:42Z</time>
      </trkpt>
      <trkpt lat="42.69585" lon="1.42306">
        <ele>1718.400024</ele>
        <time>2017-10-11T06:06:59Z</time>
      </trkpt>
      <trkpt lat="42.69577" lon="1.42314">
        <ele>1720.699951</ele>
        <time>2017-10-11T06:07:12Z</time>
      </trkpt>
      <trkpt lat="42.69568" lon="1.42318">
        <ele>1723.400024</ele>
        <time>2017-10-11T06:07:26Z</time>
      </trkpt>
      <trkpt lat="42.69559" lon="1.42316">
        <ele>1726.5</ele>
        <time>2017-10-11T06:07:38Z</time>
      </trkpt>
      <trkpt lat="42.6955" lon="1.42315">
        <ele>1730.099976</ele>
        <time>2017-10-11T06:07:54Z</time>
      </trkpt>
      <trkpt lat="42.69541" lon="1.42315">
        <ele>1733.099976</ele>
        <time>2017-10-11T06:08:05Z</time>
      </trkpt>
      <trkpt lat="42.69532" lon="1.42319">
        <ele>1736.400024</ele>
        <time>2017-10-11T06:08:17Z</time>
      </trkpt>
      <trkpt lat="42.69523" lon="1.42316">
        <ele>1739.5</ele>
        <time>2017-10-11T06:08:27Z</time>
      </trkpt>
      <trkpt lat="42.69514" lon="1.42315">
        <ele>1742.699951</ele>
        <time>2017-10-11T06:08:37Z</time>
      </trkpt>
      <trkpt lat="42.69504" lon="1.42316">
        <ele>1746.300049</ele>
        <time>2017-10-11T06:08:54Z</time>
      </trkpt>
      <trkpt lat="42.69495" lon="1.42319">
        <ele>1749.599976</ele>
        <time>2017-10-11T06:09:09Z</time>
      </trkpt>
      <trkpt lat="42.69487" lon="1.42327">
        <ele>1752.300049</ele>
        <time>2017-10-11T06:09:22Z</time>
      </trkpt>
      <trkpt lat="42.69481" lon="1.42337">
        <ele>1755.599976</ele>
        <time>2017-10-11T06:09:36Z</time>
      </trkpt>
      <trkpt lat="42.69473" lon="1.42346">
        <ele>1760.800049</ele>
        <time>2017-10-11T06:09:45Z</time>
      </trkpt>
      <trkpt lat="42.69464" lon="1.42345">
        <ele>1764.300049</ele>
        <time>2017-10-11T06:09:54Z</time>
      </trkpt>
      <trkpt lat="42.69455" lon="1.42349">
        <ele>1768.099976</ele>
        <time>2017-10-11T06:10:11Z</time>
      </trkpt>
      <trkpt lat="42.69444" lon="1.42348">
        <ele>1771</ele>
        <time>2017-10-11T06:10:28Z</time>
      </trkpt>
      <trkpt lat="42.69435" lon="1.42347">
        <ele>1772</ele>
        <time>2017-10-11T06:10:44Z</time>
      </trkpt>
      <trkpt lat="42.69423" lon="1.4235">
        <ele>1776</ele>
        <time>2017-10-11T06:10:56Z</time>
      </trkpt>
      <trkpt lat="42.69414" lon="1.42352">
        <ele>1780</ele>
        <time>2017-10-11T06:11:08Z</time>
      </trkpt>
      <trkpt lat="42.69403" lon="1.42355">
        <ele>1783</ele>
        <time>2017-10-11T06:11:20Z</time>
      </trkpt>
      <trkpt lat="42.69393" lon="1.42358">
        <ele>1787</ele>
        <time>2017-10-11T06:11:36Z</time>
      </trkpt>
      <trkpt lat="42.69382" lon="1.42357">
        <ele>1791</ele>
        <time>2017-10-11T06:11:52Z</time>
      </trkpt>
      <trkpt lat="42.69373" lon="1.4235">
        <ele>1791</ele>
        <time>2017-10-11T06:12:04Z</time>
      </trkpt>
      <trkpt lat="42.69362" lon="1.4235">
        <ele>1793</ele>
        <time>2017-10-11T06:12:20Z</time>
      </trkpt>
      <trkpt lat="42.69352" lon="1.42351">
        <ele>1796</ele>
        <time>2017-10-11T06:12:36Z</time>
      </trkpt>
      <trkpt lat="42.69342" lon="1.42356">
        <ele>1800</ele>
        <time>2017-10-11T06:12:52Z</time>
      </trkpt>
      <trkpt lat="42.69332" lon="1.42355">
        <ele>1803</ele>
        <time>2017-10-11T06:13:00Z</time>
      </trkpt>
      <trkpt lat="42.69324" lon="1.42348">
        <ele>1802</ele>
        <time>2017-10-11T06:13:12Z</time>
      </trkpt>
      <trkpt lat="42.69312" lon="1.42348">
        <ele>1801</ele>
        <time>2017-10-11T06:13:32Z</time>
      </trkpt>
      <trkpt lat="42.69303" lon="1.42343">
        <ele>1801</ele>
        <time>2017-10-11T06:13:44Z</time>
      </trkpt>
      <trkpt lat="42.69293" lon="1.42346">
        <ele>1802</ele>
        <time>2017-10-11T06:13:56Z</time>
      </trkpt>
      <trkpt lat="42.69285" lon="1.42352">
        <ele>1806</ele>
        <time>2017-10-11T06:14:08Z</time>
      </trkpt>
      <trkpt lat="42.69275" lon="1.42345">
        <ele>1804</ele>
        <time>2017-10-11T06:14:24Z</time>
      </trkpt>
      <trkpt lat="42.69264" lon="1.4234">
        <ele>1802</ele>
        <time>2017-10-11T06:14:40Z</time>
      </trkpt>
      <trkpt lat="42.69254" lon="1.42338">
        <ele>1801</ele>
        <time>2017-10-11T06:14:56Z</time>
      </trkpt>
      <trkpt lat="42.69245" lon="1.42335">
        <ele>1802</ele>
        <time>2017-10-11T06:15:08Z</time>
      </trkpt>
      <trkpt lat="42.69234" lon="1.42332">
        <ele>1805</ele>
        <time>2017-10-11T06:15:24Z</time>
      </trkpt>
      <trkpt lat="42.69222" lon="1.42336">
        <ele>1811</ele>
        <time>2017-10-11T06:15:40Z</time>
      </trkpt>
      <trkpt lat="42.69212" lon="1.42337">
        <ele>1816</ele>
        <time>2017-10-11T06:15:56Z</time>
      </trkpt>
      <trkpt lat="42.69204" lon="1.42332">
        <ele>1819</ele>
        <time>2017-10-11T06:16:08Z</time>
      </trkpt>
      <trkpt lat="42.69195" lon="1.42326">
        <ele>1822</ele>
        <time>2017-10-11T06:16:20Z</time>
      </trkpt>
      <trkpt lat="42.69185" lon="1.42322">
        <ele>1826</ele>
        <time>2017-10-11T06:16:36Z</time>
      </trkpt>
      <trkpt lat="42.69176" lon="1.42328">
        <ele>1830</ele>
        <time>2017-10-11T06:16:56Z</time>
      </trkpt>
      <trkpt lat="42.69169" lon="1.42336">
        <ele>1834</ele>
        <time>2017-10-11T06:17:16Z</time>
      </trkpt>
      <trkpt lat="42.6916" lon="1.42346">
        <ele>1837</ele>
        <time>2017-10-11T06:17:36Z</time>
      </trkpt>
      <trkpt lat="42.69146" lon="1.42353">
        <ele>1838</ele>
        <time>2017-10-11T06:17:48Z</time>
      </trkpt>
      <trkpt lat="42.69135" lon="1.42356">
        <ele>1839</ele>
        <time>2017-10-11T06:18:04Z</time>
      </trkpt>
      <trkpt lat="42.69122" lon="1.42358">
        <ele>1840</ele>
        <time>2017-10-11T06:18:20Z</time>
      </trkpt>
      <trkpt lat="42.69113" lon="1.42357">
        <ele>1840.199951</ele>
        <time>2017-10-11T06:18:31Z</time>
      </trkpt>
      <trkpt lat="42.69104" lon="1.42352">
        <ele>1839.099976</ele>
        <time>2017-10-11T06:18:39Z</time>
      </trkpt>
      <trkpt lat="42.69097" lon="1.42345">
        <ele>1837.099976</ele>
        <time>2017-10-11T06:18:48Z</time>
      </trkpt>
      <trkpt lat="42.69089" lon="1.42338">
        <ele>1834.599976</ele>
        <time>2017-10-11T06:18:56Z</time>
      </trkpt>
      <trkpt lat="42.6908" lon="1.42336">
        <ele>1833.400024</ele>
        <time>2017-10-11T06:19:05Z</time>
      </trkpt>
      <trkpt lat="42.69071" lon="1.42332">
        <ele>1835.099976</ele>
        <time>2017-10-11T06:19:13Z</time>
      </trkpt>
      <trkpt lat="42.6906" lon="1.42325">
        <ele>1838</ele>
        <time>2017-10-11T06:19:29Z</time>
      </trkpt>
      <trkpt lat="42.69053" lon="1.42316">
        <ele>1841.800049</ele>
        <time>2017-10-11T06:19:38Z</time>
      </trkpt>
      <trkpt lat="42.69044" lon="1.42312">
        <ele>1844</ele>
        <time>2017-10-11T06:19:53Z</time>
      </trkpt>
      <trkpt lat="42.69039" lon="1.42299">
        <ele>1847</ele>
        <time>2017-10-11T06:20:09Z</time>
      </trkpt>
      <trkpt lat="42.69029" lon="1.42291">
        <ele>1849</ele>
        <time>2017-10-11T06:20:21Z</time>
      </trkpt>
      <trkpt lat="42.6902" lon="1.42291">
        <ele>1852.400024</ele>
        <time>2017-10-11T06:20:35Z</time>
      </trkpt>
      <trkpt lat="42.69011" lon="1.42288">
        <ele>1854.800049</ele>
        <time>2017-10-11T06:20:47Z</time>
      </trkpt>
      <trkpt lat="42.69001" lon="1.42288">
        <ele>1857.400024</ele>
        <time>2017-10-11T06:21:01Z</time>
      </trkpt>
      <trkpt lat="42.68992" lon="1.42289">
        <ele>1859.800049</ele>
        <time>2017-10-11T06:21:30Z</time>
      </trkpt>
      <trkpt lat="42.68982" lon="1.42292">
        <ele>1862.300049</ele>
        <time>2017-10-11T06:21:39Z</time>
      </trkpt>
      <trkpt lat="42.68973" lon="1.42294">
        <ele>1865.099976</ele>
        <time>2017-10-11T06:21:47Z</time>
      </trkpt>
      <trkpt lat="42.68973" lon="1.42281">
        <ele>1865.699951</ele>
        <time>2017-10-11T06:21:56Z</time>
      </trkpt>
      <trkpt lat="42.68967" lon="1.42272">
        <ele>1866.699951</ele>
        <time>2017-10-11T06:22:13Z</time>
      </trkpt>
      <trkpt lat="42.68958" lon="1.42267">
        <ele>1868.300049</ele>
        <time>2017-10-11T06:22:22Z</time>
      </trkpt>
      <trkpt lat="42.68951" lon="1.42258">
        <ele>1869.900024</ele>
        <time>2017-10-11T06:22:32Z</time>
      </trkpt>
      <trkpt lat="42.68942" lon="1.42264">
        <ele>1872.199951</ele>
        <time>2017-10-11T06:22:47Z</time>
      </trkpt>
      <trkpt lat="42.68932" lon="1.42265">
        <ele>1874.599976</ele>
        <time>2017-10-11T06:22:56Z</time>
      </trkpt>
      <trkpt lat="42.68924" lon="1.42269">
        <ele>1877.400024</ele>
        <time>2017-10-11T06:23:05Z</time>
      </trkpt>
      <trkpt lat="42.68914" lon="1.42268">
        <ele>1880</ele>
        <time>2017-10-11T06:23:15Z</time>
      </trkpt>
      <trkpt lat="42.68904" lon="1.42269">
        <ele>1881.599976</ele>
        <time>2017-10-11T06:23:25Z</time>
      </trkpt>
      <trkpt lat="42.68895" lon="1.42266">
        <ele>1882.800049</ele>
        <time>2017-10-11T06:23:38Z</time>
      </trkpt>
      <trkpt lat="42.68892" lon="1.42253">
        <ele>1882.5</ele>
        <time>2017-10-11T06:23:46Z</time>
      </trkpt>
      <trkpt lat="42.68888" lon="1.42242">
        <ele>1882</ele>
        <time>2017-10-11T06:23:52Z</time>
      </trkpt>
      <trkpt lat="42.68876" lon="1.42236">
        <ele>1885</ele>
        <time>2017-10-11T06:24:06Z</time>
      </trkpt>
      <trkpt lat="42.68867" lon="1.42231">
        <ele>1888.900024</ele>
        <time>2017-10-11T06:24:17Z</time>
      </trkpt>
      <trkpt lat="42.68859" lon="1.42236">
        <ele>1888</ele>
        <time>2017-10-11T06:24:30Z</time>
      </trkpt>
      <trkpt lat="42.68852" lon="1.42229">
        <ele>1891.400024</ele>
        <time>2017-10-11T06:24:54Z</time>
      </trkpt>
      <trkpt lat="42.68841" lon="1.4223">
        <ele>1893</ele>
        <time>2017-10-11T06:25:09Z</time>
      </trkpt>
      <trkpt lat="42.68832" lon="1.42233">
        <ele>1893</ele>
        <time>2017-10-11T06:25:25Z</time>
      </trkpt>
      <trkpt lat="42.68822" lon="1.42229">
        <ele>1896</ele>
        <time>2017-10-11T06:25:44Z</time>
      </trkpt>
      <trkpt lat="42.68813" lon="1.42226">
        <ele>1899.900024</ele>
        <time>2017-10-11T06:26:02Z</time>
      </trkpt>
      <trkpt lat="42.68805" lon="1.4222">
        <ele>1902.699951</ele>
        <time>2017-10-11T06:26:15Z</time>
      </trkpt>
      <trkpt lat="42.68799" lon="1.42211">
        <ele>1905.300049</ele>
        <time>2017-10-11T06:26:34Z</time>
      </trkpt>
      <trkpt lat="42.6879" lon="1.4221">
        <ele>1906.800049</ele>
        <time>2017-10-11T06:26:55Z</time>
      </trkpt>
      <trkpt lat="42.68781" lon="1.42207">
        <ele>1908</ele>
        <time>2017-10-11T06:27:09Z</time>
      </trkpt>
      <trkpt lat="42.68772" lon="1.42209">
        <ele>1909.400024</ele>
        <time>2017-10-11T06:27:22Z</time>
      </trkpt>
      <trkpt lat="42.68764" lon="1.42215">
        <ele>1911.199951</ele>
        <time>2017-10-11T06:27:41Z</time>
      </trkpt>
      <trkpt lat="42.68755" lon="1.42218">
        <ele>1913.099976</ele>
        <time>2017-10-11T06:27:49Z</time>
      </trkpt>
      <trkpt lat="42.68746" lon="1.42214">
        <ele>1914.800049</ele>
        <time>2017-10-11T06:28:00Z</time>
      </trkpt>
      <trkpt lat="42.68737" lon="1.42217">
        <ele>1918</ele>
        <time>2017-10-11T06:28:12Z</time>
      </trkpt>
      <trkpt lat="42.68729" lon="1.42211">
        <ele>1920.099976</ele>
        <time>2017-10-11T06:28:22Z</time>
      </trkpt>
      <trkpt lat="42.6872" lon="1.42211">
        <ele>1922.699951</ele>
        <time>2017-10-11T06:28:36Z</time>
      </trkpt>
      <trkpt lat="42.68711" lon="1.42206">
        <ele>1924.800049</ele>
        <time>2017-10-11T06:28:49Z</time>
      </trkpt>
      <trkpt lat="42.68702" lon="1.42203">
        <ele>1927.300049</ele>
        <time>2017-10-11T06:29:01Z</time>
      </trkpt>
      <trkpt lat="42.68692" lon="1.42204">
        <ele>1930.900024</ele>
        <time>2017-10-11T06:29:16Z</time>
      </trkpt>
      <trkpt lat="42.68684" lon="1.42198">
        <ele>1933.199951</ele>
        <time>2017-10-11T06:29:27Z</time>
      </trkpt>
      <trkpt lat="42.68675" lon="1.42196">
        <ele>1936</ele>
        <time>2017-10-11T06:29:45Z</time>
      </trkpt>
      <trkpt lat="42.68665" lon="1.42196">
        <ele>1938.699951</ele>
        <time>2017-10-11T06:29:53Z</time>
      </trkpt>
      <trkpt lat="42.68656" lon="1.42199">
        <ele>1940.699951</ele>
        <time>2017-10-11T06:30:02Z</time>
      </trkpt>
      <trkpt lat="42.68646" lon="1.42199">
        <ele>1941.900024</ele>
        <time>2017-10-11T06:30:12Z</time>
      </trkpt>
      <trkpt lat="42.68637" lon="1.42197">
        <ele>1942.900024</ele>
        <time>2017-10-11T06:30:23Z</time>
      </trkpt>
      <trkpt lat="42.68627" lon="1.422">
        <ele>1944.099976</ele>
        <time>2017-10-11T06:30:33Z</time>
      </trkpt>
      <trkpt lat="42.68618" lon="1.42202">
        <ele>1945.300049</ele>
        <time>2017-10-11T06:30:41Z</time>
      </trkpt>
      <trkpt lat="42.68609" lon="1.42207">
        <ele>1946</ele>
        <time>2017-10-11T06:30:51Z</time>
      </trkpt>
      <trkpt lat="42.686" lon="1.42216">
        <ele>1949</ele>
        <time>2017-10-11T06:31:03Z</time>
      </trkpt>
      <trkpt lat="42.68588" lon="1.42215">
        <ele>1951</ele>
        <time>2017-10-11T06:31:23Z</time>
      </trkpt>
      <trkpt lat="42.68578" lon="1.42213">
        <ele>1952</ele>
        <time>2017-10-11T06:31:31Z</time>
      </trkpt>
      <trkpt lat="42.68568" lon="1.42212">
        <ele>1953</ele>
        <time>2017-10-11T06:31:39Z</time>
      </trkpt>
      <trkpt lat="42.68559" lon="1.4221">
        <ele>1953</ele>
        <time>2017-10-11T06:31:47Z</time>
      </trkpt>
      <trkpt lat="42.68549" lon="1.42209">
        <ele>1954</ele>
        <time>2017-10-11T06:31:59Z</time>
      </trkpt>
      <trkpt lat="42.68535" lon="1.42203">
        <ele>1954</ele>
        <time>2017-10-11T06:32:11Z</time>
      </trkpt>
      <trkpt lat="42.6853" lon="1.42193">
        <ele>1953</ele>
        <time>2017-10-11T06:32:57Z</time>
      </trkpt>
      <trkpt lat="42.68516" lon="1.42191">
        <ele>1953</ele>
        <time>2017-10-11T06:33:05Z</time>
      </trkpt>
      <trkpt lat="42.68507" lon="1.42194">
        <ele>1954</ele>
        <time>2017-10-11T06:33:09Z</time>
      </trkpt>
      <trkpt lat="42.68494" lon="1.42194">
        <ele>1956</ele>
        <time>2017-10-11T06:33:17Z</time>
      </trkpt>
      <trkpt lat="42.68483" lon="1.42197">
        <ele>1957</ele>
        <time>2017-10-11T06:33:25Z</time>
      </trkpt>
      <trkpt lat="42.68471" lon="1.42195">
        <ele>1959</ele>
        <time>2017-10-11T06:33:33Z</time>
      </trkpt>
      <trkpt lat="42.68461" lon="1.42193">
        <ele>1960</ele>
        <time>2017-10-11T06:33:41Z</time>
      </trkpt>
      <trkpt lat="42.68459" lon="1.4218">
        <ele>1959</ele>
        <time>2017-10-11T06:34:01Z</time>
      </trkpt>
      <trkpt lat="42.68452" lon="1.42171">
        <ele>1959</ele>
        <time>2017-10-11T06:35:09Z</time>
      </trkpt>
      <trkpt lat="42.68443" lon="1.42176">
        <ele>1960</ele>
        <time>2017-10-11T06:35:18Z</time>
      </trkpt>
      <trkpt lat="42.68446" lon="1.42161">
        <ele>1960</ele>
        <time>2017-10-11T06:37:34Z</time>
      </trkpt>
      <trkpt lat="42.68451" lon="1.4215">
        <ele>1963</ele>
        <time>2017-10-11T06:37:54Z</time>
      </trkpt>
      <trkpt lat="42.68455" lon="1.42135">
        <ele>1965</ele>
        <time>2017-10-11T06:38:22Z</time>
      </trkpt>
      <trkpt lat="42.6845" lon="1.42123">
        <ele>1968</ele>
        <time>2017-10-11T06:38:34Z</time>
      </trkpt>
      <trkpt lat="42.68444" lon="1.42114">
        <ele>1972</ele>
        <time>2017-10-11T06:38:50Z</time>
      </trkpt>
      <trkpt lat="42.68439" lon="1.42101">
        <ele>1975</ele>
        <time>2017-10-11T06:39:15Z</time>
      </trkpt>
      <trkpt lat="42.6843" lon="1.42094">
        <ele>1977</ele>
        <time>2017-10-11T06:39:24Z</time>
      </trkpt>
      <trkpt lat="42.6842" lon="1.42089">
        <ele>1979</ele>
        <time>2017-10-11T06:39:32Z</time>
      </trkpt>
      <trkpt lat="42.68415" lon="1.42076">
        <ele>1984</ele>
        <time>2017-10-11T06:40:20Z</time>
      </trkpt>
      <trkpt lat="42.68419" lon="1.42061">
        <ele>1990</ele>
        <time>2017-10-11T06:40:48Z</time>
      </trkpt>
      <trkpt lat="42.68416" lon="1.42049">
        <ele>1996</ele>
        <time>2017-10-11T06:41:08Z</time>
      </trkpt>
      <trkpt lat="42.68411" lon="1.42037">
        <ele>2001</ele>
        <time>2017-10-11T06:41:24Z</time>
      </trkpt>
      <trkpt lat="42.684" lon="1.42024">
        <ele>2008</ele>
        <time>2017-10-11T06:41:44Z</time>
      </trkpt>
      <trkpt lat="42.68409" lon="1.42018">
        <ele>2011.400024</ele>
        <time>2017-10-11T06:42:27Z</time>
      </trkpt>
      <trkpt lat="42.68405" lon="1.42006">
        <ele>2015.800049</ele>
        <time>2017-10-11T06:42:51Z</time>
      </trkpt>
      <trkpt lat="42.68395" lon="1.42005">
        <ele>2017.699951</ele>
        <time>2017-10-11T06:43:03Z</time>
      </trkpt>
      <trkpt lat="42.68388" lon="1.41997">
        <ele>2021.400024</ele>
        <time>2017-10-11T06:43:14Z</time>
      </trkpt>
      <trkpt lat="42.68381" lon="1.4199">
        <ele>2025.900024</ele>
        <time>2017-10-11T06:43:25Z</time>
      </trkpt>
      <trkpt lat="42.68373" lon="1.41981">
        <ele>2030.400024</ele>
        <time>2017-10-11T06:43:32Z</time>
      </trkpt>
      <trkpt lat="42.68364" lon="1.41977">
        <ele>2034.5</ele>
        <time>2017-10-11T06:43:42Z</time>
      </trkpt>
      <trkpt lat="42.68357" lon="1.41969">
        <ele>2039.599976</ele>
        <time>2017-10-11T06:44:52Z</time>
      </trkpt>
      <trkpt lat="42.68349" lon="1.41962">
        <ele>2042.800049</ele>
        <time>2017-10-11T06:45:02Z</time>
      </trkpt>
      <trkpt lat="42.68342" lon="1.41953">
        <ele>2047.599976</ele>
        <time>2017-10-11T06:45:14Z</time>
      </trkpt>
      <trkpt lat="42.68335" lon="1.41944">
        <ele>2052.100098</ele>
        <time>2017-10-11T06:45:25Z</time>
      </trkpt>
      <trkpt lat="42.68327" lon="1.41938">
        <ele>2056.800049</ele>
        <time>2017-10-11T06:45:42Z</time>
      </trkpt>
      <trkpt lat="42.6832" lon="1.41946">
        <ele>2052.600098</ele>
        <time>2017-10-11T06:46:21Z</time>
      </trkpt>
      <trkpt lat="42.68315" lon="1.41934">
        <ele>2056.699951</ele>
        <time>2017-10-11T06:46:54Z</time>
      </trkpt>
      <trkpt lat="42.68319" lon="1.41922">
        <ele>2063</ele>
        <time>2017-10-11T06:47:12Z</time>
      </trkpt>
      <trkpt lat="42.68327" lon="1.41917">
        <ele>2066.399902</ele>
        <time>2017-10-11T06:47:25Z</time>
      </trkpt>
      <trkpt lat="42.6833" lon="1.41905">
        <ele>2072.800049</ele>
        <time>2017-10-11T06:47:36Z</time>
      </trkpt>
      <trkpt lat="42.68323" lon="1.41896">
        <ele>2081.699951</ele>
        <time>2017-10-11T06:48:04Z</time>
      </trkpt>
      <trkpt lat="42.68315" lon="1.41891">
        <ele>2088.800049</ele>
        <time>2017-10-11T06:48:15Z</time>
      </trkpt>
      <trkpt lat="42.68317" lon="1.41879">
        <ele>2098.300049</ele>
        <time>2017-10-11T06:48:44Z</time>
      </trkpt>
      <trkpt lat="42.68306" lon="1.41858">
        <ele>2122.399902</ele>
        <time>2017-10-11T06:51:36Z</time>
      </trkpt>
      <trkpt lat="42.6831" lon="1.4187">
        <ele>2110</ele>
        <time>2017-10-11T06:53:20Z</time>
      </trkpt>
      <trkpt lat="42.68299" lon="1.41872">
        <ele>2103.699951</ele>
        <time>2017-10-11T06:53:46Z</time>
      </trkpt>
      <trkpt lat="42.68289" lon="1.41869">
        <ele>2105.600098</ele>
        <time>2017-10-11T06:54:29Z</time>
      </trkpt>
      <trkpt lat="42.68278" lon="1.41866">
        <ele>2105</ele>
        <time>2017-10-11T06:55:26Z</time>
      </trkpt>
      <trkpt lat="42.6827" lon="1.41858">
        <ele>2110.699951</ele>
        <time>2017-10-11T06:55:48Z</time>
      </trkpt>
      <trkpt lat="42.6826" lon="1.41858">
        <ele>2111.899902</ele>
        <time>2017-10-11T06:56:13Z</time>
      </trkpt>
      <trkpt lat="42.68253" lon="1.4185">
        <ele>2115.5</ele>
        <time>2017-10-11T06:56:26Z</time>
      </trkpt>
      <trkpt lat="42.68244" lon="1.41846">
        <ele>2120.5</ele>
        <time>2017-10-11T06:56:35Z</time>
      </trkpt>
      <trkpt lat="42.68262" lon="1.41849">
        <ele>2119.399902</ele>
        <time>2017-10-11T06:57:07Z</time>
      </trkpt>
      <trkpt lat="42.68253" lon="1.41852">
        <ele>2116.100098</ele>
        <time>2017-10-11T06:57:23Z</time>
      </trkpt>
      <trkpt lat="42.68244" lon="1.41852">
        <ele>2116.600098</ele>
        <time>2017-10-11T06:57:35Z</time>
      </trkpt>
      <trkpt lat="42.68232" lon="1.41848">
        <ele>2122.300049</ele>
        <time>2017-10-11T06:58:07Z</time>
      </trkpt>
      <trkpt lat="42.68225" lon="1.41839">
        <ele>2131.199951</ele>
        <time>2017-10-11T06:58:21Z</time>
      </trkpt>
      <trkpt lat="42.68216" lon="1.41843">
        <ele>2133.399902</ele>
        <time>2017-10-11T06:58:50Z</time>
      </trkpt>
      <trkpt lat="42.68209" lon="1.41831">
        <ele>2142.399902</ele>
        <time>2017-10-11T06:59:53Z</time>
      </trkpt>
      <trkpt lat="42.682" lon="1.41828">
        <ele>2148.300049</ele>
        <time>2017-10-11T07:00:08Z</time>
      </trkpt>
      <trkpt lat="42.68204" lon="1.41839">
        <ele>2145.899902</ele>
        <time>2017-10-11T07:00:39Z</time>
      </trkpt>
      <trkpt lat="42.68194" lon="1.41837">
        <ele>2143.899902</ele>
        <time>2017-10-11T07:01:03Z</time>
      </trkpt>
      <trkpt lat="42.68182" lon="1.41838">
        <ele>2149.600098</ele>
        <time>2017-10-11T07:01:38Z</time>
      </trkpt>
      <trkpt lat="42.68173" lon="1.41842">
        <ele>2148.899902</ele>
        <time>2017-10-11T07:01:49Z</time>
      </trkpt>
      <trkpt lat="42.68166" lon="1.41835">
        <ele>2154.800049</ele>
        <time>2017-10-11T07:02:03Z</time>
      </trkpt>
      <trkpt lat="42.68165" lon="1.41823">
        <ele>2161.600098</ele>
        <time>2017-10-11T07:02:29Z</time>
      </trkpt>
      <trkpt lat="42.68156" lon="1.41817">
        <ele>2166.899902</ele>
        <time>2017-10-11T07:02:51Z</time>
      </trkpt>
      <trkpt lat="42.68147" lon="1.41821">
        <ele>2168.5</ele>
        <time>2017-10-11T07:03:21Z</time>
      </trkpt>
      <trkpt lat="42.68137" lon="1.4182">
        <ele>2170.899902</ele>
        <time>2017-10-11T07:03:42Z</time>
      </trkpt>
      <trkpt lat="42.68133" lon="1.41809">
        <ele>2177.399902</ele>
        <time>2017-10-11T07:04:03Z</time>
      </trkpt>
      <trkpt lat="42.68126" lon="1.41795">
        <ele>2186.199951</ele>
        <time>2017-10-11T07:04:29Z</time>
      </trkpt>
      <trkpt lat="42.68115" lon="1.41793">
        <ele>2193.300049</ele>
        <time>2017-10-11T07:05:56Z</time>
      </trkpt>
      <trkpt lat="42.6811" lon="1.41782">
        <ele>2200</ele>
        <time>2017-10-11T07:06:23Z</time>
      </trkpt>
      <trkpt lat="42.68103" lon="1.41773">
        <ele>2208.199951</ele>
        <time>2017-10-11T07:07:10Z</time>
      </trkpt>
      <trkpt lat="42.68097" lon="1.41763">
        <ele>2215.100098</ele>
        <time>2017-10-11T07:07:25Z</time>
      </trkpt>
      <trkpt lat="42.68088" lon="1.41758">
        <ele>2224.899902</ele>
        <time>2017-10-11T07:07:48Z</time>
      </trkpt>
      <trkpt lat="42.6808" lon="1.41754">
        <ele>2229.600098</ele>
        <time>2017-10-11T07:08:11Z</time>
      </trkpt>
      <trkpt lat="42.68071" lon="1.41751">
        <ele>2233.899902</ele>
        <time>2017-10-11T07:08:33Z</time>
      </trkpt>
      <trkpt lat="42.6806" lon="1.41754">
        <ele>2234.899902</ele>
        <time>2017-10-11T07:08:52Z</time>
      </trkpt>
      <trkpt lat="42.68051" lon="1.41757">
        <ele>2235.100098</ele>
        <time>2017-10-11T07:09:04Z</time>
      </trkpt>
      <trkpt lat="42.68041" lon="1.41756">
        <ele>2238.5</ele>
        <time>2017-10-11T07:09:19Z</time>
      </trkpt>
      <trkpt lat="42.68032" lon="1.41761">
        <ele>2238.199951</ele>
        <time>2017-10-11T07:09:34Z</time>
      </trkpt>
      <trkpt lat="42.68024" lon="1.41769">
        <ele>2235.5</ele>
        <time>2017-10-11T07:09:46Z</time>
      </trkpt>
      <trkpt lat="42.68015" lon="1.41772">
        <ele>2236.600098</ele>
        <time>2017-10-11T07:09:59Z</time>
      </trkpt>
      <trkpt lat="42.68006" lon="1.41774">
        <ele>2237.399902</ele>
        <time>2017-10-11T07:10:14Z</time>
      </trkpt>
      <trkpt lat="42.67998" lon="1.41779">
        <ele>2238</ele>
        <time>2017-10-11T07:10:41Z</time>
      </trkpt>
      <trkpt lat="42.67987" lon="1.41779">
        <ele>2239.899902</ele>
        <time>2017-10-11T07:11:07Z</time>
      </trkpt>
      <trkpt lat="42.67978" lon="1.41777">
        <ele>2244.199951</ele>
        <time>2017-10-11T07:11:18Z</time>
      </trkpt>
      <trkpt lat="42.67968" lon="1.41778">
        <ele>2246.800049</ele>
        <time>2017-10-11T07:11:36Z</time>
      </trkpt>
      <trkpt lat="42.67958" lon="1.41778">
        <ele>2250</ele>
        <time>2017-10-11T07:12:27Z</time>
      </trkpt>
      <trkpt lat="42.6795" lon="1.41771">
        <ele>2253.899902</ele>
        <time>2017-10-11T07:13:42Z</time>
      </trkpt>
      <trkpt lat="42.67942" lon="1.41763">
        <ele>2259.600098</ele>
        <time>2017-10-11T07:14:52Z</time>
      </trkpt>
      <trkpt lat="42.67949" lon="1.41754">
        <ele>2263.800049</ele>
        <time>2017-10-11T07:16:01Z</time>
      </trkpt>
      <trkpt lat="42.6794" lon="1.41757">
        <ele>2266.100098</ele>
        <time>2017-10-11T07:16:24Z</time>
      </trkpt>
      <trkpt lat="42.67932" lon="1.41763">
        <ele>2264.300049</ele>
        <time>2017-10-11T07:16:51Z</time>
      </trkpt>
      <trkpt lat="42.67929" lon="1.41775">
        <ele>2260.600098</ele>
        <time>2017-10-11T07:17:50Z</time>
      </trkpt>
      <trkpt lat="42.67924" lon="1.41765">
        <ele>2265.899902</ele>
        <time>2017-10-11T07:18:24Z</time>
      </trkpt>
      <trkpt lat="42.67918" lon="1.41755">
        <ele>2272.300049</ele>
        <time>2017-10-11T07:18:51Z</time>
      </trkpt>
      <trkpt lat="42.67908" lon="1.41757">
        <ele>2275.399902</ele>
        <time>2017-10-11T07:20:03Z</time>
      </trkpt>
      <trkpt lat="42.67898" lon="1.41742">
        <ele>2285</ele>
        <time>2017-10-11T07:21:14Z</time>
      </trkpt>
      <trkpt lat="42.67889" lon="1.41736">
        <ele>2296</ele>
        <time>2017-10-11T07:22:53Z</time>
      </trkpt>
      <trkpt lat="42.67883" lon="1.41726">
        <ele>2305.399902</ele>
        <time>2017-10-11T07:24:13Z</time>
      </trkpt>
      <trkpt lat="42.67885" lon="1.41714">
        <ele>2313.600098</ele>
        <time>2017-10-11T07:24:38Z</time>
      </trkpt>
      <trkpt lat="42.67877" lon="1.41708">
        <ele>2319.899902</ele>
        <time>2017-10-11T07:25:12Z</time>
      </trkpt>
      <trkpt lat="42.67875" lon="1.41696">
        <ele>2328.199951</ele>
        <time>2017-10-11T07:26:05Z</time>
      </trkpt>
      <trkpt lat="42.67865" lon="1.41691">
        <ele>2334.5</ele>
        <time>2017-10-11T07:26:38Z</time>
      </trkpt>
      <trkpt lat="42.67864" lon="1.41678">
        <ele>2344.600098</ele>
        <time>2017-10-11T07:27:03Z</time>
      </trkpt>
      <trkpt lat="42.6786" lon="1.41662">
        <ele>2354.199951</ele>
        <time>2017-10-11T07:28:27Z</time>
      </trkpt>
      <trkpt lat="42.67854" lon="1.41652">
        <ele>2366.399902</ele>
        <time>2017-10-11T07:28:57Z</time>
      </trkpt>
      <trkpt lat="42.6786" lon="1.41642">
        <ele>2371.5</ele>
        <time>2017-10-11T07:29:10Z</time>
      </trkpt>
      <trkpt lat="42.67854" lon="1.41599">
        <ele>2400.600098</ele>
        <time>2017-10-11T07:30:40Z</time>
      </trkpt>
      <trkpt lat="42.67857" lon="1.41589">
        <ele>2401</ele>
        <time>2017-10-11T07:44:09Z</time>
      </trkpt>
      <trkpt lat="42.67858" lon="1.41577">
        <ele>2416.600098</ele>
        <time>2017-10-11T07:44:28Z</time>
      </trkpt>
      <trkpt lat="42.67879" lon="1.41561">
        <ele>2425</ele>
        <time>2017-10-11T07:46:13Z</time>
      </trkpt>
      <trkpt lat="42.67891" lon="1.41559">
        <ele>2428.699951</ele>
        <time>2017-10-11T07:46:45Z</time>
      </trkpt>
      <trkpt lat="42.67911" lon="1.41546">
        <ele>2431</ele>
        <time>2017-10-11T07:48:22Z</time>
      </trkpt>
      <trkpt lat="42.67917" lon="1.41536">
        <ele>2440.399902</ele>
        <time>2017-10-11T07:48:46Z</time>
      </trkpt>
      <trkpt lat="42.67925" lon="1.41527">
        <ele>2445.100098</ele>
        <time>2017-10-11T07:49:10Z</time>
      </trkpt>
      <trkpt lat="42.67932" lon="1.4152">
        <ele>2449.199951</ele>
        <time>2017-10-11T07:49:23Z</time>
      </trkpt>
      <trkpt lat="42.67934" lon="1.41506">
        <ele>2459.300049</ele>
        <time>2017-10-11T07:49:46Z</time>
      </trkpt>
      <trkpt lat="42.67928" lon="1.41515">
        <ele>2457.600098</ele>
        <time>2017-10-11T07:50:07Z</time>
      </trkpt>
      <trkpt lat="42.67924" lon="1.41503">
        <ele>2463</ele>
        <time>2017-10-11T07:51:04Z</time>
      </trkpt>
      <trkpt lat="42.67911" lon="1.41494">
        <ele>2475</ele>
        <time>2017-10-11T07:52:48Z</time>
      </trkpt>
      <trkpt lat="42.67905" lon="1.41485">
        <ele>2483</ele>
        <time>2017-10-11T07:53:18Z</time>
      </trkpt>
      <trkpt lat="42.67892" lon="1.41474">
        <ele>2496.5</ele>
        <time>2017-10-11T07:53:54Z</time>
      </trkpt>
      <trkpt lat="42.6788" lon="1.41465">
        <ele>2504.800049</ele>
        <time>2017-10-11T07:54:26Z</time>
      </trkpt>
      <trkpt lat="42.67882" lon="1.41452">
        <ele>2514.699951</ele>
        <time>2017-10-11T07:56:13Z</time>
      </trkpt>
      <trkpt lat="42.67891" lon="1.41448">
        <ele>2522.199951</ele>
        <time>2017-10-11T07:56:26Z</time>
      </trkpt>
      <trkpt lat="42.6789" lon="1.41436">
        <ele>2531.399902</ele>
        <time>2017-10-11T07:56:54Z</time>
      </trkpt>
      <trkpt lat="42.67887" lon="1.41425">
        <ele>2541.600098</ele>
        <time>2017-10-11T07:57:18Z</time>
      </trkpt>
      <trkpt lat="42.67881" lon="1.41416">
        <ele>2549</ele>
        <time>2017-10-11T07:57:47Z</time>
      </trkpt>
      <trkpt lat="42.67872" lon="1.41407">
        <ele>2552.100098</ele>
        <time>2017-10-11T07:58:20Z</time>
      </trkpt>
      <trkpt lat="42.67864" lon="1.41398">
        <ele>2552.100098</ele>
        <time>2017-10-11T07:58:38Z</time>
      </trkpt>
      <trkpt lat="42.67855" lon="1.41402">
        <ele>2550.100098</ele>
        <time>2017-10-11T07:59:07Z</time>
      </trkpt>
      <trkpt lat="42.67846" lon="1.41396">
        <ele>2548.399902</ele>
        <time>2017-10-11T07:59:24Z</time>
      </trkpt>
      <trkpt lat="42.67841" lon="1.41386">
        <ele>2550.100098</ele>
        <time>2017-10-11T07:59:39Z</time>
      </trkpt>
      <trkpt lat="42.67834" lon="1.41378">
        <ele>2550.600098</ele>
        <time>2017-10-11T07:59:56Z</time>
      </trkpt>
      <trkpt lat="42.67824" lon="1.41375">
        <ele>2551.199951</ele>
        <time>2017-10-11T08:00:31Z</time>
      </trkpt>
      <trkpt lat="42.67815" lon="1.41369">
        <ele>2552.300049</ele>
        <time>2017-10-11T08:01:09Z</time>
      </trkpt>
      <trkpt lat="42.67802" lon="1.41359">
        <ele>2553</ele>
        <time>2017-10-11T08:02:52Z</time>
      </trkpt>
      <trkpt lat="42.67793" lon="1.41362">
        <ele>2552.100098</ele>
        <time>2017-10-11T08:03:12Z</time>
      </trkpt>
      <trkpt lat="42.67787" lon="1.41371">
        <ele>2550.699951</ele>
        <time>2017-10-11T08:03:35Z</time>
      </trkpt>
      <trkpt lat="42.67778" lon="1.41374">
        <ele>2550.199951</ele>
        <time>2017-10-11T08:03:53Z</time>
      </trkpt>
      <trkpt lat="42.67773" lon="1.41385">
        <ele>2549.600098</ele>
        <time>2017-10-11T08:04:08Z</time>
      </trkpt>
      <trkpt lat="42.67768" lon="1.41397">
        <ele>2549.399902</ele>
        <time>2017-10-11T08:04:17Z</time>
      </trkpt>
      <trkpt lat="42.67764" lon="1.41409">
        <ele>2549.600098</ele>
        <time>2017-10-11T08:04:30Z</time>
      </trkpt>
      <trkpt lat="42.67759" lon="1.4142">
        <ele>2549.600098</ele>
        <time>2017-10-11T08:04:38Z</time>
      </trkpt>
      <trkpt lat="42.67753" lon="1.41429">
        <ele>2547.600098</ele>
        <time>2017-10-11T08:04:50Z</time>
      </trkpt>
      <trkpt lat="42.67743" lon="1.41432">
        <ele>2548.100098</ele>
        <time>2017-10-11T08:05:00Z</time>
      </trkpt>
      <trkpt lat="42.67733" lon="1.41433">
        <ele>2549.399902</ele>
        <time>2017-10-11T08:05:08Z</time>
      </trkpt>
      <trkpt lat="42.67724" lon="1.41434">
        <ele>2551.199951</ele>
        <time>2017-10-11T08:05:15Z</time>
      </trkpt>
      <trkpt lat="42.67715" lon="1.41429">
        <ele>2554.399902</ele>
        <time>2017-10-11T08:05:27Z</time>
      </trkpt>
      <trkpt lat="42.67706" lon="1.41423">
        <ele>2558.199951</ele>
        <time>2017-10-11T08:05:36Z</time>
      </trkpt>
      <trkpt lat="42.67697" lon="1.41419">
        <ele>2561.399902</ele>
        <time>2017-10-11T08:05:51Z</time>
      </trkpt>
      <trkpt lat="42.6769" lon="1.41427">
        <ele>2561.899902</ele>
        <time>2017-10-11T08:06:08Z</time>
      </trkpt>
      <trkpt lat="42.6768" lon="1.41427">
        <ele>2562.899902</ele>
        <time>2017-10-11T08:06:17Z</time>
      </trkpt>
      <trkpt lat="42.67663" lon="1.41438">
        <ele>2564</ele>
        <time>2017-10-11T08:07:02Z</time>
      </trkpt>
      <trkpt lat="42.67673" lon="1.41443">
        <ele>2561.899902</ele>
        <time>2017-10-11T08:07:13Z</time>
      </trkpt>
      <trkpt lat="42.67663" lon="1.41438">
        <ele>2564</ele>
        <time>2017-10-11T08:07:42Z</time>
      </trkpt>
      <trkpt lat="42.67654" lon="1.41432">
        <ele>2567</ele>
        <time>2017-10-11T08:07:51Z</time>
      </trkpt>
      <trkpt lat="42.67647" lon="1.41425">
        <ele>2570.5</ele>
        <time>2017-10-11T08:08:01Z</time>
      </trkpt>
      <trkpt lat="42.67639" lon="1.41431">
        <ele>2572</ele>
        <time>2017-10-11T08:08:31Z</time>
      </trkpt>
      <trkpt lat="42.67632" lon="1.41441">
        <ele>2571.100098</ele>
        <time>2017-10-11T08:09:22Z</time>
      </trkpt>
      <trkpt lat="42.67623" lon="1.41444">
        <ele>2574.199951</ele>
        <time>2017-10-11T08:10:23Z</time>
      </trkpt>
      <trkpt lat="42.67614" lon="1.41441">
        <ele>2576.699951</ele>
        <time>2017-10-11T08:10:42Z</time>
      </trkpt>
      <trkpt lat="42.67609" lon="1.4143">
        <ele>2578.5</ele>
        <time>2017-10-11T08:10:52Z</time>
      </trkpt>
      <trkpt lat="42.67602" lon="1.41416">
        <ele>2580.100098</ele>
        <time>2017-10-11T08:11:36Z</time>
      </trkpt>
      <trkpt lat="42.67595" lon="1.41409">
        <ele>2581.300049</ele>
        <time>2017-10-11T08:11:47Z</time>
      </trkpt>
      <trkpt lat="42.67586" lon="1.41407">
        <ele>2582.800049</ele>
        <time>2017-10-11T08:12:08Z</time>
      </trkpt>
      <trkpt lat="42.67578" lon="1.414">
        <ele>2584.800049</ele>
        <time>2017-10-11T08:12:23Z</time>
      </trkpt>
      <trkpt lat="42.67572" lon="1.41409">
        <ele>2588.699951</ele>
        <time>2017-10-11T08:13:08Z</time>
      </trkpt>
      <trkpt lat="42.67563" lon="1.41413">
        <ele>2592.699951</ele>
        <time>2017-10-11T08:13:28Z</time>
      </trkpt>
      <trkpt lat="42.6755" lon="1.41412">
        <ele>2597.300049</ele>
        <time>2017-10-11T08:14:30Z</time>
      </trkpt>
      <trkpt lat="42.67543" lon="1.41403">
        <ele>2601.600098</ele>
        <time>2017-10-11T08:15:07Z</time>
      </trkpt>
      <trkpt lat="42.67536" lon="1.4141">
        <ele>2606.600098</ele>
        <time>2017-10-11T08:15:23Z</time>
      </trkpt>
      <trkpt lat="42.67527" lon="1.41414">
        <ele>2610</ele>
        <time>2017-10-11T08:15:48Z</time>
      </trkpt>
      <trkpt lat="42.6752" lon="1.41404">
        <ele>2613.300049</ele>
        <time>2017-10-11T08:15:58Z</time>
      </trkpt>
      <trkpt lat="42.6751" lon="1.41401">
        <ele>2617.899902</ele>
        <time>2017-10-11T08:16:09Z</time>
      </trkpt>
      <trkpt lat="42.67502" lon="1.41396">
        <ele>2622.199951</ele>
        <time>2017-10-11T08:16:20Z</time>
      </trkpt>
      <trkpt lat="42.67494" lon="1.41389">
        <ele>2625.600098</ele>
        <time>2017-10-11T08:17:09Z</time>
      </trkpt>
      <trkpt lat="42.67498" lon="1.41378">
        <ele>2625.399902</ele>
        <time>2017-10-11T08:21:42Z</time>
      </trkpt>
      <trkpt lat="42.67497" lon="1.41365">
        <ele>2625.399902</ele>
        <time>2017-10-11T08:22:04Z</time>
      </trkpt>
      <trkpt lat="42.67496" lon="1.41352">
        <ele>2626</ele>
        <time>2017-10-11T08:22:20Z</time>
      </trkpt>
      <trkpt lat="42.67489" lon="1.41344">
        <ele>2628.300049</ele>
        <time>2017-10-11T08:22:44Z</time>
      </trkpt>
      <trkpt lat="42.67485" lon="1.41334">
        <ele>2630.5</ele>
        <time>2017-10-11T08:23:15Z</time>
      </trkpt>
      <trkpt lat="42.67483" lon="1.41321">
        <ele>2634.800049</ele>
        <time>2017-10-11T08:23:28Z</time>
      </trkpt>
      <trkpt lat="42.67481" lon="1.41307">
        <ele>2640.399902</ele>
        <time>2017-10-11T08:24:15Z</time>
      </trkpt>
      <trkpt lat="42.67489" lon="1.413">
        <ele>2642.100098</ele>
        <time>2017-10-11T08:24:27Z</time>
      </trkpt>
      <trkpt lat="42.67497" lon="1.41294">
        <ele>2641.399902</ele>
        <time>2017-10-11T08:24:38Z</time>
      </trkpt>
      <trkpt lat="42.67504" lon="1.41286">
        <ele>2641.100098</ele>
        <time>2017-10-11T08:24:50Z</time>
      </trkpt>
      <trkpt lat="42.67508" lon="1.41274">
        <ele>2642.899902</ele>
        <time>2017-10-11T08:25:04Z</time>
      </trkpt>
      <trkpt lat="42.6751" lon="1.41261">
        <ele>2647.699951</ele>
        <time>2017-10-11T08:25:40Z</time>
      </trkpt>
      <trkpt lat="42.6751" lon="1.41249">
        <ele>2652</ele>
        <time>2017-10-11T08:25:54Z</time>
      </trkpt>
      <trkpt lat="42.67511" lon="1.41236">
        <ele>2660.199951</ele>
        <time>2017-10-11T08:26:10Z</time>
      </trkpt>
      <trkpt lat="42.67509" lon="1.41224">
        <ele>2667.800049</ele>
        <time>2017-10-11T08:26:26Z</time>
      </trkpt>
      <trkpt lat="42.6751" lon="1.4121">
        <ele>2676.100098</ele>
        <time>2017-10-11T08:26:37Z</time>
      </trkpt>
      <trkpt lat="42.67514" lon="1.41199">
        <ele>2684.399902</ele>
        <time>2017-10-11T08:26:51Z</time>
      </trkpt>
      <trkpt lat="42.67522" lon="1.41193">
        <ele>2685.699951</ele>
        <time>2017-10-11T08:27:16Z</time>
      </trkpt>
      <trkpt lat="42.67533" lon="1.41186">
        <ele>2684</ele>
        <time>2017-10-11T08:28:02Z</time>
      </trkpt>
      <trkpt lat="42.67542" lon="1.41177">
        <ele>2686.100098</ele>
        <time>2017-10-11T08:30:51Z</time>
      </trkpt>
      <trkpt lat="42.67548" lon="1.41154">
        <ele>2694</ele>
        <time>2017-10-11T08:32:18Z</time>
      </trkpt>
      <trkpt lat="42.67557" lon="1.4115">
        <ele>2697.300049</ele>
        <time>2017-10-11T08:33:35Z</time>
      </trkpt>
      <trkpt lat="42.67568" lon="1.41151">
        <ele>2694.5</ele>
        <time>2017-10-11T08:35:36Z</time>
      </trkpt>
      <trkpt lat="42.6758" lon="1.41137">
        <ele>2693.100098</ele>
        <time>2017-10-11T08:36:19Z</time>
      </trkpt>
      <trkpt lat="42.67588" lon="1.41126">
        <ele>2700.100098</ele>
        <time>2017-10-11T08:37:05Z</time>
      </trkpt>
      <trkpt lat="42.67598" lon="1.41114">
        <ele>2703.600098</ele>
        <time>2017-10-11T08:37:49Z</time>
      </trkpt>
      <trkpt lat="42.67605" lon="1.41106">
        <ele>2708.100098</ele>
        <time>2017-10-11T08:38:24Z</time>
      </trkpt>
      <trkpt lat="42.6761" lon="1.41095">
        <ele>2715.600098</ele>
        <time>2017-10-11T08:38:56Z</time>
      </trkpt>
      <trkpt lat="42.67609" lon="1.41082">
        <ele>2728.100098</ele>
        <time>2017-10-11T08:40:38Z</time>
      </trkpt>
      <trkpt lat="42.67599" lon="1.41083">
        <ele>2732.199951</ele>
        <time>2017-10-11T08:51:21Z</time>
      </trkpt>
      <trkpt lat="42.67588" lon="1.41082">
        <ele>2736.899902</ele>
        <time>2017-10-11T08:51:44Z</time>
      </trkpt>
      <trkpt lat="42.6758" lon="1.41076">
        <ele>2742.100098</ele>
        <time>2017-10-11T08:52:03Z</time>
      </trkpt>
      <trkpt lat="42.67571" lon="1.41073">
        <ele>2747.199951</ele>
        <time>2017-10-11T08:52:26Z</time>
      </trkpt>
      <trkpt lat="42.67562" lon="1.41077">
        <ele>2747.5</ele>
        <time>2017-10-11T08:52:54Z</time>
      </trkpt>
      <trkpt lat="42.67559" lon="1.41066">
        <ele>2753.5</ele>
        <time>2017-10-11T08:53:42Z</time>
      </trkpt>
      <trkpt lat="42.67553" lon="1.41051">
        <ele>2761.100098</ele>
        <time>2017-10-11T08:55:08Z</time>
      </trkpt>
      <trkpt lat="42.67545" lon="1.41045">
        <ele>2767.300049</ele>
        <time>2017-10-11T08:55:30Z</time>
      </trkpt>
      <trkpt lat="42.67539" lon="1.41031">
        <ele>2773.600098</ele>
        <time>2017-10-11T08:56:34Z</time>
      </trkpt>
      <trkpt lat="42.6753" lon="1.41023">
        <ele>2784.699951</ele>
        <time>2017-10-11T08:57:31Z</time>
      </trkpt>
      <trkpt lat="42.67522" lon="1.41029">
        <ele>2784.5</ele>
        <time>2017-10-11T08:57:44Z</time>
      </trkpt>
      <trkpt lat="42.67522" lon="1.41017">
        <ele>2790.899902</ele>
        <time>2017-10-11T08:58:24Z</time>
      </trkpt>
      <trkpt lat="42.67513" lon="1.41015">
        <ele>2794.300049</ele>
        <time>2017-10-11T08:59:17Z</time>
      </trkpt>
      <trkpt lat="42.67498" lon="1.41006">
        <ele>2802.199951</ele>
        <time>2017-10-11T09:01:29Z</time>
      </trkpt>
      <trkpt lat="42.67491" lon="1.40997">
        <ele>2815.199951</ele>
        <time>2017-10-11T09:02:12Z</time>
      </trkpt>
      <trkpt lat="42.67483" lon="1.41003">
        <ele>2817.800049</ele>
        <time>2017-10-11T09:04:10Z</time>
      </trkpt>
      <trkpt lat="42.67474" lon="1.41002">
        <ele>2823.699951</ele>
        <time>2017-10-11T09:05:13Z</time>
      </trkpt>
      <trkpt lat="42.67465" lon="1.40999">
        <ele>2830.899902</ele>
        <time>2017-10-11T09:06:01Z</time>
      </trkpt>
      <trkpt lat="42.6746" lon="1.40989">
        <ele>2840.300049</ele>
        <time>2017-10-11T09:07:09Z</time>
      </trkpt>
      <trkpt lat="42.67451" lon="1.40988">
        <ele>2846.899902</ele>
        <time>2017-10-11T09:07:53Z</time>
      </trkpt>
      <trkpt lat="42.67446" lon="1.40977">
        <ele>2855.600098</ele>
        <time>2017-10-11T09:08:25Z</time>
      </trkpt>
      <trkpt lat="42.67437" lon="1.40959">
        <ele>2866.899902</ele>
        <time>2017-10-11T09:12:46Z</time>
      </trkpt>
      <trkpt lat="42.67429" lon="1.40953">
        <ele>2880.899902</ele>
        <time>2017-10-11T09:14:49Z</time>
      </trkpt>
      <trkpt lat="42.67432" lon="1.40942">
        <ele>2887.100098</ele>
        <time>2017-10-11T09:15:44Z</time>
      </trkpt>
      <trkpt lat="42.67438" lon="1.40931">
        <ele>2889.800049</ele>
        <time>2017-10-11T09:16:04Z</time>
      </trkpt>
      <trkpt lat="42.6744" lon="1.40918">
        <ele>2895.100098</ele>
        <time>2017-10-11T09:16:17Z</time>
      </trkpt>
      <trkpt lat="42.67437" lon="1.40906">
        <ele>2899</ele>
        <time>2017-10-11T09:16:30Z</time>
      </trkpt>
      <trkpt lat="42.67436" lon="1.40894">
        <ele>2900.300049</ele>
        <time>2017-10-11T09:16:43Z</time>
      </trkpt>
      <trkpt lat="42.67432" lon="1.40882">
        <ele>2902.699951</ele>
        <time>2017-10-11T09:16:57Z</time>
      </trkpt>
      <trkpt lat="42.67425" lon="1.40873">
        <ele>2906.100098</ele>
        <time>2017-10-11T09:17:09Z</time>
      </trkpt>
      <trkpt lat="42.67418" lon="1.40867">
        <ele>2910.300049</ele>
        <time>2017-10-11T09:17:21Z</time>
      </trkpt>
      <trkpt lat="42.67409" lon="1.40871">
        <ele>2914.899902</ele>
        <time>2017-10-11T09:17:33Z</time>
      </trkpt>
      <trkpt lat="42.674" lon="1.40868">
        <ele>2919.800049</ele>
        <time>2017-10-11T09:17:48Z</time>
      </trkpt>
      <trkpt lat="42.67394" lon="1.40857">
        <ele>2923.100098</ele>
        <time>2017-10-11T09:18:06Z</time>
      </trkpt>
      <trkpt lat="42.67385" lon="1.40856">
        <ele>2927.399902</ele>
        <time>2017-10-11T09:19:49Z</time>
      </trkpt>
      <trkpt lat="42.67376" lon="1.40852">
        <ele>2932</ele>
        <time>2017-10-11T09:20:06Z</time>
      </trkpt>
      <trkpt lat="42.67369" lon="1.40845">
        <ele>2935.300049</ele>
        <time>2017-10-11T09:20:21Z</time>
      </trkpt>
      <trkpt lat="42.6736" lon="1.40842">
        <ele>2940.199951</ele>
        <time>2017-10-11T09:20:35Z</time>
      </trkpt>
      <trkpt lat="42.67354" lon="1.40834">
        <ele>2943.699951</ele>
        <time>2017-10-11T09:20:52Z</time>
      </trkpt>
      <trkpt lat="42.67345" lon="1.40828">
        <ele>2946.199951</ele>
        <time>2017-10-11T09:21:58Z</time>
      </trkpt>
      <trkpt lat="42.67338" lon="1.4082">
        <ele>2947.899902</ele>
        <time>2017-10-11T09:22:13Z</time>
      </trkpt>
      <trkpt lat="42.6733" lon="1.40813">
        <ele>2950.300049</ele>
        <time>2017-10-11T09:22:26Z</time>
      </trkpt>
      <trkpt lat="42.67322" lon="1.40808">
        <ele>2953.800049</ele>
        <time>2017-10-11T09:22:39Z</time>
      </trkpt>
      <trkpt lat="42.67313" lon="1.40804">
        <ele>2959.100098</ele>
        <time>2017-10-11T09:22:57Z</time>
      </trkpt>
      <trkpt lat="42.67305" lon="1.40799">
        <ele>2963.100098</ele>
        <time>2017-10-11T09:23:15Z</time>
      </trkpt>
      <trkpt lat="42.67296" lon="1.40797">
        <ele>2968.100098</ele>
        <time>2017-10-11T09:23:30Z</time>
      </trkpt>
      <trkpt lat="42.67287" lon="1.40796">
        <ele>2974.100098</ele>
        <time>2017-10-11T09:23:43Z</time>
      </trkpt>
      <trkpt lat="42.67281" lon="1.40787">
        <ele>2978.100098</ele>
        <time>2017-10-11T09:23:59Z</time>
      </trkpt>
      <trkpt lat="42.67277" lon="1.40775">
        <ele>2979.300049</ele>
        <time>2017-10-11T09:24:14Z</time>
      </trkpt>
      <trkpt lat="42.67274" lon="1.40763">
        <ele>2980.399902</ele>
        <time>2017-10-11T09:24:30Z</time>
      </trkpt>
      <trkpt lat="42.67266" lon="1.4076">
        <ele>2986.399902</ele>
        <time>2017-10-11T09:24:52Z</time>
      </trkpt>
      <trkpt lat="42.67257" lon="1.40756">
        <ele>2993.199951</ele>
        <time>2017-10-11T09:25:10Z</time>
      </trkpt>
      <trkpt lat="42.67247" lon="1.40755">
        <ele>3000.100098</ele>
        <time>2017-10-11T09:25:24Z</time>
      </trkpt>
      <trkpt lat="42.67238" lon="1.40753">
        <ele>3004.800049</ele>
        <time>2017-10-11T09:25:43Z</time>
      </trkpt>
      <trkpt lat="42.6723" lon="1.40747">
        <ele>3008</ele>
        <time>2017-10-11T09:26:01Z</time>
      </trkpt>
      <trkpt lat="42.67224" lon="1.40737">
        <ele>3010.899902</ele>
        <time>2017-10-11T09:26:15Z</time>
      </trkpt>
      <trkpt lat="42.67219" lon="1.40726">
        <ele>3014</ele>
        <time>2017-10-11T09:26:36Z</time>
      </trkpt>
      <trkpt lat="42.6722" lon="1.40714">
        <ele>3014.300049</ele>
        <time>2017-10-11T09:26:55Z</time>
      </trkpt>
      <trkpt lat="42.67214" lon="1.40705">
        <ele>3017.100098</ele>
        <time>2017-10-11T09:27:13Z</time>
      </trkpt>
      <trkpt lat="42.67206" lon="1.40698">
        <ele>3021.300049</ele>
        <time>2017-10-11T09:27:28Z</time>
      </trkpt>
      <trkpt lat="42.67199" lon="1.4069">
        <ele>3025.899902</ele>
        <time>2017-10-11T09:27:46Z</time>
      </trkpt>
      <trkpt lat="42.67195" lon="1.40679">
        <ele>3029.399902</ele>
        <time>2017-10-11T09:28:04Z</time>
      </trkpt>
      <trkpt lat="42.67194" lon="1.40666">
        <ele>3030.800049</ele>
        <time>2017-10-11T09:28:16Z</time>
      </trkpt>
      <trkpt lat="42.67193" lon="1.40653">
        <ele>3031</ele>
        <time>2017-10-11T09:28:27Z</time>
      </trkpt>
      <trkpt lat="42.67192" lon="1.40641">
        <ele>3029.899902</ele>
        <time>2017-10-11T09:28:45Z</time>
      </trkpt>
      <trkpt lat="42.67184" lon="1.40634">
        <ele>3033.899902</ele>
        <time>2017-10-11T09:29:14Z</time>
      </trkpt>
      <trkpt lat="42.67183" lon="1.40621">
        <ele>3034.699951</ele>
        <time>2017-10-11T09:51:20Z</time>
      </trkpt>
      <trkpt lat="42.67193" lon="1.4063">
        <ele>3029</ele>
        <time>2017-10-11T10:20:51Z</time>
      </trkpt>
      <trkpt lat="42.67193" lon="1.40617">
        <ele>3027.899902</ele>
        <time>2017-10-11T10:37:58Z</time>
      </trkpt>
      <trkpt lat="42.67195" lon="1.40603">
        <ele>3026</ele>
        <time>2017-10-11T10:38:10Z</time>
      </trkpt>
      <trkpt lat="42.67195" lon="1.4059">
        <ele>3024.399902</ele>
        <time>2017-10-11T10:38:20Z</time>
      </trkpt>
      <trkpt lat="42.67194" lon="1.40578">
        <ele>3023.899902</ele>
        <time>2017-10-11T10:38:33Z</time>
      </trkpt>
      <trkpt lat="42.67197" lon="1.40565">
        <ele>3020.399902</ele>
        <time>2017-10-11T10:38:42Z</time>
      </trkpt>
      <trkpt lat="42.67202" lon="1.40554">
        <ele>3015.100098</ele>
        <time>2017-10-11T10:38:58Z</time>
      </trkpt>
      <trkpt lat="42.67204" lon="1.40541">
        <ele>3011</ele>
        <time>2017-10-11T10:39:14Z</time>
      </trkpt>
      <trkpt lat="42.67201" lon="1.40529">
        <ele>3010.600098</ele>
        <time>2017-10-11T10:39:29Z</time>
      </trkpt>
      <trkpt lat="42.67199" lon="1.40517">
        <ele>3010.300049</ele>
        <time>2017-10-11T10:39:48Z</time>
      </trkpt>
      <trkpt lat="42.672" lon="1.40504">
        <ele>3007.800049</ele>
        <time>2017-10-11T10:40:01Z</time>
      </trkpt>
      <trkpt lat="42.672" lon="1.40491">
        <ele>3006.100098</ele>
        <time>2017-10-11T10:40:12Z</time>
      </trkpt>
      <trkpt lat="42.67199" lon="1.40478">
        <ele>3004.399902</ele>
        <time>2017-10-11T10:40:23Z</time>
      </trkpt>
      <trkpt lat="42.67201" lon="1.40466">
        <ele>3002.100098</ele>
        <time>2017-10-11T10:40:34Z</time>
      </trkpt>
      <trkpt lat="42.67199" lon="1.40454">
        <ele>3001.699951</ele>
        <time>2017-10-11T10:40:49Z</time>
      </trkpt>
      <trkpt lat="42.67195" lon="1.40441">
        <ele>3002.100098</ele>
        <time>2017-10-11T10:41:00Z</time>
      </trkpt>
      <trkpt lat="42.6719" lon="1.40429">
        <ele>3003.399902</ele>
        <time>2017-10-11T10:41:15Z</time>
      </trkpt>
      <trkpt lat="42.67184" lon="1.40419">
        <ele>3006.699951</ele>
        <time>2017-10-11T10:41:34Z</time>
      </trkpt>
      <trkpt lat="42.67185" lon="1.40407">
        <ele>3006.100098</ele>
        <time>2017-10-11T10:41:52Z</time>
      </trkpt>
      <trkpt lat="42.67184" lon="1.40394">
        <ele>3006.5</ele>
        <time>2017-10-11T10:42:12Z</time>
      </trkpt>
      <trkpt lat="42.67181" lon="1.40383">
        <ele>3008.600098</ele>
        <time>2017-10-11T10:42:34Z</time>
      </trkpt>
      <trkpt lat="42.67179" lon="1.40371">
        <ele>3010.5</ele>
        <time>2017-10-11T10:43:11Z</time>
      </trkpt>
      <trkpt lat="42.67177" lon="1.40359">
        <ele>3012.100098</ele>
        <time>2017-10-11T10:43:25Z</time>
      </trkpt>
      <trkpt lat="42.67178" lon="1.40346">
        <ele>3010.600098</ele>
        <time>2017-10-11T10:43:37Z</time>
      </trkpt>
      <trkpt lat="42.67176" lon="1.40333">
        <ele>3012.100098</ele>
        <time>2017-10-11T10:43:47Z</time>
      </trkpt>
      <trkpt lat="42.67173" lon="1.4032">
        <ele>3011.199951</ele>
        <time>2017-10-11T10:43:58Z</time>
      </trkpt>
      <trkpt lat="42.67175" lon="1.40307">
        <ele>3008.899902</ele>
        <time>2017-10-11T10:44:11Z</time>
      </trkpt>
      <trkpt lat="42.67181" lon="1.40297">
        <ele>3002.100098</ele>
        <time>2017-10-11T10:44:25Z</time>
      </trkpt>
      <trkpt lat="42.67177" lon="1.40284">
        <ele>2999.899902</ele>
        <time>2017-10-11T10:45:34Z</time>
      </trkpt>
      <trkpt lat="42.6717" lon="1.40276">
        <ele>3004</ele>
        <time>2017-10-11T10:45:47Z</time>
      </trkpt>
      <trkpt lat="42.6717" lon="1.40263">
        <ele>3002.399902</ele>
        <time>2017-10-11T10:46:05Z</time>
      </trkpt>
      <trkpt lat="42.67162" lon="1.40255">
        <ele>3003.899902</ele>
        <time>2017-10-11T10:46:17Z</time>
      </trkpt>
      <trkpt lat="42.67152" lon="1.40253">
        <ele>3005.399902</ele>
        <time>2017-10-11T10:46:28Z</time>
      </trkpt>
      <trkpt lat="42.67143" lon="1.40254">
        <ele>3007.699951</ele>
        <time>2017-10-11T10:46:43Z</time>
      </trkpt>
      <trkpt lat="42.67134" lon="1.40258">
        <ele>3010.199951</ele>
        <time>2017-10-11T10:46:59Z</time>
      </trkpt>
      <trkpt lat="42.67125" lon="1.40252">
        <ele>3011.300049</ele>
        <time>2017-10-11T10:47:20Z</time>
      </trkpt>
      <trkpt lat="42.67116" lon="1.40254">
        <ele>3013.5</ele>
        <time>2017-10-11T10:47:41Z</time>
      </trkpt>
      <trkpt lat="42.6711" lon="1.40244">
        <ele>3013.300049</ele>
        <time>2017-10-11T10:48:08Z</time>
      </trkpt>
      <trkpt lat="42.67101" lon="1.40242">
        <ele>3013.399902</ele>
        <time>2017-10-11T10:48:35Z</time>
      </trkpt>
      <trkpt lat="42.67097" lon="1.40231">
        <ele>3011.5</ele>
        <time>2017-10-11T10:49:08Z</time>
      </trkpt>
      <trkpt lat="42.6709" lon="1.40222">
        <ele>3009</ele>
        <time>2017-10-11T10:49:29Z</time>
      </trkpt>
      <trkpt lat="42.67081" lon="1.4022">
        <ele>3009.399902</ele>
        <time>2017-10-11T10:49:51Z</time>
      </trkpt>
      <trkpt lat="42.67085" lon="1.40209">
        <ele>3006</ele>
        <time>2017-10-11T10:50:07Z</time>
      </trkpt>
      <trkpt lat="42.67085" lon="1.40195">
        <ele>3001.199951</ele>
        <time>2017-10-11T10:50:35Z</time>
      </trkpt>
      <trkpt lat="42.67091" lon="1.40186">
        <ele>2996.699951</ele>
        <time>2017-10-11T10:50:55Z</time>
      </trkpt>
      <trkpt lat="42.671" lon="1.40181">
        <ele>2994.399902</ele>
        <time>2017-10-11T10:51:06Z</time>
      </trkpt>
      <trkpt lat="42.67096" lon="1.4017">
        <ele>2991</ele>
        <time>2017-10-11T10:51:18Z</time>
      </trkpt>
      <trkpt lat="42.67087" lon="1.40166">
        <ele>2989.800049</ele>
        <time>2017-10-11T10:51:24Z</time>
      </trkpt>
      <trkpt lat="42.67088" lon="1.40153">
        <ele>2984.600098</ele>
        <time>2017-10-11T10:51:37Z</time>
      </trkpt>
      <trkpt lat="42.67089" lon="1.40141">
        <ele>2977.300049</ele>
        <time>2017-10-11T10:52:07Z</time>
      </trkpt>
      <trkpt lat="42.67084" lon="1.4013">
        <ele>2972.800049</ele>
        <time>2017-10-11T10:52:18Z</time>
      </trkpt>
      <trkpt lat="42.6709" lon="1.4012">
        <ele>2966.300049</ele>
        <time>2017-10-11T10:53:25Z</time>
      </trkpt>
      <trkpt lat="42.67083" lon="1.4011">
        <ele>2963.100098</ele>
        <time>2017-10-11T10:53:59Z</time>
      </trkpt>
      <trkpt lat="42.67084" lon="1.4009">
        <ele>2954.899902</ele>
        <time>2017-10-11T10:54:36Z</time>
      </trkpt>
      <trkpt lat="42.67089" lon="1.40079">
        <ele>2946.399902</ele>
        <time>2017-10-11T10:54:49Z</time>
      </trkpt>
      <trkpt lat="42.67098" lon="1.40072">
        <ele>2942.100098</ele>
        <time>2017-10-11T10:55:12Z</time>
      </trkpt>
      <trkpt lat="42.67107" lon="1.40069">
        <ele>2939.5</ele>
        <time>2017-10-11T10:55:25Z</time>
      </trkpt>
      <trkpt lat="42.67113" lon="1.40059">
        <ele>2935.699951</ele>
        <time>2017-10-11T10:55:40Z</time>
      </trkpt>
      <trkpt lat="42.67111" lon="1.40047">
        <ele>2929.300049</ele>
        <time>2017-10-11T10:56:18Z</time>
      </trkpt>
      <trkpt lat="42.6711" lon="1.40034">
        <ele>2924.800049</ele>
        <time>2017-10-11T10:57:48Z</time>
      </trkpt>
      <trkpt lat="42.67113" lon="1.40022">
        <ele>2919.199951</ele>
        <time>2017-10-11T10:58:02Z</time>
      </trkpt>
      <trkpt lat="42.67118" lon="1.40012">
        <ele>2913.399902</ele>
        <time>2017-10-11T10:58:15Z</time>
      </trkpt>
      <trkpt lat="42.67122" lon="1.4">
        <ele>2907.899902</ele>
        <time>2017-10-11T10:58:27Z</time>
      </trkpt>
      <trkpt lat="42.67126" lon="1.39988">
        <ele>2904.800049</ele>
        <time>2017-10-11T10:58:39Z</time>
      </trkpt>
      <trkpt lat="42.67135" lon="1.39989">
        <ele>2902.600098</ele>
        <time>2017-10-11T10:58:53Z</time>
      </trkpt>
      <trkpt lat="42.67144" lon="1.39991">
        <ele>2901.300049</ele>
        <time>2017-10-11T10:59:19Z</time>
      </trkpt>
      <trkpt lat="42.67143" lon="1.39978">
        <ele>2899.699951</ele>
        <time>2017-10-11T10:59:41Z</time>
      </trkpt>
      <trkpt lat="42.67152" lon="1.39977">
        <ele>2898.300049</ele>
        <time>2017-10-11T11:00:12Z</time>
      </trkpt>
      <trkpt lat="42.67162" lon="1.39979">
        <ele>2896.800049</ele>
        <time>2017-10-11T11:00:33Z</time>
      </trkpt>
      <trkpt lat="42.67169" lon="1.3997">
        <ele>2894.399902</ele>
        <time>2017-10-11T11:00:51Z</time>
      </trkpt>
      <trkpt lat="42.67182" lon="1.39977">
        <ele>2891.899902</ele>
        <time>2017-10-11T11:01:18Z</time>
      </trkpt>
      <trkpt lat="42.67189" lon="1.39984">
        <ele>2889.600098</ele>
        <time>2017-10-11T11:01:30Z</time>
      </trkpt>
      <trkpt lat="42.67197" lon="1.39971">
        <ele>2887.399902</ele>
        <time>2017-10-11T11:02:04Z</time>
      </trkpt>
      <trkpt lat="42.67205" lon="1.39964">
        <ele>2884.100098</ele>
        <time>2017-10-11T11:02:18Z</time>
      </trkpt>
      <trkpt lat="42.67211" lon="1.39954">
        <ele>2881.5</ele>
        <time>2017-10-11T11:02:38Z</time>
      </trkpt>
      <trkpt lat="42.67219" lon="1.39948">
        <ele>2879.399902</ele>
        <time>2017-10-11T11:02:55Z</time>
      </trkpt>
      <trkpt lat="42.67226" lon="1.39938">
        <ele>2877.300049</ele>
        <time>2017-10-11T11:03:09Z</time>
      </trkpt>
      <trkpt lat="42.67235" lon="1.39934">
        <ele>2875</ele>
        <time>2017-10-11T11:03:28Z</time>
      </trkpt>
      <trkpt lat="42.67244" lon="1.39932">
        <ele>2872.899902</ele>
        <time>2017-10-11T11:03:38Z</time>
      </trkpt>
      <trkpt lat="42.67253" lon="1.39926">
        <ele>2870.699951</ele>
        <time>2017-10-11T11:03:51Z</time>
      </trkpt>
      <trkpt lat="42.67261" lon="1.3993">
        <ele>2868.300049</ele>
        <time>2017-10-11T11:04:03Z</time>
      </trkpt>
      <trkpt lat="42.6727" lon="1.39933">
        <ele>2865.800049</ele>
        <time>2017-10-11T11:04:14Z</time>
      </trkpt>
      <trkpt lat="42.67279" lon="1.39936">
        <ele>2862.699951</ele>
        <time>2017-10-11T11:04:29Z</time>
      </trkpt>
      <trkpt lat="42.67288" lon="1.39939">
        <ele>2860.100098</ele>
        <time>2017-10-11T11:04:42Z</time>
      </trkpt>
      <trkpt lat="42.67297" lon="1.39942">
        <ele>2857</ele>
        <time>2017-10-11T11:05:01Z</time>
      </trkpt>
      <trkpt lat="42.67305" lon="1.39947">
        <ele>2854.100098</ele>
        <time>2017-10-11T11:05:32Z</time>
      </trkpt>
      <trkpt lat="42.67313" lon="1.39953">
        <ele>2851.600098</ele>
        <time>2017-10-11T11:05:47Z</time>
      </trkpt>
      <trkpt lat="42.67323" lon="1.39955">
        <ele>2848.699951</ele>
        <time>2017-10-11T11:05:58Z</time>
      </trkpt>
      <trkpt lat="42.67328" lon="1.39966">
        <ele>2846</ele>
        <time>2017-10-11T11:06:12Z</time>
      </trkpt>
      <trkpt lat="42.67334" lon="1.39975">
        <ele>2843.199951</ele>
        <time>2017-10-11T11:06:30Z</time>
      </trkpt>
      <trkpt lat="42.67341" lon="1.39965">
        <ele>2841.399902</ele>
        <time>2017-10-11T11:06:41Z</time>
      </trkpt>
      <trkpt lat="42.6735" lon="1.39964">
        <ele>2838.600098</ele>
        <time>2017-10-11T11:07:01Z</time>
      </trkpt>
      <trkpt lat="42.67358" lon="1.39958">
        <ele>2836.300049</ele>
        <time>2017-10-11T11:07:14Z</time>
      </trkpt>
      <trkpt lat="42.67368" lon="1.39955">
        <ele>2833</ele>
        <time>2017-10-11T11:07:25Z</time>
      </trkpt>
      <trkpt lat="42.67378" lon="1.39951">
        <ele>2829.899902</ele>
        <time>2017-10-11T11:07:37Z</time>
      </trkpt>
      <trkpt lat="42.67386" lon="1.39946">
        <ele>2827</ele>
        <time>2017-10-11T11:07:49Z</time>
      </trkpt>
      <trkpt lat="42.67395" lon="1.39943">
        <ele>2823.899902</ele>
        <time>2017-10-11T11:07:59Z</time>
      </trkpt>
      <trkpt lat="42.67404" lon="1.39943">
        <ele>2820.199951</ele>
        <time>2017-10-11T11:08:15Z</time>
      </trkpt>
      <trkpt lat="42.67413" lon="1.39937">
        <ele>2817.800049</ele>
        <time>2017-10-11T11:08:35Z</time>
      </trkpt>
      <trkpt lat="42.67422" lon="1.39941">
        <ele>2813.5</ele>
        <time>2017-10-11T11:09:14Z</time>
      </trkpt>
      <trkpt lat="42.67431" lon="1.39937">
        <ele>2808.800049</ele>
        <time>2017-10-11T11:09:45Z</time>
      </trkpt>
      <trkpt lat="42.6744" lon="1.39941">
        <ele>2803.5</ele>
        <time>2017-10-11T11:09:57Z</time>
      </trkpt>
      <trkpt lat="42.67449" lon="1.39936">
        <ele>2798.199951</ele>
        <time>2017-10-11T11:10:10Z</time>
      </trkpt>
      <trkpt lat="42.67455" lon="1.39927">
        <ele>2794.399902</ele>
        <time>2017-10-11T11:10:23Z</time>
      </trkpt>
      <trkpt lat="42.67463" lon="1.3992">
        <ele>2790.600098</ele>
        <time>2017-10-11T11:10:33Z</time>
      </trkpt>
      <trkpt lat="42.67472" lon="1.39915">
        <ele>2785.399902</ele>
        <time>2017-10-11T11:10:47Z</time>
      </trkpt>
      <trkpt lat="42.67481" lon="1.39913">
        <ele>2779.699951</ele>
        <time>2017-10-11T11:11:34Z</time>
      </trkpt>
      <trkpt lat="42.67489" lon="1.39919">
        <ele>2775.399902</ele>
        <time>2017-10-11T11:11:48Z</time>
      </trkpt>
      <trkpt lat="42.67493" lon="1.39908">
        <ele>2771.699951</ele>
        <time>2017-10-11T11:12:17Z</time>
      </trkpt>
      <trkpt lat="42.67494" lon="1.39896">
        <ele>2772.199951</ele>
        <time>2017-10-11T11:12:34Z</time>
      </trkpt>
      <trkpt lat="42.67503" lon="1.39894">
        <ele>2767.399902</ele>
        <time>2017-10-11T11:12:54Z</time>
      </trkpt>
      <trkpt lat="42.67512" lon="1.39895">
        <ele>2762.5</ele>
        <time>2017-10-11T11:13:19Z</time>
      </trkpt>
      <trkpt lat="42.67521" lon="1.39896">
        <ele>2758.800049</ele>
        <time>2017-10-11T11:14:07Z</time>
      </trkpt>
      <trkpt lat="42.6753" lon="1.39902">
        <ele>2753.800049</ele>
        <time>2017-10-11T11:14:21Z</time>
      </trkpt>
      <trkpt lat="42.67538" lon="1.39909">
        <ele>2749.699951</ele>
        <time>2017-10-11T11:14:39Z</time>
      </trkpt>
      <trkpt lat="42.6754" lon="1.39897">
        <ele>2748.100098</ele>
        <time>2017-10-11T11:15:27Z</time>
      </trkpt>
      <trkpt lat="42.6754" lon="1.39885">
        <ele>2747.600098</ele>
        <time>2017-10-11T11:15:38Z</time>
      </trkpt>
      <trkpt lat="42.67552" lon="1.39882">
        <ele>2742.800049</ele>
        <time>2017-10-11T11:16:12Z</time>
      </trkpt>
      <trkpt lat="42.67561" lon="1.39885">
        <ele>2737.699951</ele>
        <time>2017-10-11T11:16:35Z</time>
      </trkpt>
      <trkpt lat="42.67568" lon="1.39894">
        <ele>2734</ele>
        <time>2017-10-11T11:16:46Z</time>
      </trkpt>
      <trkpt lat="42.67577" lon="1.39889">
        <ele>2729.399902</ele>
        <time>2017-10-11T11:17:16Z</time>
      </trkpt>
      <trkpt lat="42.67583" lon="1.39877">
        <ele>2726.600098</ele>
        <time>2017-10-11T11:17:35Z</time>
      </trkpt>
      <trkpt lat="42.67592" lon="1.39877">
        <ele>2722.699951</ele>
        <time>2017-10-11T11:17:49Z</time>
      </trkpt>
      <trkpt lat="42.67601" lon="1.3988">
        <ele>2718</ele>
        <time>2017-10-11T11:18:06Z</time>
      </trkpt>
      <trkpt lat="42.6761" lon="1.3988">
        <ele>2713.899902</ele>
        <time>2017-10-11T11:18:33Z</time>
      </trkpt>
      <trkpt lat="42.67619" lon="1.39883">
        <ele>2710</ele>
        <time>2017-10-11T11:18:50Z</time>
      </trkpt>
      <trkpt lat="42.67627" lon="1.39891">
        <ele>2706.300049</ele>
        <time>2017-10-11T11:19:08Z</time>
      </trkpt>
      <trkpt lat="42.67634" lon="1.399">
        <ele>2703.300049</ele>
        <time>2017-10-11T11:19:31Z</time>
      </trkpt>
      <trkpt lat="42.67643" lon="1.39899">
        <ele>2698.899902</ele>
        <time>2017-10-11T11:19:50Z</time>
      </trkpt>
      <trkpt lat="42.67652" lon="1.399">
        <ele>2695.199951</ele>
        <time>2017-10-11T11:20:02Z</time>
      </trkpt>
      <trkpt lat="42.67662" lon="1.39901">
        <ele>2690.699951</ele>
        <time>2017-10-11T11:20:19Z</time>
      </trkpt>
      <trkpt lat="42.6767" lon="1.39896">
        <ele>2685.300049</ele>
        <time>2017-10-11T11:20:33Z</time>
      </trkpt>
      <trkpt lat="42.67677" lon="1.39887">
        <ele>2679.800049</ele>
        <time>2017-10-11T11:20:54Z</time>
      </trkpt>
      <trkpt lat="42.67685" lon="1.39892">
        <ele>2673.199951</ele>
        <time>2017-10-11T11:21:09Z</time>
      </trkpt>
      <trkpt lat="42.67693" lon="1.39898">
        <ele>2665.699951</ele>
        <time>2017-10-11T11:21:29Z</time>
      </trkpt>
      <trkpt lat="42.67699" lon="1.39908">
        <ele>2660.800049</ele>
        <time>2017-10-11T11:21:45Z</time>
      </trkpt>
      <trkpt lat="42.67704" lon="1.39897">
        <ele>2657.100098</ele>
        <time>2017-10-11T11:22:08Z</time>
      </trkpt>
      <trkpt lat="42.67712" lon="1.39904">
        <ele>2650.199951</ele>
        <time>2017-10-11T11:22:25Z</time>
      </trkpt>
      <trkpt lat="42.6772" lon="1.39899">
        <ele>2643</ele>
        <time>2017-10-11T11:22:42Z</time>
      </trkpt>
      <trkpt lat="42.67722" lon="1.39886">
        <ele>2640.800049</ele>
        <time>2017-10-11T11:22:58Z</time>
      </trkpt>
      <trkpt lat="42.67718" lon="1.39875">
        <ele>2644</ele>
        <time>2017-10-11T11:23:16Z</time>
      </trkpt>
      <trkpt lat="42.6772" lon="1.39863">
        <ele>2644.100098</ele>
        <time>2017-10-11T11:23:32Z</time>
      </trkpt>
      <trkpt lat="42.67727" lon="1.39854">
        <ele>2640.199951</ele>
        <time>2017-10-11T11:23:44Z</time>
      </trkpt>
      <trkpt lat="42.67734" lon="1.39846">
        <ele>2634.699951</ele>
        <time>2017-10-11T11:24:16Z</time>
      </trkpt>
      <trkpt lat="42.67739" lon="1.39834">
        <ele>2633.399902</ele>
        <time>2017-10-11T11:26:40Z</time>
      </trkpt>
      <trkpt lat="42.67743" lon="1.39822">
        <ele>2628.100098</ele>
        <time>2017-10-11T11:26:51Z</time>
      </trkpt>
      <trkpt lat="42.67749" lon="1.39813">
        <ele>2624.100098</ele>
        <time>2017-10-11T11:27:06Z</time>
      </trkpt>
      <trkpt lat="42.67756" lon="1.39804">
        <ele>2620.600098</ele>
        <time>2017-10-11T11:27:32Z</time>
      </trkpt>
      <trkpt lat="42.67763" lon="1.39796">
        <ele>2616.699951</ele>
        <time>2017-10-11T11:27:47Z</time>
      </trkpt>
      <trkpt lat="42.6777" lon="1.39788">
        <ele>2613.100098</ele>
        <time>2017-10-11T11:27:57Z</time>
      </trkpt>
      <trkpt lat="42.67773" lon="1.39776">
        <ele>2610.600098</ele>
        <time>2017-10-11T11:28:12Z</time>
      </trkpt>
      <trkpt lat="42.67773" lon="1.39764">
        <ele>2610.300049</ele>
        <time>2017-10-11T11:29:33Z</time>
      </trkpt>
      <trkpt lat="42.67782" lon="1.39761">
        <ele>2606.800049</ele>
        <time>2017-10-11T11:29:58Z</time>
      </trkpt>
      <trkpt lat="42.67789" lon="1.39753">
        <ele>2603.300049</ele>
        <time>2017-10-11T11:30:11Z</time>
      </trkpt>
      <trkpt lat="42.67786" lon="1.39741">
        <ele>2603.399902</ele>
        <time>2017-10-11T11:30:28Z</time>
      </trkpt>
      <trkpt lat="42.67786" lon="1.39728">
        <ele>2601.399902</ele>
        <time>2017-10-11T11:30:45Z</time>
      </trkpt>
      <trkpt lat="42.67793" lon="1.39722">
        <ele>2597.800049</ele>
        <time>2017-10-11T11:31:16Z</time>
      </trkpt>
      <trkpt lat="42.67802" lon="1.39718">
        <ele>2592.800049</ele>
        <time>2017-10-11T11:31:43Z</time>
      </trkpt>
      <trkpt lat="42.67813" lon="1.39723">
        <ele>2588</ele>
        <time>2017-10-11T11:32:17Z</time>
      </trkpt>
      <trkpt lat="42.67821" lon="1.3973">
        <ele>2585.699951</ele>
        <time>2017-10-11T11:32:34Z</time>
      </trkpt>
      <trkpt lat="42.67828" lon="1.39739">
        <ele>2582.399902</ele>
        <time>2017-10-11T11:32:44Z</time>
      </trkpt>
      <trkpt lat="42.67832" lon="1.39755">
        <ele>2582.100098</ele>
        <time>2017-10-11T11:33:12Z</time>
      </trkpt>
      <trkpt lat="42.67841" lon="1.39756">
        <ele>2579.100098</ele>
        <time>2017-10-11T11:33:43Z</time>
      </trkpt>
      <trkpt lat="42.67847" lon="1.39746">
        <ele>2576.899902</ele>
        <time>2017-10-11T11:34:20Z</time>
      </trkpt>
      <trkpt lat="42.67856" lon="1.39753">
        <ele>2575.100098</ele>
        <time>2017-10-11T11:34:36Z</time>
      </trkpt>
      <trkpt lat="42.67865" lon="1.39746">
        <ele>2571.600098</ele>
        <time>2017-10-11T11:34:54Z</time>
      </trkpt>
      <trkpt lat="42.67874" lon="1.39746">
        <ele>2568.199951</ele>
        <time>2017-10-11T11:35:11Z</time>
      </trkpt>
      <trkpt lat="42.67874" lon="1.39732">
        <ele>2565.899902</ele>
        <time>2017-10-11T11:35:38Z</time>
      </trkpt>
      <trkpt lat="42.67885" lon="1.39735">
        <ele>2563.300049</ele>
        <time>2017-10-11T11:36:02Z</time>
      </trkpt>
      <trkpt lat="42.67894" lon="1.39733">
        <ele>2559.5</ele>
        <time>2017-10-11T11:36:29Z</time>
      </trkpt>
      <trkpt lat="42.67901" lon="1.39742">
        <ele>2558.899902</ele>
        <time>2017-10-11T11:36:40Z</time>
      </trkpt>
      <trkpt lat="42.6791" lon="1.39748">
        <ele>2557.5</ele>
        <time>2017-10-11T11:36:52Z</time>
      </trkpt>
      <trkpt lat="42.67913" lon="1.39761">
        <ele>2558.300049</ele>
        <time>2017-10-11T11:37:01Z</time>
      </trkpt>
      <trkpt lat="42.67911" lon="1.39774">
        <ele>2560.899902</ele>
        <time>2017-10-11T11:37:11Z</time>
      </trkpt>
      <trkpt lat="42.6791" lon="1.39787">
        <ele>2563.800049</ele>
        <time>2017-10-11T11:37:22Z</time>
      </trkpt>
      <trkpt lat="42.67909" lon="1.39799">
        <ele>2565.800049</ele>
        <time>2017-10-11T11:37:31Z</time>
      </trkpt>
      <trkpt lat="42.6791" lon="1.39811">
        <ele>2567.899902</ele>
        <time>2017-10-11T11:37:40Z</time>
      </trkpt>
      <trkpt lat="42.67909" lon="1.39825">
        <ele>2570.199951</ele>
        <time>2017-10-11T11:37:48Z</time>
      </trkpt>
      <trkpt lat="42.67906" lon="1.39837">
        <ele>2572.899902</ele>
        <time>2017-10-11T11:37:58Z</time>
      </trkpt>
      <trkpt lat="42.67904" lon="1.3985">
        <ele>2575.800049</ele>
        <time>2017-10-11T11:38:21Z</time>
      </trkpt>
      <trkpt lat="42.67908" lon="1.39862">
        <ele>2578</ele>
        <time>2017-10-11T11:38:34Z</time>
      </trkpt>
      <trkpt lat="42.67909" lon="1.39874">
        <ele>2580.399902</ele>
        <time>2017-10-11T11:38:43Z</time>
      </trkpt>
      <trkpt lat="42.67911" lon="1.39887">
        <ele>2583.699951</ele>
        <time>2017-10-11T11:38:56Z</time>
      </trkpt>
      <trkpt lat="42.67918" lon="1.39896">
        <ele>2586.899902</ele>
        <time>2017-10-11T11:39:37Z</time>
      </trkpt>
      <trkpt lat="42.67925" lon="1.39904">
        <ele>2592.800049</ele>
        <time>2017-10-11T11:40:05Z</time>
      </trkpt>
      <trkpt lat="42.67934" lon="1.39907">
        <ele>2598.899902</ele>
        <time>2017-10-11T11:40:17Z</time>
      </trkpt>
      <trkpt lat="42.67944" lon="1.39902">
        <ele>2601.399902</ele>
        <time>2017-10-11T11:40:20Z</time>
      </trkpt>
      <trkpt lat="42.67949" lon="1.39892">
        <ele>2604.600098</ele>
        <time>2017-10-11T11:40:33Z</time>
      </trkpt>
      <trkpt lat="42.67952" lon="1.39879">
        <ele>2603.399902</ele>
        <time>2017-10-11T11:40:43Z</time>
      </trkpt>
      <trkpt lat="42.67949" lon="1.39866">
        <ele>2598.5</ele>
        <time>2017-10-11T11:40:53Z</time>
      </trkpt>
      <trkpt lat="42.67953" lon="1.39854">
        <ele>2596.100098</ele>
        <time>2017-10-11T11:41:03Z</time>
      </trkpt>
      <trkpt lat="42.67956" lon="1.39842">
        <ele>2594.100098</ele>
        <time>2017-10-11T11:41:16Z</time>
      </trkpt>
      <trkpt lat="42.67963" lon="1.39833">
        <ele>2594.100098</ele>
        <time>2017-10-11T11:41:43Z</time>
      </trkpt>
      <trkpt lat="42.67969" lon="1.39823">
        <ele>2594</ele>
        <time>2017-10-11T11:41:49Z</time>
      </trkpt>
      <trkpt lat="42.67976" lon="1.39815">
        <ele>2594.600098</ele>
        <time>2017-10-11T11:42:04Z</time>
      </trkpt>
      <trkpt lat="42.67986" lon="1.39811">
        <ele>2597.199951</ele>
        <time>2017-10-11T11:42:22Z</time>
      </trkpt>
      <trkpt lat="42.67988" lon="1.39798">
        <ele>2596.100098</ele>
        <time>2017-10-11T11:42:34Z</time>
      </trkpt>
      <trkpt lat="42.67988" lon="1.39786">
        <ele>2592.399902</ele>
        <time>2017-10-11T11:42:47Z</time>
      </trkpt>
      <trkpt lat="42.6799" lon="1.39768">
        <ele>2588.5</ele>
        <time>2017-10-11T11:43:24Z</time>
      </trkpt>
      <trkpt lat="42.67996" lon="1.39758">
        <ele>2586.300049</ele>
        <time>2017-10-11T11:43:54Z</time>
      </trkpt>
      <trkpt lat="42.68001" lon="1.39747">
        <ele>2585</ele>
        <time>2017-10-11T11:43:59Z</time>
      </trkpt>
      <trkpt lat="42.68004" lon="1.39735">
        <ele>2580.5</ele>
        <time>2017-10-11T11:44:11Z</time>
      </trkpt>
      <trkpt lat="42.68011" lon="1.39726">
        <ele>2578.800049</ele>
        <time>2017-10-11T11:44:28Z</time>
      </trkpt>
      <trkpt lat="42.68016" lon="1.39715">
        <ele>2577.600098</ele>
        <time>2017-10-11T11:44:51Z</time>
      </trkpt>
      <trkpt lat="42.68025" lon="1.39709">
        <ele>2576.800049</ele>
        <time>2017-10-11T11:45:03Z</time>
      </trkpt>
      <trkpt lat="42.68031" lon="1.397">
        <ele>2576.699951</ele>
        <time>2017-10-11T11:45:13Z</time>
      </trkpt>
      <trkpt lat="42.68035" lon="1.39688">
        <ele>2572.5</ele>
        <time>2017-10-11T11:45:25Z</time>
      </trkpt>
      <trkpt lat="42.68041" lon="1.39678">
        <ele>2570.100098</ele>
        <time>2017-10-11T11:45:34Z</time>
      </trkpt>
      <trkpt lat="42.68045" lon="1.39666">
        <ele>2566.100098</ele>
        <time>2017-10-11T11:45:51Z</time>
      </trkpt>
      <trkpt lat="42.68044" lon="1.39653">
        <ele>2559.600098</ele>
        <time>2017-10-11T11:46:01Z</time>
      </trkpt>
      <trkpt lat="42.68044" lon="1.3964">
        <ele>2552.199951</ele>
        <time>2017-10-11T11:46:13Z</time>
      </trkpt>
      <trkpt lat="42.68043" lon="1.39628">
        <ele>2544.699951</ele>
        <time>2017-10-11T11:46:48Z</time>
      </trkpt>
      <trkpt lat="42.68044" lon="1.39614">
        <ele>2538.600098</ele>
        <time>2017-10-11T11:46:55Z</time>
      </trkpt>
      <trkpt lat="42.68054" lon="1.39609">
        <ele>2534.899902</ele>
        <time>2017-10-11T11:47:05Z</time>
      </trkpt>
      <trkpt lat="42.68063" lon="1.39602">
        <ele>2532.600098</ele>
        <time>2017-10-11T11:47:19Z</time>
      </trkpt>
      <trkpt lat="42.6807" lon="1.39593">
        <ele>2528.300049</ele>
        <time>2017-10-11T11:47:33Z</time>
      </trkpt>
      <trkpt lat="42.68077" lon="1.39584">
        <ele>2523.300049</ele>
        <time>2017-10-11T11:47:49Z</time>
      </trkpt>
      <trkpt lat="42.68083" lon="1.39576">
        <ele>2518.399902</ele>
        <time>2017-10-11T11:50:42Z</time>
      </trkpt>
      <trkpt lat="42.68086" lon="1.39563">
        <ele>2511.899902</ele>
        <time>2017-10-11T11:51:04Z</time>
      </trkpt>
      <trkpt lat="42.68081" lon="1.39552">
        <ele>2507.300049</ele>
        <time>2017-10-11T11:51:27Z</time>
      </trkpt>
      <trkpt lat="42.68079" lon="1.39538">
        <ele>2500.699951</ele>
        <time>2017-10-11T11:51:55Z</time>
      </trkpt>
      <trkpt lat="42.68083" lon="1.39526">
        <ele>2495.300049</ele>
        <time>2017-10-11T11:52:03Z</time>
      </trkpt>
      <trkpt lat="42.68087" lon="1.39515">
        <ele>2486.800049</ele>
        <time>2017-10-11T11:52:24Z</time>
      </trkpt>
      <trkpt lat="42.6809" lon="1.39502">
        <ele>2480.300049</ele>
        <time>2017-10-11T11:52:44Z</time>
      </trkpt>
      <trkpt lat="42.68093" lon="1.3949">
        <ele>2473.600098</ele>
        <time>2017-10-11T11:53:04Z</time>
      </trkpt>
      <trkpt lat="42.68092" lon="1.39478">
        <ele>2468.199951</ele>
        <time>2017-10-11T11:53:27Z</time>
      </trkpt>
      <trkpt lat="42.68096" lon="1.39465">
        <ele>2462.300049</ele>
        <time>2017-10-11T11:54:36Z</time>
      </trkpt>
      <trkpt lat="42.68105" lon="1.3946">
        <ele>2455.899902</ele>
        <time>2017-10-11T11:54:54Z</time>
      </trkpt>
      <trkpt lat="42.68114" lon="1.39455">
        <ele>2451.399902</ele>
        <time>2017-10-11T11:55:07Z</time>
      </trkpt>
      <trkpt lat="42.68118" lon="1.39467">
        <ele>2452.699951</ele>
        <time>2017-10-11T11:55:11Z</time>
      </trkpt>
      <trkpt lat="42.68127" lon="1.39469">
        <ele>2451.800049</ele>
        <time>2017-10-11T11:55:35Z</time>
      </trkpt>
      <trkpt lat="42.68138" lon="1.39471">
        <ele>2451</ele>
        <time>2017-10-11T11:55:50Z</time>
      </trkpt>
      <trkpt lat="42.68147" lon="1.39468">
        <ele>2445</ele>
        <time>2017-10-11T11:56:17Z</time>
      </trkpt>
      <trkpt lat="42.68159" lon="1.39465">
        <ele>2440.800049</ele>
        <time>2017-10-11T11:56:39Z</time>
      </trkpt>
      <trkpt lat="42.68168" lon="1.39463">
        <ele>2435.300049</ele>
        <time>2017-10-11T11:56:54Z</time>
      </trkpt>
      <trkpt lat="42.68175" lon="1.39452">
        <ele>2430</ele>
        <time>2017-10-11T11:57:02Z</time>
      </trkpt>
      <trkpt lat="42.68181" lon="1.39443">
        <ele>2422.600098</ele>
        <time>2017-10-11T11:57:17Z</time>
      </trkpt>
      <trkpt lat="42.68182" lon="1.39427">
        <ele>2415.100098</ele>
        <time>2017-10-11T11:57:37Z</time>
      </trkpt>
      <trkpt lat="42.68181" lon="1.39414">
        <ele>2409.100098</ele>
        <time>2017-10-11T11:57:44Z</time>
      </trkpt>
      <trkpt lat="42.68177" lon="1.39403">
        <ele>2405</ele>
        <time>2017-10-11T11:58:01Z</time>
      </trkpt>
      <trkpt lat="42.68182" lon="1.39415">
        <ele>2405.899902</ele>
        <time>2017-10-11T11:58:46Z</time>
      </trkpt>
      <trkpt lat="42.68191" lon="1.39419">
        <ele>2405.399902</ele>
        <time>2017-10-11T11:58:56Z</time>
      </trkpt>
      <trkpt lat="42.68201" lon="1.39418">
        <ele>2405.199951</ele>
        <time>2017-10-11T11:59:18Z</time>
      </trkpt>
      <trkpt lat="42.6821" lon="1.39422">
        <ele>2403</ele>
        <time>2017-10-11T11:59:26Z</time>
      </trkpt>
      <trkpt lat="42.68218" lon="1.39416">
        <ele>2400.399902</ele>
        <time>2017-10-11T11:59:32Z</time>
      </trkpt>
      <trkpt lat="42.68227" lon="1.39421">
        <ele>2398.800049</ele>
        <time>2017-10-11T11:59:40Z</time>
      </trkpt>
      <trkpt lat="42.68218" lon="1.39417">
        <ele>2397.300049</ele>
        <time>2017-10-11T11:59:58Z</time>
      </trkpt>
      <trkpt lat="42.68221" lon="1.39429">
        <ele>2401.399902</ele>
        <time>2017-10-11T12:00:28Z</time>
      </trkpt>
      <trkpt lat="42.68207" lon="1.39436">
        <ele>2407.699951</ele>
        <time>2017-10-11T12:00:43Z</time>
      </trkpt>
      <trkpt lat="42.68216" lon="1.39438">
        <ele>2410.800049</ele>
        <time>2017-10-11T12:01:33Z</time>
      </trkpt>
      <trkpt lat="42.68225" lon="1.39439">
        <ele>2408.399902</ele>
        <time>2017-10-11T12:01:44Z</time>
      </trkpt>
      <trkpt lat="42.68235" lon="1.39444">
        <ele>2407.800049</ele>
        <time>2017-10-11T12:02:08Z</time>
      </trkpt>
      <trkpt lat="42.68243" lon="1.3945">
        <ele>2408</ele>
        <time>2017-10-11T12:02:20Z</time>
      </trkpt>
      <trkpt lat="42.68255" lon="1.39456">
        <ele>2410</ele>
        <time>2017-10-11T12:02:54Z</time>
      </trkpt>
      <trkpt lat="42.68265" lon="1.39454">
        <ele>2405.199951</ele>
        <time>2017-10-11T12:03:04Z</time>
      </trkpt>
      <trkpt lat="42.68275" lon="1.39453">
        <ele>2402.100098</ele>
        <time>2017-10-11T12:03:12Z</time>
      </trkpt>
      <trkpt lat="42.68284" lon="1.3945">
        <ele>2397.100098</ele>
        <time>2017-10-11T12:03:20Z</time>
      </trkpt>
      <trkpt lat="42.68293" lon="1.39442">
        <ele>2392</ele>
        <time>2017-10-11T12:03:27Z</time>
      </trkpt>
      <trkpt lat="42.68303" lon="1.39442">
        <ele>2387</ele>
        <time>2017-10-11T12:03:35Z</time>
      </trkpt>
      <trkpt lat="42.68313" lon="1.39442">
        <ele>2383.800049</ele>
        <time>2017-10-11T12:03:42Z</time>
      </trkpt>
      <trkpt lat="42.68322" lon="1.39438">
        <ele>2380.100098</ele>
        <time>2017-10-11T12:03:49Z</time>
      </trkpt>
      <trkpt lat="42.6833" lon="1.39445">
        <ele>2378</ele>
        <time>2017-10-11T12:03:57Z</time>
      </trkpt>
      <trkpt lat="42.68339" lon="1.39445">
        <ele>2375.100098</ele>
        <time>2017-10-11T12:04:09Z</time>
      </trkpt>
      <trkpt lat="42.68347" lon="1.39451">
        <ele>2374.800049</ele>
        <time>2017-10-11T12:04:23Z</time>
      </trkpt>
      <trkpt lat="42.68357" lon="1.39452">
        <ele>2372.600098</ele>
        <time>2017-10-11T12:04:57Z</time>
      </trkpt>
      <trkpt lat="42.68367" lon="1.39452">
        <ele>2369.300049</ele>
        <time>2017-10-11T12:05:09Z</time>
      </trkpt>
      <trkpt lat="42.68376" lon="1.39453">
        <ele>2367.5</ele>
        <time>2017-10-11T12:05:16Z</time>
      </trkpt>
      <trkpt lat="42.68385" lon="1.39458">
        <ele>2365.600098</ele>
        <time>2017-10-11T12:05:23Z</time>
      </trkpt>
      <trkpt lat="42.68386" lon="1.39473">
        <ele>2367.5</ele>
        <time>2017-10-11T12:05:26Z</time>
      </trkpt>
      <trkpt lat="42.68387" lon="1.39497">
        <ele>2375</ele>
        <time>2017-10-11T12:05:31Z</time>
      </trkpt>
      <trkpt lat="42.68393" lon="1.39507">
        <ele>2382.300049</ele>
        <time>2017-10-11T12:05:41Z</time>
      </trkpt>
      <trkpt lat="42.68401" lon="1.39512">
        <ele>2382.699951</ele>
        <time>2017-10-11T12:05:48Z</time>
      </trkpt>
      <trkpt lat="42.6841" lon="1.39518">
        <ele>2384.800049</ele>
        <time>2017-10-11T12:05:58Z</time>
      </trkpt>
      <trkpt lat="42.68418" lon="1.39512">
        <ele>2380.100098</ele>
        <time>2017-10-11T12:06:12Z</time>
      </trkpt>
      <trkpt lat="42.68427" lon="1.39516">
        <ele>2378.199951</ele>
        <time>2017-10-11T12:06:24Z</time>
      </trkpt>
      <trkpt lat="42.68436" lon="1.39521">
        <ele>2377.300049</ele>
        <time>2017-10-11T12:06:33Z</time>
      </trkpt>
      <trkpt lat="42.68443" lon="1.39528">
        <ele>2379</ele>
        <time>2017-10-11T12:06:39Z</time>
      </trkpt>
      <trkpt lat="42.68453" lon="1.39532">
        <ele>2378.399902</ele>
        <time>2017-10-11T12:06:54Z</time>
      </trkpt>
      <trkpt lat="42.68461" lon="1.39535">
        <ele>2377.899902</ele>
        <time>2017-10-11T12:07:04Z</time>
      </trkpt>
      <trkpt lat="42.68471" lon="1.39537">
        <ele>2376.399902</ele>
        <time>2017-10-11T12:07:15Z</time>
      </trkpt>
      <trkpt lat="42.68481" lon="1.39537">
        <ele>2373.100098</ele>
        <time>2017-10-11T12:07:25Z</time>
      </trkpt>
      <trkpt lat="42.68492" lon="1.39532">
        <ele>2370.399902</ele>
        <time>2017-10-11T12:07:31Z</time>
      </trkpt>
      <trkpt lat="42.68502" lon="1.39524">
        <ele>2366.5</ele>
        <time>2017-10-11T12:07:33Z</time>
      </trkpt>
      <trkpt lat="42.68512" lon="1.3952">
        <ele>2359.399902</ele>
        <time>2017-10-11T12:07:38Z</time>
      </trkpt>
      <trkpt lat="42.68521" lon="1.39519">
        <ele>2355.199951</ele>
        <time>2017-10-11T12:07:43Z</time>
      </trkpt>
      <trkpt lat="42.68529" lon="1.39527">
        <ele>2355.100098</ele>
        <time>2017-10-11T12:07:51Z</time>
      </trkpt>
      <trkpt lat="42.68537" lon="1.39535">
        <ele>2356.5</ele>
        <time>2017-10-11T12:08:03Z</time>
      </trkpt>
      <trkpt lat="42.68545" lon="1.39542">
        <ele>2358</ele>
        <time>2017-10-11T12:08:11Z</time>
      </trkpt>
      <trkpt lat="42.68554" lon="1.39543">
        <ele>2357</ele>
        <time>2017-10-11T12:08:20Z</time>
      </trkpt>
      <trkpt lat="42.68563" lon="1.39549">
        <ele>2356.800049</ele>
        <time>2017-10-11T12:08:34Z</time>
      </trkpt>
      <trkpt lat="42.6857" lon="1.39557">
        <ele>2359.399902</ele>
        <time>2017-10-11T12:08:42Z</time>
      </trkpt>
      <trkpt lat="42.68577" lon="1.39564">
        <ele>2361.899902</ele>
        <time>2017-10-11T12:08:54Z</time>
      </trkpt>
      <trkpt lat="42.68585" lon="1.39572">
        <ele>2364.100098</ele>
        <time>2017-10-11T12:09:06Z</time>
      </trkpt>
      <trkpt lat="42.68593" lon="1.39576">
        <ele>2364.800049</ele>
        <time>2017-10-11T12:09:18Z</time>
      </trkpt>
      <trkpt lat="42.68603" lon="1.39576">
        <ele>2363.399902</ele>
        <time>2017-10-11T12:09:29Z</time>
      </trkpt>
      <trkpt lat="42.68613" lon="1.39576">
        <ele>2361.100098</ele>
        <time>2017-10-11T12:09:39Z</time>
      </trkpt>
      <trkpt lat="42.6862" lon="1.39584">
        <ele>2362.5</ele>
        <time>2017-10-11T12:09:51Z</time>
      </trkpt>
      <trkpt lat="42.68629" lon="1.39587">
        <ele>2362.100098</ele>
        <time>2017-10-11T12:10:07Z</time>
      </trkpt>
      <trkpt lat="42.68639" lon="1.39585">
        <ele>2360</ele>
        <time>2017-10-11T12:10:16Z</time>
      </trkpt>
      <trkpt lat="42.68648" lon="1.39581">
        <ele>2356.800049</ele>
        <time>2017-10-11T12:10:27Z</time>
      </trkpt>
      <trkpt lat="42.68657" lon="1.39587">
        <ele>2355.600098</ele>
        <time>2017-10-11T12:10:36Z</time>
      </trkpt>
      <trkpt lat="42.68663" lon="1.39597">
        <ele>2355.399902</ele>
        <time>2017-10-11T12:10:45Z</time>
      </trkpt>
      <trkpt lat="42.68671" lon="1.39601">
        <ele>2354.300049</ele>
        <time>2017-10-11T12:10:55Z</time>
      </trkpt>
      <trkpt lat="42.6868" lon="1.39605">
        <ele>2352.600098</ele>
        <time>2017-10-11T12:11:09Z</time>
      </trkpt>
      <trkpt lat="42.68689" lon="1.39605">
        <ele>2350.199951</ele>
        <time>2017-10-11T12:11:21Z</time>
      </trkpt>
      <trkpt lat="42.68699" lon="1.39604">
        <ele>2347.5</ele>
        <time>2017-10-11T12:11:54Z</time>
      </trkpt>
      <trkpt lat="42.68707" lon="1.39608">
        <ele>2346</ele>
        <time>2017-10-11T12:12:06Z</time>
      </trkpt>
      <trkpt lat="42.68716" lon="1.39612">
        <ele>2343.899902</ele>
        <time>2017-10-11T12:12:17Z</time>
      </trkpt>
      <trkpt lat="42.68724" lon="1.39605">
        <ele>2341.199951</ele>
        <time>2017-10-11T12:12:38Z</time>
      </trkpt>
      <trkpt lat="42.68733" lon="1.39602">
        <ele>2338.899902</ele>
        <time>2017-10-11T12:12:55Z</time>
      </trkpt>
      <trkpt lat="42.68742" lon="1.396">
        <ele>2336.800049</ele>
        <time>2017-10-11T12:13:05Z</time>
      </trkpt>
      <trkpt lat="42.68751" lon="1.39597">
        <ele>2333.899902</ele>
        <time>2017-10-11T12:13:23Z</time>
      </trkpt>
      <trkpt lat="42.6876" lon="1.39604">
        <ele>2331.699951</ele>
        <time>2017-10-11T12:13:32Z</time>
      </trkpt>
      <trkpt lat="42.68769" lon="1.39602">
        <ele>2328</ele>
        <time>2017-10-11T12:13:44Z</time>
      </trkpt>
      <trkpt lat="42.68778" lon="1.39597">
        <ele>2324.199951</ele>
        <time>2017-10-11T12:14:04Z</time>
      </trkpt>
      <trkpt lat="42.68786" lon="1.39595">
        <ele>2321.199951</ele>
        <time>2017-10-11T12:14:16Z</time>
      </trkpt>
      <trkpt lat="42.68794" lon="1.39588">
        <ele>2318.199951</ele>
        <time>2017-10-11T12:14:35Z</time>
      </trkpt>
      <trkpt lat="42.68804" lon="1.39591">
        <ele>2315.100098</ele>
        <time>2017-10-11T12:14:46Z</time>
      </trkpt>
      <trkpt lat="42.68813" lon="1.39588">
        <ele>2311.5</ele>
        <time>2017-10-11T12:14:57Z</time>
      </trkpt>
      <trkpt lat="42.68822" lon="1.39586">
        <ele>2307.800049</ele>
        <time>2017-10-11T12:15:08Z</time>
      </trkpt>
      <trkpt lat="42.68831" lon="1.39589">
        <ele>2304.5</ele>
        <time>2017-10-11T12:15:24Z</time>
      </trkpt>
      <trkpt lat="42.6884" lon="1.39592">
        <ele>2300.199951</ele>
        <time>2017-10-11T12:15:41Z</time>
      </trkpt>
      <trkpt lat="42.68848" lon="1.39599">
        <ele>2296.600098</ele>
        <time>2017-10-11T12:15:55Z</time>
      </trkpt>
      <trkpt lat="42.68856" lon="1.3959">
        <ele>2291.800049</ele>
        <time>2017-10-11T12:16:16Z</time>
      </trkpt>
      <trkpt lat="42.68863" lon="1.3958">
        <ele>2287.300049</ele>
        <time>2017-10-11T12:16:28Z</time>
      </trkpt>
      <trkpt lat="42.68868" lon="1.3957">
        <ele>2282.5</ele>
        <time>2017-10-11T12:16:39Z</time>
      </trkpt>
      <trkpt lat="42.68876" lon="1.39563">
        <ele>2278</ele>
        <time>2017-10-11T12:16:48Z</time>
      </trkpt>
      <trkpt lat="42.68885" lon="1.3956">
        <ele>2273.600098</ele>
        <time>2017-10-11T12:16:57Z</time>
      </trkpt>
      <trkpt lat="42.68894" lon="1.39558">
        <ele>2268.800049</ele>
        <time>2017-10-11T12:17:16Z</time>
      </trkpt>
      <trkpt lat="42.68901" lon="1.39551">
        <ele>2265.699951</ele>
        <time>2017-10-11T12:17:29Z</time>
      </trkpt>
      <trkpt lat="42.68911" lon="1.39553">
        <ele>2262.300049</ele>
        <time>2017-10-11T12:17:43Z</time>
      </trkpt>
      <trkpt lat="42.6892" lon="1.39553">
        <ele>2259.100098</ele>
        <time>2017-10-11T12:17:52Z</time>
      </trkpt>
      <trkpt lat="42.68923" lon="1.39542">
        <ele>2257.800049</ele>
        <time>2017-10-11T12:18:07Z</time>
      </trkpt>
      <trkpt lat="42.68933" lon="1.39544">
        <ele>2255.399902</ele>
        <time>2017-10-11T12:18:22Z</time>
      </trkpt>
      <trkpt lat="42.68939" lon="1.39554">
        <ele>2252.399902</ele>
        <time>2017-10-11T12:18:33Z</time>
      </trkpt>
      <trkpt lat="42.68948" lon="1.39556">
        <ele>2249.800049</ele>
        <time>2017-10-11T12:18:41Z</time>
      </trkpt>
      <trkpt lat="42.68952" lon="1.39545">
        <ele>2248.100098</ele>
        <time>2017-10-11T12:18:55Z</time>
      </trkpt>
      <trkpt lat="42.6896" lon="1.39539">
        <ele>2246.5</ele>
        <time>2017-10-11T12:19:06Z</time>
      </trkpt>
      <trkpt lat="42.68968" lon="1.3953">
        <ele>2244.5</ele>
        <time>2017-10-11T12:19:18Z</time>
      </trkpt>
      <trkpt lat="42.68977" lon="1.39531">
        <ele>2242</ele>
        <time>2017-10-11T12:19:27Z</time>
      </trkpt>
      <trkpt lat="42.68986" lon="1.39532">
        <ele>2238.899902</ele>
        <time>2017-10-11T12:19:35Z</time>
      </trkpt>
      <trkpt lat="42.68996" lon="1.39535">
        <ele>2235.300049</ele>
        <time>2017-10-11T12:20:05Z</time>
      </trkpt>
      <trkpt lat="42.69002" lon="1.39526">
        <ele>2233.399902</ele>
        <time>2017-10-11T12:20:31Z</time>
      </trkpt>
      <trkpt lat="42.69009" lon="1.39517">
        <ele>2233</ele>
        <time>2017-10-11T12:20:40Z</time>
      </trkpt>
      <trkpt lat="42.69016" lon="1.3951">
        <ele>2231.899902</ele>
        <time>2017-10-11T12:20:48Z</time>
      </trkpt>
      <trkpt lat="42.69026" lon="1.39507">
        <ele>2229.899902</ele>
        <time>2017-10-11T12:20:57Z</time>
      </trkpt>
      <trkpt lat="42.69035" lon="1.39503">
        <ele>2227.300049</ele>
        <time>2017-10-11T12:21:09Z</time>
      </trkpt>
      <trkpt lat="42.69045" lon="1.39501">
        <ele>2225</ele>
        <time>2017-10-11T12:21:27Z</time>
      </trkpt>
      <trkpt lat="42.69054" lon="1.39497">
        <ele>2222.199951</ele>
        <time>2017-10-11T12:21:36Z</time>
      </trkpt>
      <trkpt lat="42.69058" lon="1.39486">
        <ele>2219.899902</ele>
        <time>2017-10-11T12:21:50Z</time>
      </trkpt>
      <trkpt lat="42.69067" lon="1.39484">
        <ele>2217.300049</ele>
        <time>2017-10-11T12:22:01Z</time>
      </trkpt>
      <trkpt lat="42.69074" lon="1.39493">
        <ele>2215.899902</ele>
        <time>2017-10-11T12:22:13Z</time>
      </trkpt>
      <trkpt lat="42.6908" lon="1.39502">
        <ele>2215.699951</ele>
        <time>2017-10-11T12:23:03Z</time>
      </trkpt>
      <trkpt lat="42.69089" lon="1.39505">
        <ele>2213</ele>
        <time>2017-10-11T12:23:21Z</time>
      </trkpt>
      <trkpt lat="42.69099" lon="1.39506">
        <ele>2208.899902</ele>
        <time>2017-10-11T12:23:31Z</time>
      </trkpt>
      <trkpt lat="42.69107" lon="1.39512">
        <ele>2205.300049</ele>
        <time>2017-10-11T12:23:40Z</time>
      </trkpt>
      <trkpt lat="42.69115" lon="1.39519">
        <ele>2201.300049</ele>
        <time>2017-10-11T12:23:59Z</time>
      </trkpt>
      <trkpt lat="42.69107" lon="1.39529">
        <ele>2203.199951</ele>
        <time>2017-10-11T12:24:27Z</time>
      </trkpt>
      <trkpt lat="42.69115" lon="1.39535">
        <ele>2203.399902</ele>
        <time>2017-10-11T12:24:39Z</time>
      </trkpt>
      <trkpt lat="42.69119" lon="1.39547">
        <ele>2202.300049</ele>
        <time>2017-10-11T12:24:57Z</time>
      </trkpt>
      <trkpt lat="42.69127" lon="1.39554">
        <ele>2199.5</ele>
        <time>2017-10-11T12:25:37Z</time>
      </trkpt>
      <trkpt lat="42.69129" lon="1.39566">
        <ele>2198.699951</ele>
        <time>2017-10-11T12:25:54Z</time>
      </trkpt>
      <trkpt lat="42.69136" lon="1.39574">
        <ele>2196.100098</ele>
        <time>2017-10-11T12:26:03Z</time>
      </trkpt>
      <trkpt lat="42.69138" lon="1.39587">
        <ele>2194.899902</ele>
        <time>2017-10-11T12:26:14Z</time>
      </trkpt>
      <trkpt lat="42.69141" lon="1.39599">
        <ele>2193.5</ele>
        <time>2017-10-11T12:26:23Z</time>
      </trkpt>
      <trkpt lat="42.6914" lon="1.39612">
        <ele>2193</ele>
        <time>2017-10-11T12:26:35Z</time>
      </trkpt>
      <trkpt lat="42.69138" lon="1.39624">
        <ele>2194.5</ele>
        <time>2017-10-11T12:27:04Z</time>
      </trkpt>
      <trkpt lat="42.69137" lon="1.39637">
        <ele>2194.600098</ele>
        <time>2017-10-11T12:27:19Z</time>
      </trkpt>
      <trkpt lat="42.69138" lon="1.3965">
        <ele>2194.100098</ele>
        <time>2017-10-11T12:27:33Z</time>
      </trkpt>
      <trkpt lat="42.69137" lon="1.39663">
        <ele>2194.100098</ele>
        <time>2017-10-11T12:27:56Z</time>
      </trkpt>
      <trkpt lat="42.69118" lon="1.39663">
        <ele>2200</ele>
        <time>2017-10-11T12:28:58Z</time>
      </trkpt>
      <trkpt lat="42.69137" lon="1.39663">
        <ele>2197</ele>
        <time>2017-10-11T12:30:29Z</time>
      </trkpt>
      <trkpt lat="42.69133" lon="1.39678">
        <ele>2195.899902</ele>
        <time>2017-10-11T12:50:49Z</time>
      </trkpt>
      <trkpt lat="42.69137" lon="1.39689">
        <ele>2192.300049</ele>
        <time>2017-10-11T12:51:02Z</time>
      </trkpt>
      <trkpt lat="42.69142" lon="1.39702">
        <ele>2189.600098</ele>
        <time>2017-10-11T12:51:06Z</time>
      </trkpt>
      <trkpt lat="42.69144" lon="1.39715">
        <ele>2185</ele>
        <time>2017-10-11T12:51:13Z</time>
      </trkpt>
      <trkpt lat="42.69137" lon="1.39725">
        <ele>2186.199951</ele>
        <time>2017-10-11T12:51:24Z</time>
      </trkpt>
      <trkpt lat="42.69132" lon="1.39739">
        <ele>2187.600098</ele>
        <time>2017-10-11T12:51:38Z</time>
      </trkpt>
      <trkpt lat="42.69131" lon="1.39751">
        <ele>2187.399902</ele>
        <time>2017-10-11T12:51:49Z</time>
      </trkpt>
      <trkpt lat="42.69132" lon="1.39765">
        <ele>2185.100098</ele>
        <time>2017-10-11T12:52:05Z</time>
      </trkpt>
      <trkpt lat="42.69133" lon="1.39778">
        <ele>2182</ele>
        <time>2017-10-11T12:52:26Z</time>
      </trkpt>
      <trkpt lat="42.69135" lon="1.3979">
        <ele>2178.100098</ele>
        <time>2017-10-11T12:52:45Z</time>
      </trkpt>
      <trkpt lat="42.69142" lon="1.39799">
        <ele>2171.600098</ele>
        <time>2017-10-11T12:53:08Z</time>
      </trkpt>
      <trkpt lat="42.69146" lon="1.3981">
        <ele>2167</ele>
        <time>2017-10-11T12:53:35Z</time>
      </trkpt>
      <trkpt lat="42.69151" lon="1.39821">
        <ele>2161.5</ele>
        <time>2017-10-11T12:53:49Z</time>
      </trkpt>
      <trkpt lat="42.69156" lon="1.39832">
        <ele>2156.100098</ele>
        <time>2017-10-11T12:53:58Z</time>
      </trkpt>
      <trkpt lat="42.69161" lon="1.39843">
        <ele>2150.800049</ele>
        <time>2017-10-11T12:54:08Z</time>
      </trkpt>
      <trkpt lat="42.69167" lon="1.39853">
        <ele>2144.100098</ele>
        <time>2017-10-11T12:54:21Z</time>
      </trkpt>
      <trkpt lat="42.6917" lon="1.39867">
        <ele>2139.300049</ele>
        <time>2017-10-11T12:54:31Z</time>
      </trkpt>
      <trkpt lat="42.6917" lon="1.3988">
        <ele>2136.300049</ele>
        <time>2017-10-11T12:54:40Z</time>
      </trkpt>
      <trkpt lat="42.69172" lon="1.39893">
        <ele>2132.5</ele>
        <time>2017-10-11T12:54:51Z</time>
      </trkpt>
      <trkpt lat="42.69175" lon="1.39905">
        <ele>2127.399902</ele>
        <time>2017-10-11T12:55:03Z</time>
      </trkpt>
      <trkpt lat="42.69177" lon="1.39917">
        <ele>2124.399902</ele>
        <time>2017-10-11T12:55:11Z</time>
      </trkpt>
      <trkpt lat="42.69177" lon="1.3993">
        <ele>2121.5</ele>
        <time>2017-10-11T12:55:21Z</time>
      </trkpt>
      <trkpt lat="42.6918" lon="1.39942">
        <ele>2117.300049</ele>
        <time>2017-10-11T12:55:32Z</time>
      </trkpt>
      <trkpt lat="42.69173" lon="1.39953">
        <ele>2117.899902</ele>
        <time>2017-10-11T12:55:37Z</time>
      </trkpt>
      <trkpt lat="42.69175" lon="1.39965">
        <ele>2115.199951</ele>
        <time>2017-10-11T12:55:56Z</time>
      </trkpt>
      <trkpt lat="42.6917" lon="1.39977">
        <ele>2115.699951</ele>
        <time>2017-10-11T12:56:04Z</time>
      </trkpt>
      <trkpt lat="42.69165" lon="1.39988">
        <ele>2117.399902</ele>
        <time>2017-10-11T12:56:14Z</time>
      </trkpt>
      <trkpt lat="42.69168" lon="1.40001">
        <ele>2114.899902</ele>
        <time>2017-10-11T12:56:23Z</time>
      </trkpt>
      <trkpt lat="42.69178" lon="1.39999">
        <ele>2108.899902</ele>
        <time>2017-10-11T12:56:36Z</time>
      </trkpt>
      <trkpt lat="42.69188" lon="1.4">
        <ele>2102.699951</ele>
        <time>2017-10-11T12:56:48Z</time>
      </trkpt>
      <trkpt lat="42.69189" lon="1.40013">
        <ele>2098.800049</ele>
        <time>2017-10-11T12:57:05Z</time>
      </trkpt>
      <trkpt lat="42.69184" lon="1.40024">
        <ele>2099.899902</ele>
        <time>2017-10-11T12:57:12Z</time>
      </trkpt>
      <trkpt lat="42.69192" lon="1.40031">
        <ele>2096.899902</ele>
        <time>2017-10-11T12:57:31Z</time>
      </trkpt>
      <trkpt lat="42.69201" lon="1.4003">
        <ele>2091.800049</ele>
        <time>2017-10-11T12:57:38Z</time>
      </trkpt>
      <trkpt lat="42.69209" lon="1.40037">
        <ele>2085.100098</ele>
        <time>2017-10-11T12:57:53Z</time>
      </trkpt>
      <trkpt lat="42.69219" lon="1.40035">
        <ele>2079.600098</ele>
        <time>2017-10-11T12:58:04Z</time>
      </trkpt>
      <trkpt lat="42.69216" lon="1.40048">
        <ele>2077.5</ele>
        <time>2017-10-11T12:58:14Z</time>
      </trkpt>
      <trkpt lat="42.69211" lon="1.40059">
        <ele>2079.899902</ele>
        <time>2017-10-11T12:58:19Z</time>
      </trkpt>
      <trkpt lat="42.69211" lon="1.40071">
        <ele>2080.800049</ele>
        <time>2017-10-11T12:58:28Z</time>
      </trkpt>
      <trkpt lat="42.69208" lon="1.40085">
        <ele>2079.800049</ele>
        <time>2017-10-11T12:58:34Z</time>
      </trkpt>
      <trkpt lat="42.69217" lon="1.40089">
        <ele>2076.699951</ele>
        <time>2017-10-11T12:58:43Z</time>
      </trkpt>
      <trkpt lat="42.69217" lon="1.40102">
        <ele>2074</ele>
        <time>2017-10-11T12:58:50Z</time>
      </trkpt>
      <trkpt lat="42.69215" lon="1.40114">
        <ele>2075.199951</ele>
        <time>2017-10-11T12:59:00Z</time>
      </trkpt>
      <trkpt lat="42.69218" lon="1.40126">
        <ele>2073.300049</ele>
        <time>2017-10-11T12:59:11Z</time>
      </trkpt>
      <trkpt lat="42.69223" lon="1.40137">
        <ele>2070.399902</ele>
        <time>2017-10-11T12:59:25Z</time>
      </trkpt>
      <trkpt lat="42.6923" lon="1.40145">
        <ele>2065.800049</ele>
        <time>2017-10-11T12:59:40Z</time>
      </trkpt>
      <trkpt lat="42.69239" lon="1.40149">
        <ele>2060.899902</ele>
        <time>2017-10-11T12:59:48Z</time>
      </trkpt>
      <trkpt lat="42.69245" lon="1.40158">
        <ele>2055.800049</ele>
        <time>2017-10-11T12:59:59Z</time>
      </trkpt>
      <trkpt lat="42.69244" lon="1.4017">
        <ele>2053.899902</ele>
        <time>2017-10-11T13:00:07Z</time>
      </trkpt>
      <trkpt lat="42.69252" lon="1.40176">
        <ele>2052.600098</ele>
        <time>2017-10-11T13:00:14Z</time>
      </trkpt>
      <trkpt lat="42.69261" lon="1.40182">
        <ele>2047.900024</ele>
        <time>2017-10-11T13:00:21Z</time>
      </trkpt>
      <trkpt lat="42.69269" lon="1.40189">
        <ele>2044.5</ele>
        <time>2017-10-11T13:00:26Z</time>
      </trkpt>
      <trkpt lat="42.69274" lon="1.402">
        <ele>2041.099976</ele>
        <time>2017-10-11T13:00:34Z</time>
      </trkpt>
      <trkpt lat="42.69283" lon="1.40206">
        <ele>2038.099976</ele>
        <time>2017-10-11T13:00:40Z</time>
      </trkpt>
      <trkpt lat="42.69292" lon="1.40204">
        <ele>2032.5</ele>
        <time>2017-10-11T13:01:03Z</time>
      </trkpt>
      <trkpt lat="42.69299" lon="1.40211">
        <ele>2028</ele>
        <time>2017-10-11T13:01:10Z</time>
      </trkpt>
      <trkpt lat="42.69308" lon="1.40213">
        <ele>2024.099976</ele>
        <time>2017-10-11T13:01:15Z</time>
      </trkpt>
      <trkpt lat="42.69317" lon="1.40214">
        <ele>2018.599976</ele>
        <time>2017-10-11T13:01:21Z</time>
      </trkpt>
      <trkpt lat="42.69327" lon="1.40215">
        <ele>2012.900024</ele>
        <time>2017-10-11T13:01:27Z</time>
      </trkpt>
      <trkpt lat="42.69336" lon="1.40216">
        <ele>2007.400024</ele>
        <time>2017-10-11T13:01:33Z</time>
      </trkpt>
      <trkpt lat="42.69346" lon="1.4022">
        <ele>2001</ele>
        <time>2017-10-11T13:01:40Z</time>
      </trkpt>
      <trkpt lat="42.69353" lon="1.4023">
        <ele>1996.300049</ele>
        <time>2017-10-11T13:01:47Z</time>
      </trkpt>
      <trkpt lat="42.6936" lon="1.40238">
        <ele>1992</ele>
        <time>2017-10-11T13:01:56Z</time>
      </trkpt>
      <trkpt lat="42.69369" lon="1.40243">
        <ele>1986.699951</ele>
        <time>2017-10-11T13:02:03Z</time>
      </trkpt>
      <trkpt lat="42.69375" lon="1.40253">
        <ele>1982.5</ele>
        <time>2017-10-11T13:02:10Z</time>
      </trkpt>
      <trkpt lat="42.69371" lon="1.40265">
        <ele>1984.300049</ele>
        <time>2017-10-11T13:02:19Z</time>
      </trkpt>
      <trkpt lat="42.69368" lon="1.40276">
        <ele>1989.300049</ele>
        <time>2017-10-11T13:02:33Z</time>
      </trkpt>
      <trkpt lat="42.69378" lon="1.40276">
        <ele>1985.099976</ele>
        <time>2017-10-11T13:02:48Z</time>
      </trkpt>
      <trkpt lat="42.69388" lon="1.40274">
        <ele>1978.5</ele>
        <time>2017-10-11T13:02:56Z</time>
      </trkpt>
      <trkpt lat="42.69397" lon="1.40277">
        <ele>1972.5</ele>
        <time>2017-10-11T13:03:09Z</time>
      </trkpt>
      <trkpt lat="42.69406" lon="1.40281">
        <ele>1966.400024</ele>
        <time>2017-10-11T13:03:23Z</time>
      </trkpt>
      <trkpt lat="42.69411" lon="1.40292">
        <ele>1963.099976</ele>
        <time>2017-10-11T13:03:39Z</time>
      </trkpt>
      <trkpt lat="42.69413" lon="1.40304">
        <ele>1963.699951</ele>
        <time>2017-10-11T13:03:48Z</time>
      </trkpt>
      <trkpt lat="42.69409" lon="1.40316">
        <ele>1966.400024</ele>
        <time>2017-10-11T13:03:54Z</time>
      </trkpt>
      <trkpt lat="42.69412" lon="1.40327">
        <ele>1967.800049</ele>
        <time>2017-10-11T13:04:00Z</time>
      </trkpt>
      <trkpt lat="42.6941" lon="1.40339">
        <ele>1970.900024</ele>
        <time>2017-10-11T13:04:12Z</time>
      </trkpt>
      <trkpt lat="42.69406" lon="1.4035">
        <ele>1974.800049</ele>
        <time>2017-10-11T13:04:28Z</time>
      </trkpt>
      <trkpt lat="42.69405" lon="1.40363">
        <ele>1977.800049</ele>
        <time>2017-10-11T13:04:38Z</time>
      </trkpt>
      <trkpt lat="42.69402" lon="1.40375">
        <ele>1981.699951</ele>
        <time>2017-10-11T13:04:51Z</time>
      </trkpt>
      <trkpt lat="42.69404" lon="1.40388">
        <ele>1983.5</ele>
        <time>2017-10-11T13:05:04Z</time>
      </trkpt>
      <trkpt lat="42.69413" lon="1.4039">
        <ele>1979.800049</ele>
        <time>2017-10-11T13:05:16Z</time>
      </trkpt>
      <trkpt lat="42.69412" lon="1.40403">
        <ele>1980.699951</ele>
        <time>2017-10-11T13:05:26Z</time>
      </trkpt>
      <trkpt lat="42.69418" lon="1.40414">
        <ele>1980.900024</ele>
        <time>2017-10-11T13:05:48Z</time>
      </trkpt>
      <trkpt lat="42.69419" lon="1.40426">
        <ele>1983.800049</ele>
        <time>2017-10-11T13:06:06Z</time>
      </trkpt>
      <trkpt lat="42.69426" lon="1.40434">
        <ele>1982.300049</ele>
        <time>2017-10-11T13:06:15Z</time>
      </trkpt>
      <trkpt lat="42.69433" lon="1.40443">
        <ele>1981.300049</ele>
        <time>2017-10-11T13:06:26Z</time>
      </trkpt>
      <trkpt lat="42.69439" lon="1.40453">
        <ele>1980.199951</ele>
        <time>2017-10-11T13:06:35Z</time>
      </trkpt>
      <trkpt lat="42.69443" lon="1.40466">
        <ele>1981.099976</ele>
        <time>2017-10-11T13:06:44Z</time>
      </trkpt>
      <trkpt lat="42.69449" lon="1.40477">
        <ele>1981.699951</ele>
        <time>2017-10-11T13:06:52Z</time>
      </trkpt>
      <trkpt lat="42.69457" lon="1.40483">
        <ele>1979.400024</ele>
        <time>2017-10-11T13:07:02Z</time>
      </trkpt>
      <trkpt lat="42.69463" lon="1.40493">
        <ele>1978.599976</ele>
        <time>2017-10-11T13:07:11Z</time>
      </trkpt>
      <trkpt lat="42.69472" lon="1.405">
        <ele>1976.900024</ele>
        <time>2017-10-11T13:07:20Z</time>
      </trkpt>
      <trkpt lat="42.69478" lon="1.4051">
        <ele>1973.900024</ele>
        <time>2017-10-11T13:07:28Z</time>
      </trkpt>
      <trkpt lat="42.69488" lon="1.40512">
        <ele>1970</ele>
        <time>2017-10-11T13:07:35Z</time>
      </trkpt>
      <trkpt lat="42.69497" lon="1.40516">
        <ele>1965</ele>
        <time>2017-10-11T13:07:45Z</time>
      </trkpt>
      <trkpt lat="42.69506" lon="1.40516">
        <ele>1960.599976</ele>
        <time>2017-10-11T13:07:55Z</time>
      </trkpt>
      <trkpt lat="42.69515" lon="1.40521">
        <ele>1957.300049</ele>
        <time>2017-10-11T13:08:12Z</time>
      </trkpt>
      <trkpt lat="42.69521" lon="1.4053">
        <ele>1955.5</ele>
        <time>2017-10-11T13:08:30Z</time>
      </trkpt>
      <trkpt lat="42.69531" lon="1.40531">
        <ele>1952.599976</ele>
        <time>2017-10-11T13:08:43Z</time>
      </trkpt>
      <trkpt lat="42.6954" lon="1.40532">
        <ele>1949.099976</ele>
        <time>2017-10-11T13:08:53Z</time>
      </trkpt>
      <trkpt lat="42.69549" lon="1.40534">
        <ele>1945.800049</ele>
        <time>2017-10-11T13:09:23Z</time>
      </trkpt>
      <trkpt lat="42.69559" lon="1.40535">
        <ele>1942.599976</ele>
        <time>2017-10-11T13:09:40Z</time>
      </trkpt>
      <trkpt lat="42.69568" lon="1.40533">
        <ele>1939.300049</ele>
        <time>2017-10-11T13:09:50Z</time>
      </trkpt>
      <trkpt lat="42.69558" lon="1.40534">
        <ele>1940.300049</ele>
        <time>2017-10-11T13:09:52Z</time>
      </trkpt>
      <trkpt lat="42.69565" lon="1.40542">
        <ele>1940.699951</ele>
        <time>2017-10-11T13:10:27Z</time>
      </trkpt>
      <trkpt lat="42.69574" lon="1.40543">
        <ele>1937.699951</ele>
        <time>2017-10-11T13:10:51Z</time>
      </trkpt>
      <trkpt lat="42.69573" lon="1.40531">
        <ele>1936.599976</ele>
        <time>2017-10-11T13:11:07Z</time>
      </trkpt>
      <trkpt lat="42.69582" lon="1.4053">
        <ele>1933.5</ele>
        <time>2017-10-11T13:11:16Z</time>
      </trkpt>
      <trkpt lat="42.6959" lon="1.4054">
        <ele>1931.800049</ele>
        <time>2017-10-11T13:11:26Z</time>
      </trkpt>
      <trkpt lat="42.69598" lon="1.40546">
        <ele>1931.099976</ele>
        <time>2017-10-11T13:11:45Z</time>
      </trkpt>
      <trkpt lat="42.69601" lon="1.40534">
        <ele>1929.099976</ele>
        <time>2017-10-11T13:12:11Z</time>
      </trkpt>
      <trkpt lat="42.69608" lon="1.40527">
        <ele>1926.300049</ele>
        <time>2017-10-11T13:12:26Z</time>
      </trkpt>
      <trkpt lat="42.69616" lon="1.40535">
        <ele>1925.900024</ele>
        <time>2017-10-11T13:12:34Z</time>
      </trkpt>
      <trkpt lat="42.69624" lon="1.40546">
        <ele>1925.699951</ele>
        <time>2017-10-11T13:12:43Z</time>
      </trkpt>
      <trkpt lat="42.69632" lon="1.40555">
        <ele>1926.199951</ele>
        <time>2017-10-11T13:12:51Z</time>
      </trkpt>
      <trkpt lat="42.6964" lon="1.40561">
        <ele>1926.199951</ele>
        <time>2017-10-11T13:12:59Z</time>
      </trkpt>
      <trkpt lat="42.69649" lon="1.40559">
        <ele>1924</ele>
        <time>2017-10-11T13:13:19Z</time>
      </trkpt>
      <trkpt lat="42.69644" lon="1.4057">
        <ele>1926.199951</ele>
        <time>2017-10-11T13:13:31Z</time>
      </trkpt>
      <trkpt lat="42.6964" lon="1.40582">
        <ele>1929.599976</ele>
        <time>2017-10-11T13:13:42Z</time>
      </trkpt>
      <trkpt lat="42.69634" lon="1.40592">
        <ele>1931.400024</ele>
        <time>2017-10-11T13:13:49Z</time>
      </trkpt>
      <trkpt lat="42.6963" lon="1.40603">
        <ele>1932.599976</ele>
        <time>2017-10-11T13:13:56Z</time>
      </trkpt>
      <trkpt lat="42.69629" lon="1.40616">
        <ele>1933.599976</ele>
        <time>2017-10-11T13:14:04Z</time>
      </trkpt>
      <trkpt lat="42.6963" lon="1.40629">
        <ele>1934.099976</ele>
        <time>2017-10-11T13:14:14Z</time>
      </trkpt>
      <trkpt lat="42.69626" lon="1.40639">
        <ele>1935.199951</ele>
        <time>2017-10-11T13:14:23Z</time>
      </trkpt>
      <trkpt lat="42.69628" lon="1.40652">
        <ele>1935.800049</ele>
        <time>2017-10-11T13:14:36Z</time>
      </trkpt>
      <trkpt lat="42.69636" lon="1.40658">
        <ele>1935</ele>
        <time>2017-10-11T13:16:15Z</time>
      </trkpt>
      <trkpt lat="42.69642" lon="1.40667">
        <ele>1934.199951</ele>
        <time>2017-10-11T13:16:27Z</time>
      </trkpt>
      <trkpt lat="42.69652" lon="1.40668">
        <ele>1932.800049</ele>
        <time>2017-10-11T13:16:47Z</time>
      </trkpt>
      <trkpt lat="42.6966" lon="1.40673">
        <ele>1931.400024</ele>
        <time>2017-10-11T13:16:59Z</time>
      </trkpt>
      <trkpt lat="42.69667" lon="1.40682">
        <ele>1929.900024</ele>
        <time>2017-10-11T13:17:19Z</time>
      </trkpt>
      <trkpt lat="42.69675" lon="1.40689">
        <ele>1925.599976</ele>
        <time>2017-10-11T13:17:28Z</time>
      </trkpt>
      <trkpt lat="42.69682" lon="1.40699">
        <ele>1921</ele>
        <time>2017-10-11T13:17:36Z</time>
      </trkpt>
      <trkpt lat="42.69688" lon="1.40709">
        <ele>1917.5</ele>
        <time>2017-10-11T13:17:45Z</time>
      </trkpt>
      <trkpt lat="42.69691" lon="1.40722">
        <ele>1916.699951</ele>
        <time>2017-10-11T13:17:54Z</time>
      </trkpt>
      <trkpt lat="42.69693" lon="1.40735">
        <ele>1916.800049</ele>
        <time>2017-10-11T13:18:04Z</time>
      </trkpt>
      <trkpt lat="42.69693" lon="1.40747">
        <ele>1917.699951</ele>
        <time>2017-10-11T13:18:12Z</time>
      </trkpt>
      <trkpt lat="42.69697" lon="1.4076">
        <ele>1917.599976</ele>
        <time>2017-10-11T13:18:21Z</time>
      </trkpt>
      <trkpt lat="42.697" lon="1.40772">
        <ele>1917.300049</ele>
        <time>2017-10-11T13:18:28Z</time>
      </trkpt>
      <trkpt lat="42.69704" lon="1.40783">
        <ele>1917.099976</ele>
        <time>2017-10-11T13:18:36Z</time>
      </trkpt>
      <trkpt lat="42.69711" lon="1.40793">
        <ele>1915.699951</ele>
        <time>2017-10-11T13:18:45Z</time>
      </trkpt>
      <trkpt lat="42.69721" lon="1.40795">
        <ele>1913.099976</ele>
        <time>2017-10-11T13:18:56Z</time>
      </trkpt>
      <trkpt lat="42.6973" lon="1.40792">
        <ele>1909.400024</ele>
        <time>2017-10-11T13:19:04Z</time>
      </trkpt>
      <trkpt lat="42.6974" lon="1.40793">
        <ele>1905.599976</ele>
        <time>2017-10-11T13:19:15Z</time>
      </trkpt>
      <trkpt lat="42.69747" lon="1.40801">
        <ele>1903.900024</ele>
        <time>2017-10-11T13:19:24Z</time>
      </trkpt>
      <trkpt lat="42.69756" lon="1.408">
        <ele>1900.300049</ele>
        <time>2017-10-11T13:19:32Z</time>
      </trkpt>
      <trkpt lat="42.69766" lon="1.40801">
        <ele>1895.5</ele>
        <time>2017-10-11T13:19:41Z</time>
      </trkpt>
      <trkpt lat="42.69775" lon="1.40801">
        <ele>1891.199951</ele>
        <time>2017-10-11T13:19:49Z</time>
      </trkpt>
      <trkpt lat="42.69785" lon="1.40802">
        <ele>1886.199951</ele>
        <time>2017-10-11T13:19:58Z</time>
      </trkpt>
      <trkpt lat="42.69794" lon="1.40797">
        <ele>1881.300049</ele>
        <time>2017-10-11T13:20:07Z</time>
      </trkpt>
      <trkpt lat="42.69802" lon="1.40792">
        <ele>1875.800049</ele>
        <time>2017-10-11T13:20:16Z</time>
      </trkpt>
      <trkpt lat="42.6981" lon="1.40786">
        <ele>1870.099976</ele>
        <time>2017-10-11T13:20:30Z</time>
      </trkpt>
      <trkpt lat="42.69817" lon="1.40778">
        <ele>1864.599976</ele>
        <time>2017-10-11T13:20:47Z</time>
      </trkpt>
      <trkpt lat="42.69826" lon="1.40775">
        <ele>1859.599976</ele>
        <time>2017-10-11T13:21:00Z</time>
      </trkpt>
      <trkpt lat="42.69833" lon="1.40767">
        <ele>1854.400024</ele>
        <time>2017-10-11T13:21:12Z</time>
      </trkpt>
      <trkpt lat="42.69843" lon="1.40765">
        <ele>1850.300049</ele>
        <time>2017-10-11T13:21:27Z</time>
      </trkpt>
      <trkpt lat="42.69852" lon="1.40761">
        <ele>1846.599976</ele>
        <time>2017-10-11T13:21:47Z</time>
      </trkpt>
      <trkpt lat="42.69861" lon="1.40758">
        <ele>1843.5</ele>
        <time>2017-10-11T13:21:59Z</time>
      </trkpt>
      <trkpt lat="42.69871" lon="1.40754">
        <ele>1840.099976</ele>
        <time>2017-10-11T13:22:11Z</time>
      </trkpt>
      <trkpt lat="42.6988" lon="1.40757">
        <ele>1837.599976</ele>
        <time>2017-10-11T13:22:20Z</time>
      </trkpt>
      <trkpt lat="42.69889" lon="1.40761">
        <ele>1836</ele>
        <time>2017-10-11T13:22:30Z</time>
      </trkpt>
      <trkpt lat="42.69898" lon="1.40759">
        <ele>1832.900024</ele>
        <time>2017-10-11T13:22:58Z</time>
      </trkpt>
      <trkpt lat="42.69905" lon="1.4075">
        <ele>1829.199951</ele>
        <time>2017-10-11T13:23:17Z</time>
      </trkpt>
      <trkpt lat="42.69912" lon="1.40742">
        <ele>1825.599976</ele>
        <time>2017-10-11T13:23:32Z</time>
      </trkpt>
      <trkpt lat="42.69919" lon="1.40732">
        <ele>1822.699951</ele>
        <time>2017-10-11T13:23:40Z</time>
      </trkpt>
      <trkpt lat="42.69928" lon="1.40728">
        <ele>1820</ele>
        <time>2017-10-11T13:23:47Z</time>
      </trkpt>
      <trkpt lat="42.69937" lon="1.40724">
        <ele>1817.199951</ele>
        <time>2017-10-11T13:23:54Z</time>
      </trkpt>
      <trkpt lat="42.69947" lon="1.40726">
        <ele>1815.199951</ele>
        <time>2017-10-11T13:24:02Z</time>
      </trkpt>
      <trkpt lat="42.69954" lon="1.40718">
        <ele>1811.300049</ele>
        <time>2017-10-11T13:24:14Z</time>
      </trkpt>
      <trkpt lat="42.69962" lon="1.40711">
        <ele>1807.599976</ele>
        <time>2017-10-11T13:24:23Z</time>
      </trkpt>
      <trkpt lat="42.6997" lon="1.40705">
        <ele>1803.199951</ele>
        <time>2017-10-11T13:24:37Z</time>
      </trkpt>
      <trkpt lat="42.69979" lon="1.40703">
        <ele>1799.5</ele>
        <time>2017-10-11T13:24:49Z</time>
      </trkpt>
      <trkpt lat="42.69988" lon="1.40699">
        <ele>1795.300049</ele>
        <time>2017-10-11T13:24:59Z</time>
      </trkpt>
      <trkpt lat="42.69995" lon="1.4069">
        <ele>1789.199951</ele>
        <time>2017-10-11T13:25:11Z</time>
      </trkpt>
      <trkpt lat="42.70003" lon="1.40683">
        <ele>1782.5</ele>
        <time>2017-10-11T13:25:23Z</time>
      </trkpt>
      <trkpt lat="42.70011" lon="1.40675">
        <ele>1775.599976</ele>
        <time>2017-10-11T13:25:36Z</time>
      </trkpt>
      <trkpt lat="42.70019" lon="1.40669">
        <ele>1768.199951</ele>
        <time>2017-10-11T13:25:45Z</time>
      </trkpt>
      <trkpt lat="42.7002" lon="1.40656">
        <ele>1763.400024</ele>
        <time>2017-10-11T13:25:58Z</time>
      </trkpt>
      <trkpt lat="42.70029" lon="1.40653">
        <ele>1759.300049</ele>
        <time>2017-10-11T13:26:07Z</time>
      </trkpt>
      <trkpt lat="42.70033" lon="1.40641">
        <ele>1753.300049</ele>
        <time>2017-10-11T13:26:26Z</time>
      </trkpt>
      <trkpt lat="42.7003" lon="1.40629">
        <ele>1752.5</ele>
        <time>2017-10-11T13:26:36Z</time>
      </trkpt>
      <trkpt lat="42.7003" lon="1.40616">
        <ele>1750.400024</ele>
        <time>2017-10-11T13:26:48Z</time>
      </trkpt>
      <trkpt lat="42.70027" lon="1.40604">
        <ele>1749.099976</ele>
        <time>2017-10-11T13:27:02Z</time>
      </trkpt>
      <trkpt lat="42.7003" lon="1.40593">
        <ele>1746.5</ele>
        <time>2017-10-11T13:27:18Z</time>
      </trkpt>
      <trkpt lat="42.7004" lon="1.4059">
        <ele>1740.400024</ele>
        <time>2017-10-11T13:27:26Z</time>
      </trkpt>
      <trkpt lat="42.70049" lon="1.40591">
        <ele>1733.199951</ele>
        <time>2017-10-11T13:27:35Z</time>
      </trkpt>
      <trkpt lat="42.70057" lon="1.40597">
        <ele>1728</ele>
        <time>2017-10-11T13:27:46Z</time>
      </trkpt>
      <trkpt lat="42.70065" lon="1.40606">
        <ele>1725.800049</ele>
        <time>2017-10-11T13:27:54Z</time>
      </trkpt>
      <trkpt lat="42.70072" lon="1.40613">
        <ele>1722.5</ele>
        <time>2017-10-11T13:28:11Z</time>
      </trkpt>
      <trkpt lat="42.7008" lon="1.4062">
        <ele>1720.400024</ele>
        <time>2017-10-11T13:28:21Z</time>
      </trkpt>
      <trkpt lat="42.70088" lon="1.40628">
        <ele>1718.800049</ele>
        <time>2017-10-11T13:28:30Z</time>
      </trkpt>
      <trkpt lat="42.70097" lon="1.40632">
        <ele>1717</ele>
        <time>2017-10-11T13:28:53Z</time>
      </trkpt>
      <trkpt lat="42.70107" lon="1.40638">
        <ele>1716</ele>
        <time>2017-10-11T13:29:07Z</time>
      </trkpt>
      <trkpt lat="42.70114" lon="1.40646">
        <ele>1715</ele>
        <time>2017-10-11T13:29:15Z</time>
      </trkpt>
      <trkpt lat="42.70122" lon="1.40652">
        <ele>1713.599976</ele>
        <time>2017-10-11T13:29:31Z</time>
      </trkpt>
      <trkpt lat="42.70132" lon="1.40651">
        <ele>1710.5</ele>
        <time>2017-10-11T13:29:48Z</time>
      </trkpt>
      <trkpt lat="42.70141" lon="1.40647">
        <ele>1706.099976</ele>
        <time>2017-10-11T13:30:17Z</time>
      </trkpt>
      <trkpt lat="42.70147" lon="1.40638">
        <ele>1701.300049</ele>
        <time>2017-10-11T13:30:39Z</time>
      </trkpt>
      <trkpt lat="42.70158" lon="1.4064">
        <ele>1698.099976</ele>
        <time>2017-10-11T13:30:52Z</time>
      </trkpt>
      <trkpt lat="42.70166" lon="1.40647">
        <ele>1696.300049</ele>
        <time>2017-10-11T13:31:05Z</time>
      </trkpt>
      <trkpt lat="42.70175" lon="1.40646">
        <ele>1693.300049</ele>
        <time>2017-10-11T13:31:21Z</time>
      </trkpt>
      <trkpt lat="42.70184" lon="1.40645">
        <ele>1689.900024</ele>
        <time>2017-10-11T13:31:30Z</time>
      </trkpt>
      <trkpt lat="42.70194" lon="1.40645">
        <ele>1686</ele>
        <time>2017-10-11T13:31:41Z</time>
      </trkpt>
      <trkpt lat="42.70203" lon="1.40645">
        <ele>1682.400024</ele>
        <time>2017-10-11T13:31:51Z</time>
      </trkpt>
      <trkpt lat="42.70211" lon="1.40639">
        <ele>1677.900024</ele>
        <time>2017-10-11T13:32:03Z</time>
      </trkpt>
      <trkpt lat="42.7022" lon="1.40636">
        <ele>1674.300049</ele>
        <time>2017-10-11T13:32:12Z</time>
      </trkpt>
      <trkpt lat="42.70228" lon="1.40629">
        <ele>1670.5</ele>
        <time>2017-10-11T13:32:21Z</time>
      </trkpt>
      <trkpt lat="42.70229" lon="1.40616">
        <ele>1667.400024</ele>
        <time>2017-10-11T13:32:37Z</time>
      </trkpt>
      <trkpt lat="42.70231" lon="1.40602">
        <ele>1664.800049</ele>
        <time>2017-10-11T13:32:48Z</time>
      </trkpt>
      <trkpt lat="42.70232" lon="1.40589">
        <ele>1662.599976</ele>
        <time>2017-10-11T13:32:56Z</time>
      </trkpt>
      <trkpt lat="42.70232" lon="1.40576">
        <ele>1659.599976</ele>
        <time>2017-10-11T13:33:07Z</time>
      </trkpt>
      <trkpt lat="42.70236" lon="1.40563">
        <ele>1655.400024</ele>
        <time>2017-10-11T13:33:21Z</time>
      </trkpt>
      <trkpt lat="42.70245" lon="1.40561">
        <ele>1651.099976</ele>
        <time>2017-10-11T13:33:36Z</time>
      </trkpt>
      <trkpt lat="42.70253" lon="1.40566">
        <ele>1649.599976</ele>
        <time>2017-10-11T13:33:45Z</time>
      </trkpt>
      <trkpt lat="42.70261" lon="1.40573">
        <ele>1647.300049</ele>
        <time>2017-10-11T13:33:52Z</time>
      </trkpt>
      <trkpt lat="42.70269" lon="1.40579">
        <ele>1644.800049</ele>
        <time>2017-10-11T13:34:03Z</time>
      </trkpt>
      <trkpt lat="42.70279" lon="1.40576">
        <ele>1639.099976</ele>
        <time>2017-10-11T13:34:16Z</time>
      </trkpt>
      <trkpt lat="42.70288" lon="1.40579">
        <ele>1634.800049</ele>
        <time>2017-10-11T13:34:25Z</time>
      </trkpt>
      <trkpt lat="42.70297" lon="1.40578">
        <ele>1629.300049</ele>
        <time>2017-10-11T13:34:37Z</time>
      </trkpt>
      <trkpt lat="42.70307" lon="1.40575">
        <ele>1624</ele>
        <time>2017-10-11T13:34:48Z</time>
      </trkpt>
      <trkpt lat="42.70316" lon="1.40574">
        <ele>1617.099976</ele>
        <time>2017-10-11T13:35:03Z</time>
      </trkpt>
      <trkpt lat="42.70326" lon="1.40576">
        <ele>1613.300049</ele>
        <time>2017-10-11T13:35:12Z</time>
      </trkpt>
      <trkpt lat="42.70335" lon="1.40579">
        <ele>1608.599976</ele>
        <time>2017-10-11T13:35:23Z</time>
      </trkpt>
      <trkpt lat="42.70344" lon="1.4058">
        <ele>1604.099976</ele>
        <time>2017-10-11T13:35:32Z</time>
      </trkpt>
      <trkpt lat="42.70352" lon="1.40586">
        <ele>1599.800049</ele>
        <time>2017-10-11T13:35:44Z</time>
      </trkpt>
      <trkpt lat="42.70361" lon="1.4059">
        <ele>1596</ele>
        <time>2017-10-11T13:35:53Z</time>
      </trkpt>
      <trkpt lat="42.70369" lon="1.40597">
        <ele>1592.300049</ele>
        <time>2017-10-11T13:36:01Z</time>
      </trkpt>
      <trkpt lat="42.70378" lon="1.40604">
        <ele>1588.400024</ele>
        <time>2017-10-11T13:36:11Z</time>
      </trkpt>
      <trkpt lat="42.70387" lon="1.40606">
        <ele>1583.400024</ele>
        <time>2017-10-11T13:36:24Z</time>
      </trkpt>
      <trkpt lat="42.70395" lon="1.40613">
        <ele>1579.300049</ele>
        <time>2017-10-11T13:36:37Z</time>
      </trkpt>
      <trkpt lat="42.70404" lon="1.40619">
        <ele>1576.300049</ele>
        <time>2017-10-11T13:36:50Z</time>
      </trkpt>
      <trkpt lat="42.70411" lon="1.40627">
        <ele>1573.199951</ele>
        <time>2017-10-11T13:37:00Z</time>
      </trkpt>
      <trkpt lat="42.70421" lon="1.40629">
        <ele>1568.900024</ele>
        <time>2017-10-11T13:37:17Z</time>
      </trkpt>
      <trkpt lat="42.7043" lon="1.40635">
        <ele>1563.800049</ele>
        <time>2017-10-11T13:37:29Z</time>
      </trkpt>
      <trkpt lat="42.70432" lon="1.40647">
        <ele>1563.599976</ele>
        <time>2017-10-11T13:37:42Z</time>
      </trkpt>
      <trkpt lat="42.70441" lon="1.40649">
        <ele>1560.099976</ele>
        <time>2017-10-11T13:37:59Z</time>
      </trkpt>
      <trkpt lat="42.70449" lon="1.40656">
        <ele>1557</ele>
        <time>2017-10-11T13:38:13Z</time>
      </trkpt>
      <trkpt lat="42.70461" lon="1.40653">
        <ele>1550.800049</ele>
        <time>2017-10-11T13:38:29Z</time>
      </trkpt>
      <trkpt lat="42.70467" lon="1.40645">
        <ele>1544</ele>
        <time>2017-10-11T13:38:42Z</time>
      </trkpt>
      <trkpt lat="42.70474" lon="1.40635">
        <ele>1538</ele>
        <time>2017-10-11T13:38:52Z</time>
      </trkpt>
      <trkpt lat="42.7048" lon="1.40643">
        <ele>1534.099976</ele>
        <time>2017-10-11T13:39:06Z</time>
      </trkpt>
      <trkpt lat="42.70489" lon="1.40649">
        <ele>1531.900024</ele>
        <time>2017-10-11T13:39:22Z</time>
      </trkpt>
      <trkpt lat="42.70498" lon="1.40651">
        <ele>1526.900024</ele>
        <time>2017-10-11T13:39:38Z</time>
      </trkpt>
      <trkpt lat="42.70502" lon="1.40662">
        <ele>1526.400024</ele>
        <time>2017-10-11T13:39:51Z</time>
      </trkpt>
      <trkpt lat="42.70511" lon="1.40659">
        <ele>1520.300049</ele>
        <time>2017-10-11T13:40:14Z</time>
      </trkpt>
      <trkpt lat="42.70521" lon="1.40655">
        <ele>1513</ele>
        <time>2017-10-11T13:40:26Z</time>
      </trkpt>
      <trkpt lat="42.70528" lon="1.40663">
        <ele>1508.800049</ele>
        <time>2017-10-11T13:40:37Z</time>
      </trkpt>
      <trkpt lat="42.70532" lon="1.40674">
        <ele>1507.5</ele>
        <time>2017-10-11T13:40:51Z</time>
      </trkpt>
      <trkpt lat="42.70537" lon="1.40684">
        <ele>1505.5</ele>
        <time>2017-10-11T13:41:02Z</time>
      </trkpt>
      <trkpt lat="42.70543" lon="1.40696">
        <ele>1502.199951</ele>
        <time>2017-10-11T13:41:12Z</time>
      </trkpt>
      <trkpt lat="42.70544" lon="1.40709">
        <ele>1501.900024</ele>
        <time>2017-10-11T13:41:21Z</time>
      </trkpt>
      <trkpt lat="42.70546" lon="1.40721">
        <ele>1502.199951</ele>
        <time>2017-10-11T13:41:31Z</time>
      </trkpt>
      <trkpt lat="42.70549" lon="1.40733">
        <ele>1502.900024</ele>
        <time>2017-10-11T13:41:50Z</time>
      </trkpt>
      <trkpt lat="42.70559" lon="1.40735">
        <ele>1498.300049</ele>
        <time>2017-10-11T13:41:59Z</time>
      </trkpt>
      <trkpt lat="42.70567" lon="1.40743">
        <ele>1494.900024</ele>
        <time>2017-10-11T13:42:06Z</time>
      </trkpt>
      <trkpt lat="42.70568" lon="1.40755">
        <ele>1494.099976</ele>
        <time>2017-10-11T13:42:20Z</time>
      </trkpt>
      <trkpt lat="42.70572" lon="1.40766">
        <ele>1492.199951</ele>
        <time>2017-10-11T13:42:33Z</time>
      </trkpt>
      <trkpt lat="42.70577" lon="1.40778">
        <ele>1489.699951</ele>
        <time>2017-10-11T13:42:45Z</time>
      </trkpt>
      <trkpt lat="42.70579" lon="1.40792">
        <ele>1488.199951</ele>
        <time>2017-10-11T13:42:54Z</time>
      </trkpt>
      <trkpt lat="42.7058" lon="1.40805">
        <ele>1487.400024</ele>
        <time>2017-10-11T13:43:04Z</time>
      </trkpt>
      <trkpt lat="42.70589" lon="1.4081">
        <ele>1482.699951</ele>
        <time>2017-10-11T13:43:24Z</time>
      </trkpt>
      <trkpt lat="42.70598" lon="1.40804">
        <ele>1476.400024</ele>
        <time>2017-10-11T13:43:34Z</time>
      </trkpt>
      <trkpt lat="42.70605" lon="1.40797">
        <ele>1470.300049</ele>
        <time>2017-10-11T13:43:46Z</time>
      </trkpt>
      <trkpt lat="42.70614" lon="1.40793">
        <ele>1462.699951</ele>
        <time>2017-10-11T13:43:56Z</time>
      </trkpt>
      <trkpt lat="42.70623" lon="1.40796">
        <ele>1455</ele>
        <time>2017-10-11T13:44:06Z</time>
      </trkpt>
      <trkpt lat="42.70632" lon="1.408">
        <ele>1447.699951</ele>
        <time>2017-10-11T13:44:16Z</time>
      </trkpt>
      <trkpt lat="42.7064" lon="1.40806">
        <ele>1441.199951</ele>
        <time>2017-10-11T13:44:30Z</time>
      </trkpt>
      <trkpt lat="42.70646" lon="1.40815">
        <ele>1436.900024</ele>
        <time>2017-10-11T13:44:41Z</time>
      </trkpt>
      <trkpt lat="42.70652" lon="1.40825">
        <ele>1432.699951</ele>
        <time>2017-10-11T13:44:55Z</time>
      </trkpt>
      <trkpt lat="42.70654" lon="1.40838">
        <ele>1431.099976</ele>
        <time>2017-10-11T13:45:04Z</time>
      </trkpt>
      <trkpt lat="42.70657" lon="1.4085">
        <ele>1430.400024</ele>
        <time>2017-10-11T13:45:11Z</time>
      </trkpt>
      <trkpt lat="42.70663" lon="1.40861">
        <ele>1427</ele>
        <time>2017-10-11T13:45:24Z</time>
      </trkpt>
      <trkpt lat="42.70662" lon="1.40873">
        <ele>1427.400024</ele>
        <time>2017-10-11T13:45:46Z</time>
      </trkpt>
      <trkpt lat="42.70664" lon="1.40886">
        <ele>1427</ele>
        <time>2017-10-11T13:45:58Z</time>
      </trkpt>
      <trkpt lat="42.70662" lon="1.40899">
        <ele>1427.900024</ele>
        <time>2017-10-11T13:46:08Z</time>
      </trkpt>
      <trkpt lat="42.70665" lon="1.40911">
        <ele>1427.099976</ele>
        <time>2017-10-11T13:46:22Z</time>
      </trkpt>
      <trkpt lat="42.70662" lon="1.40923">
        <ele>1427.800049</ele>
        <time>2017-10-11T13:46:27Z</time>
      </trkpt>
      <trkpt lat="42.70662" lon="1.40936">
        <ele>1428</ele>
        <time>2017-10-11T13:46:47Z</time>
      </trkpt>
      <trkpt lat="42.70662" lon="1.4095">
        <ele>1426.199951</ele>
        <time>2017-10-11T13:46:59Z</time>
      </trkpt>
      <trkpt lat="42.70658" lon="1.40962">
        <ele>1426.5</ele>
        <time>2017-10-11T13:47:05Z</time>
      </trkpt>
      <trkpt lat="42.7066" lon="1.40976">
        <ele>1425.300049</ele>
        <time>2017-10-11T13:47:17Z</time>
      </trkpt>
      <trkpt lat="42.70662" lon="1.40989">
        <ele>1423.300049</ele>
        <time>2017-10-11T13:47:28Z</time>
      </trkpt>
      <trkpt lat="42.70657" lon="1.41">
        <ele>1424.400024</ele>
        <time>2017-10-11T13:47:50Z</time>
      </trkpt>
      <trkpt lat="42.70662" lon="1.4101">
        <ele>1421.300049</ele>
        <time>2017-10-11T13:47:59Z</time>
      </trkpt>
      <trkpt lat="42.70671" lon="1.41012">
        <ele>1413.699951</ele>
        <time>2017-10-11T13:48:15Z</time>
      </trkpt>
      <trkpt lat="42.70677" lon="1.41022">
        <ele>1407</ele>
        <time>2017-10-11T13:48:25Z</time>
      </trkpt>
      <trkpt lat="42.70685" lon="1.41029">
        <ele>1397.900024</ele>
        <time>2017-10-11T13:48:41Z</time>
      </trkpt>
      <trkpt lat="42.7069" lon="1.41041">
        <ele>1390.300049</ele>
        <time>2017-10-11T13:48:59Z</time>
      </trkpt>
      <trkpt lat="42.70693" lon="1.41053">
        <ele>1387.5</ele>
        <time>2017-10-11T13:49:02Z</time>
      </trkpt>
      <trkpt lat="42.70696" lon="1.41065">
        <ele>1381.300049</ele>
        <time>2017-10-11T13:49:10Z</time>
      </trkpt>
      <trkpt lat="42.707" lon="1.41077">
        <ele>1376.199951</ele>
        <time>2017-10-11T13:49:18Z</time>
      </trkpt>
      <trkpt lat="42.70705" lon="1.41089">
        <ele>1370.400024</ele>
        <time>2017-10-11T13:49:25Z</time>
      </trkpt>
      <trkpt lat="42.70708" lon="1.41101">
        <ele>1364.599976</ele>
        <time>2017-10-11T13:49:35Z</time>
      </trkpt>
      <trkpt lat="42.70708" lon="1.41114">
        <ele>1362</ele>
        <time>2017-10-11T13:49:42Z</time>
      </trkpt>
      <trkpt lat="42.70711" lon="1.41127">
        <ele>1357</ele>
        <time>2017-10-11T13:49:50Z</time>
      </trkpt>
      <trkpt lat="42.70712" lon="1.41139">
        <ele>1353</ele>
        <time>2017-10-11T13:49:58Z</time>
      </trkpt>
      <trkpt lat="42.70715" lon="1.41152">
        <ele>1348.300049</ele>
        <time>2017-10-11T13:50:06Z</time>
      </trkpt>
      <trkpt lat="42.70716" lon="1.41167">
        <ele>1343.199951</ele>
        <time>2017-10-11T13:50:15Z</time>
      </trkpt>
      <trkpt lat="42.70714" lon="1.41179">
        <ele>1342.300049</ele>
        <time>2017-10-11T13:50:21Z</time>
      </trkpt>
      <trkpt lat="42.70712" lon="1.41192">
        <ele>1341.5</ele>
        <time>2017-10-11T13:50:27Z</time>
      </trkpt>
      <trkpt lat="42.7071" lon="1.41204">
        <ele>1341.099976</ele>
        <time>2017-10-11T13:50:38Z</time>
      </trkpt>
      <trkpt lat="42.7071" lon="1.41217">
        <ele>1339.800049</ele>
        <time>2017-10-11T13:50:45Z</time>
      </trkpt>
      <trkpt lat="42.70706" lon="1.4123">
        <ele>1339.5</ele>
        <time>2017-10-11T13:50:55Z</time>
      </trkpt>
      <trkpt lat="42.70703" lon="1.41242">
        <ele>1340.5</ele>
        <time>2017-10-11T13:51:03Z</time>
      </trkpt>
      <trkpt lat="42.70703" lon="1.41255">
        <ele>1339.900024</ele>
        <time>2017-10-11T13:51:11Z</time>
      </trkpt>
      <trkpt lat="42.70701" lon="1.41267">
        <ele>1339.699951</ele>
        <time>2017-10-11T13:51:17Z</time>
      </trkpt>
      <trkpt lat="42.70698" lon="1.4128">
        <ele>1338.900024</ele>
        <time>2017-10-11T13:51:25Z</time>
      </trkpt>
      <trkpt lat="42.70696" lon="1.41294">
        <ele>1340.400024</ele>
        <time>2017-10-11T13:51:32Z</time>
      </trkpt>
      <trkpt lat="42.70694" lon="1.41306">
        <ele>1341.199951</ele>
        <time>2017-10-11T13:51:40Z</time>
      </trkpt>
      <trkpt lat="42.70695" lon="1.41319">
        <ele>1338.699951</ele>
        <time>2017-10-11T13:51:48Z</time>
      </trkpt>
      <trkpt lat="42.707" lon="1.41331">
        <ele>1333.599976</ele>
        <time>2017-10-11T13:51:57Z</time>
      </trkpt>
      <trkpt lat="42.70698" lon="1.41343">
        <ele>1331.199951</ele>
        <time>2017-10-11T13:52:07Z</time>
      </trkpt>
      <trkpt lat="42.70694" lon="1.41356">
        <ele>1332.599976</ele>
        <time>2017-10-11T13:52:19Z</time>
      </trkpt>
      <trkpt lat="42.70691" lon="1.4137">
        <ele>1333.099976</ele>
        <time>2017-10-11T13:52:24Z</time>
      </trkpt>
      <trkpt lat="42.70692" lon="1.41384">
        <ele>1331.300049</ele>
        <time>2017-10-11T13:52:29Z</time>
      </trkpt>
      <trkpt lat="42.70695" lon="1.41397">
        <ele>1327</ele>
        <time>2017-10-11T13:52:36Z</time>
      </trkpt>
      <trkpt lat="42.70693" lon="1.41409">
        <ele>1324.599976</ele>
        <time>2017-10-11T13:52:44Z</time>
      </trkpt>
      <trkpt lat="42.70693" lon="1.41423">
        <ele>1323.5</ele>
        <time>2017-10-11T13:52:53Z</time>
      </trkpt>
      <trkpt lat="42.70689" lon="1.41434">
        <ele>1323.900024</ele>
        <time>2017-10-11T13:53:01Z</time>
      </trkpt>
      <trkpt lat="42.70685" lon="1.41446">
        <ele>1325.5</ele>
        <time>2017-10-11T13:53:08Z</time>
      </trkpt>
      <trkpt lat="42.70684" lon="1.41458">
        <ele>1326.199951</ele>
        <time>2017-10-11T13:53:14Z</time>
      </trkpt>
      <trkpt lat="42.70684" lon="1.41471">
        <ele>1324.400024</ele>
        <time>2017-10-11T13:53:23Z</time>
      </trkpt>
      <trkpt lat="42.70686" lon="1.41484">
        <ele>1322.5</ele>
        <time>2017-10-11T13:53:33Z</time>
      </trkpt>
      <trkpt lat="42.70685" lon="1.41497">
        <ele>1320.5</ele>
        <time>2017-10-11T13:53:43Z</time>
      </trkpt>
      <trkpt lat="42.70684" lon="1.4151">
        <ele>1320.5</ele>
        <time>2017-10-11T13:53:52Z</time>
      </trkpt>
      <trkpt lat="42.70675" lon="1.41516">
        <ele>1324.099976</ele>
        <time>2017-10-11T13:54:01Z</time>
      </trkpt>
      <trkpt lat="42.70666" lon="1.41521">
        <ele>1332.300049</ele>
        <time>2017-10-11T13:54:14Z</time>
      </trkpt>
      <trkpt lat="42.70668" lon="1.41533">
        <ele>1331.5</ele>
        <time>2017-10-11T13:54:24Z</time>
      </trkpt>
      <trkpt lat="42.70668" lon="1.41546">
        <ele>1330.099976</ele>
        <time>2017-10-11T13:54:35Z</time>
      </trkpt>
      <trkpt lat="42.70671" lon="1.41559">
        <ele>1327.099976</ele>
        <time>2017-10-11T13:54:43Z</time>
      </trkpt>
      <trkpt lat="42.70675" lon="1.4157">
        <ele>1322.599976</ele>
        <time>2017-10-11T13:54:52Z</time>
      </trkpt>
      <trkpt lat="42.70678" lon="1.41582">
        <ele>1319.099976</ele>
        <time>2017-10-11T13:55:02Z</time>
      </trkpt>
      <trkpt lat="42.70687" lon="1.41587">
        <ele>1313</ele>
        <time>2017-10-11T13:55:12Z</time>
      </trkpt>
      <trkpt lat="42.7069" lon="1.416">
        <ele>1309.199951</ele>
        <time>2017-10-11T13:55:21Z</time>
      </trkpt>
      <trkpt lat="42.70692" lon="1.41613">
        <ele>1306.800049</ele>
        <time>2017-10-11T13:55:30Z</time>
      </trkpt>
      <trkpt lat="42.70695" lon="1.41625">
        <ele>1304.5</ele>
        <time>2017-10-11T13:55:39Z</time>
      </trkpt>
      <trkpt lat="42.70697" lon="1.41638">
        <ele>1301.699951</ele>
        <time>2017-10-11T13:55:51Z</time>
      </trkpt>
      <trkpt lat="42.707" lon="1.4165">
        <ele>1299.400024</ele>
        <time>2017-10-11T13:56:01Z</time>
      </trkpt>
      <trkpt lat="42.70699" lon="1.41662">
        <ele>1299.300049</ele>
        <time>2017-10-11T13:56:11Z</time>
      </trkpt>
      <trkpt lat="42.70702" lon="1.41674">
        <ele>1297.400024</ele>
        <time>2017-10-11T13:56:20Z</time>
      </trkpt>
      <trkpt lat="42.70703" lon="1.41686">
        <ele>1295.800049</ele>
        <time>2017-10-11T13:56:28Z</time>
      </trkpt>
      <trkpt lat="42.70704" lon="1.41701">
        <ele>1295.5</ele>
        <time>2017-10-11T13:56:43Z</time>
      </trkpt>
      <trkpt lat="42.70711" lon="1.41708">
        <ele>1292</ele>
        <time>2017-10-11T13:56:49Z</time>
      </trkpt>
      <trkpt lat="42.70719" lon="1.41716">
        <ele>1287.099976</ele>
        <time>2017-10-11T13:56:59Z</time>
      </trkpt>
      <trkpt lat="42.70723" lon="1.41698">
        <ele>1283.599976</ele>
        <time>2017-10-11T13:57:25Z</time>
      </trkpt>
      <trkpt lat="42.70727" lon="1.41687">
        <ele>1282.099976</ele>
        <time>2017-10-11T13:57:35Z</time>
      </trkpt>
      <trkpt lat="42.70734" lon="1.41675">
        <ele>1279.400024</ele>
        <time>2017-10-11T13:57:48Z</time>
      </trkpt>
      <trkpt lat="42.70743" lon="1.41669">
        <ele>1274.300049</ele>
        <time>2017-10-11T13:57:58Z</time>
      </trkpt>
      <trkpt lat="42.70749" lon="1.41661">
        <ele>1270.699951</ele>
        <time>2017-10-11T13:58:05Z</time>
      </trkpt>
      <trkpt lat="42.70754" lon="1.41649">
        <ele>1267.900024</ele>
        <time>2017-10-11T13:58:13Z</time>
      </trkpt>
      <trkpt lat="42.7076" lon="1.41638">
        <ele>1265.099976</ele>
        <time>2017-10-11T13:58:27Z</time>
      </trkpt>
      <trkpt lat="42.70769" lon="1.41634">
        <ele>1262.300049</ele>
        <time>2017-10-11T13:58:35Z</time>
      </trkpt>
      <trkpt lat="42.70776" lon="1.41625">
        <ele>1260.199951</ele>
        <time>2017-10-11T13:58:41Z</time>
      </trkpt>
      <trkpt lat="42.70785" lon="1.41619">
        <ele>1256.699951</ele>
        <time>2017-10-11T13:58:51Z</time>
      </trkpt>
      <trkpt lat="42.7079" lon="1.41608">
        <ele>1254.5</ele>
        <time>2017-10-11T13:59:00Z</time>
      </trkpt>
      <trkpt lat="42.70799" lon="1.41609">
        <ele>1252</ele>
        <time>2017-10-11T13:59:07Z</time>
      </trkpt>
      <trkpt lat="42.70808" lon="1.41614">
        <ele>1249.300049</ele>
        <time>2017-10-11T13:59:15Z</time>
      </trkpt>
      <trkpt lat="42.70817" lon="1.41609">
        <ele>1245.699951</ele>
        <time>2017-10-11T13:59:32Z</time>
      </trkpt>
      <trkpt lat="42.70821" lon="1.41598">
        <ele>1244.099976</ele>
        <time>2017-10-11T13:59:49Z</time>
      </trkpt>
      <trkpt lat="42.70821" lon="1.41585">
        <ele>1243.900024</ele>
        <time>2017-10-11T14:00:01Z</time>
      </trkpt>
      <trkpt lat="42.70828" lon="1.41575">
        <ele>1242.800049</ele>
        <time>2017-10-11T14:00:20Z</time>
      </trkpt>
      <trkpt lat="42.70833" lon="1.41563">
        <ele>1242.599976</ele>
        <time>2017-10-11T14:00:37Z</time>
      </trkpt>
      <trkpt lat="42.70837" lon="1.41552">
        <ele>1244.400024</ele>
        <time>2017-10-11T14:00:46Z</time>
      </trkpt>
      <trkpt lat="42.70834" lon="1.41539">
        <ele>1245.099976</ele>
        <time>2017-10-11T14:00:53Z</time>
      </trkpt>
      <trkpt lat="42.70843" lon="1.41533">
        <ele>1248.300049</ele>
        <time>2017-10-11T14:01:07Z</time>
      </trkpt>
      <trkpt lat="42.70853" lon="1.41536">
        <ele>1252.300049</ele>
        <time>2017-10-11T14:01:16Z</time>
      </trkpt>
      <trkpt lat="42.70862" lon="1.41532">
        <ele>1256.599976</ele>
        <time>2017-10-11T14:01:28Z</time>
      </trkpt>
      <trkpt lat="42.70872" lon="1.41532">
        <ele>1260.199951</ele>
        <time>2017-10-11T14:01:36Z</time>
      </trkpt>
      <trkpt lat="42.70882" lon="1.41531">
        <ele>1264.5</ele>
        <time>2017-10-11T14:01:45Z</time>
      </trkpt>
      <trkpt lat="42.70891" lon="1.41529">
        <ele>1269.300049</ele>
        <time>2017-10-11T14:01:55Z</time>
      </trkpt>
      <trkpt lat="42.70898" lon="1.41538">
        <ele>1272.400024</ele>
        <time>2017-10-11T14:03:04Z</time>
      </trkpt>
      <trkpt lat="42.70901" lon="1.4155">
        <ele>1274</ele>
        <time>2017-10-11T14:03:15Z</time>
      </trkpt>
      <trkpt lat="42.70901" lon="1.41564">
        <ele>1274.300049</ele>
        <time>2017-10-11T14:03:28Z</time>
      </trkpt>
      <trkpt lat="42.709" lon="1.41577">
        <ele>1273.699951</ele>
        <time>2017-10-11T14:03:33Z</time>
      </trkpt>
      <trkpt lat="42.70899" lon="1.4159">
        <ele>1273</ele>
        <time>2017-10-11T14:03:40Z</time>
      </trkpt>
      <trkpt lat="42.70902" lon="1.41602">
        <ele>1274.300049</ele>
        <time>2017-10-11T14:03:47Z</time>
      </trkpt>
      <trkpt lat="42.70905" lon="1.41614">
        <ele>1275.900024</ele>
        <time>2017-10-11T14:03:55Z</time>
      </trkpt>
      <trkpt lat="42.70904" lon="1.41626">
        <ele>1276.800049</ele>
        <time>2017-10-11T14:04:05Z</time>
      </trkpt>
      <trkpt lat="42.70906" lon="1.41639">
        <ele>1277.5</ele>
        <time>2017-10-11T14:04:13Z</time>
      </trkpt>
      <trkpt lat="42.70911" lon="1.41651">
        <ele>1279.699951</ele>
        <time>2017-10-11T14:04:20Z</time>
      </trkpt>
      <trkpt lat="42.70913" lon="1.41665">
        <ele>1281.5</ele>
        <time>2017-10-11T14:04:27Z</time>
      </trkpt>
      <trkpt lat="42.70913" lon="1.41677">
        <ele>1280.900024</ele>
        <time>2017-10-11T14:04:33Z</time>
      </trkpt>
      <trkpt lat="42.70912" lon="1.4169">
        <ele>1278</ele>
        <time>2017-10-11T14:04:40Z</time>
      </trkpt>
      <trkpt lat="42.70912" lon="1.41703">
        <ele>1275.599976</ele>
        <time>2017-10-11T14:04:49Z</time>
      </trkpt>
      <trkpt lat="42.70914" lon="1.41715">
        <ele>1274.5</ele>
        <time>2017-10-11T14:05:00Z</time>
      </trkpt>
      <trkpt lat="42.70913" lon="1.41727">
        <ele>1272.300049</ele>
        <time>2017-10-11T14:05:12Z</time>
      </trkpt>
      <trkpt lat="42.70918" lon="1.41739">
        <ele>1271.900024</ele>
        <time>2017-10-11T14:05:23Z</time>
      </trkpt>
      <trkpt lat="42.70921" lon="1.41752">
        <ele>1272.099976</ele>
        <time>2017-10-11T14:05:36Z</time>
      </trkpt>
      <trkpt lat="42.70923" lon="1.41765">
        <ele>1272.699951</ele>
        <time>2017-10-11T14:05:42Z</time>
      </trkpt>
      <trkpt lat="42.70926" lon="1.41777">
        <ele>1274.5</ele>
        <time>2017-10-11T14:05:58Z</time>
      </trkpt>
      <trkpt lat="42.70927" lon="1.4179">
        <ele>1274.300049</ele>
        <time>2017-10-11T14:06:08Z</time>
      </trkpt>
      <trkpt lat="42.70928" lon="1.41805">
        <ele>1274.099976</ele>
        <time>2017-10-11T14:06:15Z</time>
      </trkpt>
      <trkpt lat="42.70929" lon="1.41817">
        <ele>1274.900024</ele>
        <time>2017-10-11T14:06:25Z</time>
      </trkpt>
      <trkpt lat="42.7093" lon="1.4183">
        <ele>1274.199951</ele>
        <time>2017-10-11T14:06:34Z</time>
      </trkpt>
      <trkpt lat="42.70933" lon="1.41842">
        <ele>1275.300049</ele>
        <time>2017-10-11T14:06:40Z</time>
      </trkpt>
      <trkpt lat="42.70932" lon="1.41855">
        <ele>1275.400024</ele>
        <time>2017-10-11T14:06:49Z</time>
      </trkpt>
      <trkpt lat="42.70934" lon="1.41868">
        <ele>1275.099976</ele>
        <time>2017-10-11T14:06:56Z</time>
      </trkpt>
      <trkpt lat="42.70937" lon="1.41881">
        <ele>1276.300049</ele>
        <time>2017-10-11T14:07:09Z</time>
      </trkpt>
      <trkpt lat="42.70939" lon="1.41894">
        <ele>1277.699951</ele>
        <time>2017-10-11T14:07:17Z</time>
      </trkpt>
      <trkpt lat="42.7094" lon="1.41906">
        <ele>1278.800049</ele>
        <time>2017-10-11T14:07:33Z</time>
      </trkpt>
      <trkpt lat="42.7094" lon="1.41919">
        <ele>1277.800049</ele>
        <time>2017-10-11T14:07:45Z</time>
      </trkpt>
      <trkpt lat="42.7094" lon="1.41932">
        <ele>1277.599976</ele>
        <time>2017-10-11T14:07:54Z</time>
      </trkpt>
      <trkpt lat="42.70934" lon="1.41944">
        <ele>1274.599976</ele>
        <time>2017-10-11T14:08:03Z</time>
      </trkpt>
      <trkpt lat="42.70927" lon="1.41952">
        <ele>1268.800049</ele>
        <time>2017-10-11T14:08:11Z</time>
      </trkpt>
      <trkpt lat="42.70922" lon="1.41963">
        <ele>1263.900024</ele>
        <time>2017-10-11T14:08:21Z</time>
      </trkpt>
      <trkpt lat="42.7092" lon="1.41976">
        <ele>1261.699951</ele>
        <time>2017-10-11T14:08:28Z</time>
      </trkpt>
      <trkpt lat="42.70918" lon="1.4199">
        <ele>1259.599976</ele>
        <time>2017-10-11T14:08:34Z</time>
      </trkpt>
      <trkpt lat="42.70916" lon="1.42003">
        <ele>1257</ele>
        <time>2017-10-11T14:08:43Z</time>
      </trkpt>
      <trkpt lat="42.70917" lon="1.42015">
        <ele>1256.199951</ele>
        <time>2017-10-11T14:08:48Z</time>
      </trkpt>
      <trkpt lat="42.70917" lon="1.42028">
        <ele>1255.699951</ele>
        <time>2017-10-11T14:08:54Z</time>
      </trkpt>
      <trkpt lat="42.7092" lon="1.42045">
        <ele>1255.5</ele>
        <time>2017-10-11T14:09:01Z</time>
      </trkpt>
      <trkpt lat="42.70924" lon="1.42056">
        <ele>1257.300049</ele>
        <time>2017-10-11T14:09:05Z</time>
      </trkpt>
      <trkpt lat="42.70926" lon="1.42068">
        <ele>1259.099976</ele>
        <time>2017-10-11T14:09:15Z</time>
      </trkpt>
      <trkpt lat="42.7093" lon="1.42079">
        <ele>1260.699951</ele>
        <time>2017-10-11T14:09:25Z</time>
      </trkpt>
      <trkpt lat="42.70935" lon="1.42091">
        <ele>1262.699951</ele>
        <time>2017-10-11T14:09:32Z</time>
      </trkpt>
      <trkpt lat="42.7094" lon="1.42102">
        <ele>1264.300049</ele>
        <time>2017-10-11T14:09:42Z</time>
      </trkpt>
      <trkpt lat="42.70941" lon="1.42116">
        <ele>1263.400024</ele>
        <time>2017-10-11T14:09:51Z</time>
      </trkpt>
      <trkpt lat="42.70944" lon="1.42128">
        <ele>1262.400024</ele>
        <time>2017-10-11T14:10:04Z</time>
      </trkpt>
      <trkpt lat="42.70947" lon="1.42141">
        <ele>1262.099976</ele>
        <time>2017-10-11T14:10:16Z</time>
      </trkpt>
      <trkpt lat="42.70949" lon="1.42154">
        <ele>1261.199951</ele>
        <time>2017-10-11T14:10:25Z</time>
      </trkpt>
      <trkpt lat="42.70949" lon="1.42167">
        <ele>1258.800049</ele>
        <time>2017-10-11T14:10:32Z</time>
      </trkpt>
      <trkpt lat="42.7095" lon="1.4218">
        <ele>1256.5</ele>
        <time>2017-10-11T14:10:39Z</time>
      </trkpt>
      <trkpt lat="42.70953" lon="1.42192">
        <ele>1255.400024</ele>
        <time>2017-10-11T14:10:46Z</time>
      </trkpt>
      <trkpt lat="42.70951" lon="1.42205">
        <ele>1252.800049</ele>
        <time>2017-10-11T14:10:52Z</time>
      </trkpt>
      <trkpt lat="42.70951" lon="1.42218">
        <ele>1249.199951</ele>
        <time>2017-10-11T14:10:58Z</time>
      </trkpt>
      <trkpt lat="42.70955" lon="1.4223">
        <ele>1247.900024</ele>
        <time>2017-10-11T14:11:06Z</time>
      </trkpt>
      <trkpt lat="42.70957" lon="1.42244">
        <ele>1245.800049</ele>
        <time>2017-10-11T14:11:12Z</time>
      </trkpt>
      <trkpt lat="42.70963" lon="1.42253">
        <ele>1246.800049</ele>
        <time>2017-10-11T14:11:19Z</time>
      </trkpt>
      <trkpt lat="42.70964" lon="1.42267">
        <ele>1245.400024</ele>
        <time>2017-10-11T14:11:33Z</time>
      </trkpt>
      <trkpt lat="42.70963" lon="1.42285">
        <ele>1242.099976</ele>
        <time>2017-10-11T14:11:42Z</time>
      </trkpt>
      <trkpt lat="42.70963" lon="1.42297">
        <ele>1238.800049</ele>
        <time>2017-10-11T14:11:48Z</time>
      </trkpt>
      <trkpt lat="42.70959" lon="1.42309">
        <ele>1234.099976</ele>
        <time>2017-10-11T14:12:01Z</time>
      </trkpt>
      <trkpt lat="42.70966" lon="1.42321">
        <ele>1232.900024</ele>
        <time>2017-10-11T14:12:09Z</time>
      </trkpt>
      <trkpt lat="42.70971" lon="1.42331">
        <ele>1234.099976</ele>
        <time>2017-10-11T14:12:15Z</time>
      </trkpt>
      <trkpt lat="42.70974" lon="1.42344">
        <ele>1232.699951</ele>
        <time>2017-10-11T14:12:26Z</time>
      </trkpt>
      <trkpt lat="42.70979" lon="1.42357">
        <ele>1233</ele>
        <time>2017-10-11T14:12:38Z</time>
      </trkpt>
      <trkpt lat="42.70982" lon="1.4237">
        <ele>1231.5</ele>
        <time>2017-10-11T14:12:46Z</time>
      </trkpt>
      <trkpt lat="42.70985" lon="1.42382">
        <ele>1230.400024</ele>
        <time>2017-10-11T14:12:50Z</time>
      </trkpt>
      <trkpt lat="42.70993" lon="1.42391">
        <ele>1230.300049</ele>
        <time>2017-10-11T14:12:54Z</time>
      </trkpt>
      <trkpt lat="42.70998" lon="1.42402">
        <ele>1230.5</ele>
        <time>2017-10-11T14:13:02Z</time>
      </trkpt>
      <trkpt lat="42.71004" lon="1.42413">
        <ele>1230.400024</ele>
        <time>2017-10-11T14:13:11Z</time>
      </trkpt>
      <trkpt lat="42.71009" lon="1.42424">
        <ele>1231</ele>
        <time>2017-10-11T14:13:19Z</time>
      </trkpt>
      <trkpt lat="42.71014" lon="1.42436">
        <ele>1232.5</ele>
        <time>2017-10-11T14:13:26Z</time>
      </trkpt>
      <trkpt lat="42.71018" lon="1.42447">
        <ele>1233.199951</ele>
        <time>2017-10-11T14:13:32Z</time>
      </trkpt>
      <trkpt lat="42.71022" lon="1.42458">
        <ele>1233.800049</ele>
        <time>2017-10-11T14:13:39Z</time>
      </trkpt>
      <trkpt lat="42.71025" lon="1.4247">
        <ele>1234.099976</ele>
        <time>2017-10-11T14:13:46Z</time>
      </trkpt>
      <trkpt lat="42.71027" lon="1.42484">
        <ele>1233.099976</ele>
        <time>2017-10-11T14:14:16Z</time>
      </trkpt>
      <trkpt lat="42.71036" lon="1.42486">
        <ele>1237.800049</ele>
        <time>2017-10-11T14:14:31Z</time>
      </trkpt>
      <trkpt lat="42.71036" lon="1.42499">
        <ele>1238.300049</ele>
        <time>2017-10-11T14:15:04Z</time>
      </trkpt>
      <trkpt lat="42.71042" lon="1.42509">
        <ele>1237.900024</ele>
        <time>2017-10-11T14:15:25Z</time>
      </trkpt>
      <trkpt lat="42.71047" lon="1.42519">
        <ele>1240.300049</ele>
        <time>2017-10-11T14:15:36Z</time>
      </trkpt>
      <trkpt lat="42.71052" lon="1.42531">
        <ele>1241.800049</ele>
        <time>2017-10-11T14:15:49Z</time>
      </trkpt>
      <trkpt lat="42.71057" lon="1.42542">
        <ele>1243.099976</ele>
        <time>2017-10-11T14:15:57Z</time>
      </trkpt>
      <trkpt lat="42.71061" lon="1.42554">
        <ele>1243.599976</ele>
        <time>2017-10-11T14:16:08Z</time>
      </trkpt>
      <trkpt lat="42.71061" lon="1.42568">
        <ele>1242</ele>
        <time>2017-10-11T14:16:16Z</time>
      </trkpt>
      <trkpt lat="42.71065" lon="1.4258">
        <ele>1241.800049</ele>
        <time>2017-10-11T14:16:24Z</time>
      </trkpt>
      <trkpt lat="42.71065" lon="1.42593">
        <ele>1240.900024</ele>
        <time>2017-10-11T14:16:30Z</time>
      </trkpt>
      <trkpt lat="42.71067" lon="1.42607">
        <ele>1239.199951</ele>
        <time>2017-10-11T14:16:37Z</time>
      </trkpt>
      <trkpt lat="42.71067" lon="1.4262">
        <ele>1237.199951</ele>
        <time>2017-10-11T14:16:44Z</time>
      </trkpt>
      <trkpt lat="42.71067" lon="1.42633">
        <ele>1234.699951</ele>
        <time>2017-10-11T14:16:53Z</time>
      </trkpt>
      <trkpt lat="42.71069" lon="1.42647">
        <ele>1233.199951</ele>
        <time>2017-10-11T14:17:01Z</time>
      </trkpt>
      <trkpt lat="42.71071" lon="1.42659">
        <ele>1232</ele>
        <time>2017-10-11T14:17:08Z</time>
      </trkpt>
      <trkpt lat="42.71072" lon="1.42673">
        <ele>1230.199951</ele>
        <time>2017-10-11T14:17:16Z</time>
      </trkpt>
      <trkpt lat="42.71071" lon="1.42686">
        <ele>1228</ele>
        <time>2017-10-11T14:17:21Z</time>
      </trkpt>
      <trkpt lat="42.71073" lon="1.42698">
        <ele>1225.5</ele>
        <time>2017-10-11T14:17:26Z</time>
      </trkpt>
      <trkpt lat="42.71075" lon="1.4271">
        <ele>1223.300049</ele>
        <time>2017-10-11T14:17:33Z</time>
      </trkpt>
      <trkpt lat="42.71077" lon="1.42723">
        <ele>1221.199951</ele>
        <time>2017-10-11T14:17:42Z</time>
      </trkpt>
      <trkpt lat="42.71078" lon="1.42736">
        <ele>1219.199951</ele>
        <time>2017-10-11T14:17:50Z</time>
      </trkpt>
      <trkpt lat="42.71081" lon="1.42748">
        <ele>1217.300049</ele>
        <time>2017-10-11T14:17:58Z</time>
      </trkpt>
      <trkpt lat="42.71084" lon="1.4276">
        <ele>1215.900024</ele>
        <time>2017-10-11T14:18:05Z</time>
      </trkpt>
      <trkpt lat="42.71088" lon="1.42773">
        <ele>1216</ele>
        <time>2017-10-11T14:18:10Z</time>
      </trkpt>
      <trkpt lat="42.71093" lon="1.42784">
        <ele>1216</ele>
        <time>2017-10-11T14:18:17Z</time>
      </trkpt>
      <trkpt lat="42.71095" lon="1.42797">
        <ele>1215.800049</ele>
        <time>2017-10-11T14:18:25Z</time>
      </trkpt>
      <trkpt lat="42.71099" lon="1.42811">
        <ele>1215</ele>
        <time>2017-10-11T14:18:31Z</time>
      </trkpt>
      <trkpt lat="42.71102" lon="1.42823">
        <ele>1214.5</ele>
        <time>2017-10-11T14:18:37Z</time>
      </trkpt>
      <trkpt lat="42.71106" lon="1.42837">
        <ele>1214.099976</ele>
        <time>2017-10-11T14:18:45Z</time>
      </trkpt>
      <trkpt lat="42.7111" lon="1.4285">
        <ele>1213.199951</ele>
        <time>2017-10-11T14:18:52Z</time>
      </trkpt>
      <trkpt lat="42.71115" lon="1.42861">
        <ele>1213.300049</ele>
        <time>2017-10-11T14:19:00Z</time>
      </trkpt>
      <trkpt lat="42.71117" lon="1.42874">
        <ele>1212.300049</ele>
        <time>2017-10-11T14:19:07Z</time>
      </trkpt>
      <trkpt lat="42.7112" lon="1.42886">
        <ele>1211</ele>
        <time>2017-10-11T14:19:16Z</time>
      </trkpt>
      <trkpt lat="42.71124" lon="1.42897">
        <ele>1210.099976</ele>
        <time>2017-10-11T14:19:23Z</time>
      </trkpt>
      <trkpt lat="42.71127" lon="1.42911">
        <ele>1208.900024</ele>
        <time>2017-10-11T14:19:31Z</time>
      </trkpt>
      <trkpt lat="42.71132" lon="1.42924">
        <ele>1208</ele>
        <time>2017-10-11T14:19:39Z</time>
      </trkpt>
      <trkpt lat="42.71136" lon="1.42936">
        <ele>1206</ele>
        <time>2017-10-11T14:19:47Z</time>
      </trkpt>
      <trkpt lat="42.71141" lon="1.42947">
        <ele>1204.800049</ele>
        <time>2017-10-11T14:19:54Z</time>
      </trkpt>
      <trkpt lat="42.71142" lon="1.4296">
        <ele>1202</ele>
        <time>2017-10-11T14:20:02Z</time>
      </trkpt>
      <trkpt lat="42.71146" lon="1.42973">
        <ele>1199</ele>
        <time>2017-10-11T14:20:09Z</time>
      </trkpt>
      <trkpt lat="42.7115" lon="1.42986">
        <ele>1196.099976</ele>
        <time>2017-10-11T14:20:17Z</time>
      </trkpt>
      <trkpt lat="42.71154" lon="1.42997">
        <ele>1193.599976</ele>
        <time>2017-10-11T14:20:24Z</time>
      </trkpt>
      <trkpt lat="42.7116" lon="1.43007">
        <ele>1191.300049</ele>
        <time>2017-10-11T14:20:31Z</time>
      </trkpt>
      <trkpt lat="42.71166" lon="1.43016">
        <ele>1189.199951</ele>
        <time>2017-10-11T14:20:37Z</time>
      </trkpt>
      <trkpt lat="42.71171" lon="1.43027">
        <ele>1186.199951</ele>
        <time>2017-10-11T14:20:46Z</time>
      </trkpt>
      <trkpt lat="42.71179" lon="1.43035">
        <ele>1185.300049</ele>
        <time>2017-10-11T14:20:53Z</time>
      </trkpt>
      <trkpt lat="42.71185" lon="1.43046">
        <ele>1183.699951</ele>
        <time>2017-10-11T14:21:01Z</time>
      </trkpt>
      <trkpt lat="42.71192" lon="1.43055">
        <ele>1181.300049</ele>
        <time>2017-10-11T14:21:08Z</time>
      </trkpt>
      <trkpt lat="42.712" lon="1.43062">
        <ele>1181.300049</ele>
        <time>2017-10-11T14:21:16Z</time>
      </trkpt>
      <trkpt lat="42.71208" lon="1.43071">
        <ele>1179.900024</ele>
        <time>2017-10-11T14:21:24Z</time>
      </trkpt>
      <trkpt lat="42.71214" lon="1.43081">
        <ele>1178</ele>
        <time>2017-10-11T14:21:33Z</time>
      </trkpt>
      <trkpt lat="42.71217" lon="1.43093">
        <ele>1175.599976</ele>
        <time>2017-10-11T14:21:41Z</time>
      </trkpt>
      <trkpt lat="42.71225" lon="1.431">
        <ele>1175.400024</ele>
        <time>2017-10-11T14:21:50Z</time>
      </trkpt>
      <trkpt lat="42.71234" lon="1.43105">
        <ele>1176.400024</ele>
        <time>2017-10-11T14:21:58Z</time>
      </trkpt>
      <trkpt lat="42.71243" lon="1.43108">
        <ele>1178.5</ele>
        <time>2017-10-11T14:22:05Z</time>
      </trkpt>
      <trkpt lat="42.71252" lon="1.43111">
        <ele>1180.099976</ele>
        <time>2017-10-11T14:22:09Z</time>
      </trkpt>
      <trkpt lat="42.71259" lon="1.4312">
        <ele>1181.900024</ele>
        <time>2017-10-11T14:22:16Z</time>
      </trkpt>
      <trkpt lat="42.71268" lon="1.43127">
        <ele>1184.300049</ele>
        <time>2017-10-11T14:22:23Z</time>
      </trkpt>
      <trkpt lat="42.71274" lon="1.43138">
        <ele>1185.800049</ele>
        <time>2017-10-11T14:22:32Z</time>
      </trkpt>
      <trkpt lat="42.7128" lon="1.43148">
        <ele>1185.800049</ele>
        <time>2017-10-11T14:22:38Z</time>
      </trkpt>
      <trkpt lat="42.71285" lon="1.43159">
        <ele>1185.199951</ele>
        <time>2017-10-11T14:22:44Z</time>
      </trkpt>
      <trkpt lat="42.71293" lon="1.43167">
        <ele>1186.300049</ele>
        <time>2017-10-11T14:22:52Z</time>
      </trkpt>
      <trkpt lat="42.71299" lon="1.43177">
        <ele>1187.5</ele>
        <time>2017-10-11T14:22:59Z</time>
      </trkpt>
      <trkpt lat="42.71305" lon="1.43187">
        <ele>1188.300049</ele>
        <time>2017-10-11T14:23:06Z</time>
      </trkpt>
      <trkpt lat="42.71311" lon="1.43197">
        <ele>1188.699951</ele>
        <time>2017-10-11T14:23:13Z</time>
      </trkpt>
      <trkpt lat="42.71313" lon="1.43209">
        <ele>1187.599976</ele>
        <time>2017-10-11T14:23:23Z</time>
      </trkpt>
      <trkpt lat="42.71316" lon="1.43221">
        <ele>1186</ele>
        <time>2017-10-11T14:23:30Z</time>
      </trkpt>
      <trkpt lat="42.71317" lon="1.43235">
        <ele>1183.099976</ele>
        <time>2017-10-11T14:23:39Z</time>
      </trkpt>
      <trkpt lat="42.71317" lon="1.43247">
        <ele>1180.300049</ele>
        <time>2017-10-11T14:23:47Z</time>
      </trkpt>
      <trkpt lat="42.7132" lon="1.43261">
        <ele>1177.800049</ele>
        <time>2017-10-11T14:23:54Z</time>
      </trkpt>
      <trkpt lat="42.71322" lon="1.43274">
        <ele>1175.5</ele>
        <time>2017-10-11T14:24:00Z</time>
      </trkpt>
      <trkpt lat="42.71324" lon="1.43286">
        <ele>1173.099976</ele>
        <time>2017-10-11T14:24:06Z</time>
      </trkpt>
      <trkpt lat="42.71325" lon="1.43301">
        <ele>1170.400024</ele>
        <time>2017-10-11T14:24:13Z</time>
      </trkpt>
      <trkpt lat="42.71326" lon="1.43314">
        <ele>1167.599976</ele>
        <time>2017-10-11T14:24:17Z</time>
      </trkpt>
      <trkpt lat="42.71329" lon="1.43327">
        <ele>1164.800049</ele>
        <time>2017-10-11T14:24:24Z</time>
      </trkpt>
      <trkpt lat="42.71331" lon="1.4334">
        <ele>1161.699951</ele>
        <time>2017-10-11T14:24:31Z</time>
      </trkpt>
      <trkpt lat="42.71333" lon="1.43353">
        <ele>1158.199951</ele>
        <time>2017-10-11T14:24:38Z</time>
      </trkpt>
      <trkpt lat="42.71339" lon="1.43365">
        <ele>1155.099976</ele>
        <time>2017-10-11T14:24:46Z</time>
      </trkpt>
      <trkpt lat="42.71342" lon="1.43377">
        <ele>1152.099976</ele>
        <time>2017-10-11T14:24:53Z</time>
      </trkpt>
      <trkpt lat="42.71348" lon="1.43387">
        <ele>1149.699951</ele>
        <time>2017-10-11T14:25:01Z</time>
      </trkpt>
      <trkpt lat="42.71353" lon="1.43399">
        <ele>1147.099976</ele>
        <time>2017-10-11T14:25:09Z</time>
      </trkpt>
      <trkpt lat="42.71358" lon="1.43412">
        <ele>1144.599976</ele>
        <time>2017-10-11T14:25:17Z</time>
      </trkpt>
      <trkpt lat="42.71364" lon="1.43422">
        <ele>1142.199951</ele>
        <time>2017-10-11T14:25:25Z</time>
      </trkpt>
      <trkpt lat="42.7137" lon="1.43434">
        <ele>1141.5</ele>
        <time>2017-10-11T14:25:33Z</time>
      </trkpt>
      <trkpt lat="42.71371" lon="1.43446">
        <ele>1139.400024</ele>
        <time>2017-10-11T14:25:43Z</time>
      </trkpt>
      <trkpt lat="42.71371" lon="1.4346">
        <ele>1137.199951</ele>
        <time>2017-10-11T14:25:50Z</time>
      </trkpt>
      <trkpt lat="42.71375" lon="1.43471">
        <ele>1134.800049</ele>
        <time>2017-10-11T14:25:57Z</time>
      </trkpt>
      <trkpt lat="42.7138" lon="1.43482">
        <ele>1133</ele>
        <time>2017-10-11T14:26:06Z</time>
      </trkpt>
      <trkpt lat="42.71389" lon="1.43487">
        <ele>1131.800049</ele>
        <time>2017-10-11T14:26:15Z</time>
      </trkpt>
      <trkpt lat="42.71399" lon="1.43493">
        <ele>1131</ele>
        <time>2017-10-11T14:26:23Z</time>
      </trkpt>
      <trkpt lat="42.71407" lon="1.43497">
        <ele>1129.800049</ele>
        <time>2017-10-11T14:27:33Z</time>
      </trkpt>
    </trkseg>
  </trk>
</gpx>